     2.11           OBSERVATION DATA    G (GPS)             RINEX VERSION / TYPE
teqc 2010Oct21 OPUS Account 20111028 17:02:28UTC            PGM / RUN BY / DATE
M 1527                                                      MARKER NAME
3072                                                        MARKER NUMBER
CSMIDDLETON NGS                                             OBSERVER / AGENCY
4820152812 TRIMBLE R7 2.32                                  REC # / TYPE / VERS
60244996 TRM41249.00 NONE                                   ANT # / TYPE
  -721895.1102 -5591510.6127  2972339.4782                  APPROX POSITION XYZ
        2.0030        0.0000        0.0000                  ANTENNA: DELTA H/E/N
     1     1                                                WAVELENGTH FACT L1/2
     5    L1    L2    C1    P1    P2                        # / TYPES OF OBSERV
    15                                                      LEAP SECONDS
  2011     8    25     0     0   30.0000000     GPS         TIME OF FIRST OBS
                                                            END OF HEADER
 11  8 25  0  0 30.0000000  0  9G17G30G12G09G04G10G05G02G25
  22801408.68057  17782397.39854  23135800.3674                   23135799.6644
   -600637.89556   -454910.16852  24136841.5314                   24136840.7034
  -8782616.42258  -6798522.15656  21435932.7504                   21435930.0004
  11842929.57857   9251452.75054  23629902.5234                   23629903.1414
   5839344.89158   4585123.31355  21685333.4454                   21685331.4414
  -7666400.33258  -5963518.94956  20829892.4694                   20829890.5434
  -8556429.17957  -6652505.44656  21888116.8444                   21888116.1214
  -7129789.80158  -5540261.37556  20604984.4694                   20604979.0824
  -1477898.49656  -1137603.10953  24134817.8914                   24134819.9414
 11  8 25  0  1  0.0000000  0  9G17G30G12G09G04G10G05G02G25
  22897156.30147  17857005.87944  23154020.1724                   23154019.6334
   -658432.23846   -499944.60942  24125843.2504                   24125843.1174
  -8799371.64547  -6811578.14846  21432744.1884                   21432741.5984
  11964270.05147   9346003.66044  23652992.6254                   23652994.3134
   5960053.62148   4679182.05545  21708303.3054                   21708302.4384
  -7619932.21547  -5927310.01246  20838735.4384                   20838733.4774
  -8601318.88347  -6687484.31646  21879574.5234                   21879573.9344
  -7085531.62948  -5505774.46946  20613406.0474                   20613401.1564
  -1533434.17647  -1180877.58244  24124251.0084                   24124252.1954
 11  8 25  0  1 30.0000000  0  9G17G30G12G09G04G10G05G02G25
  22993095.35247  17931763.54744  23172277.1564                   23172276.1804
   -715970.88746   -544779.78143  24114894.3914                   24114893.9024
  -8815667.71548  -6824276.35946  21429643.2664                   21429640.8244
  12085806.70747   9440707.41844  23676120.0164                   23676122.1024
   6080923.75048   4773366.55945  21731304.4774                   21731302.8634
  -7572800.68048  -5890584.13346  20847703.7424                   20847702.2114
  -8645863.84447  -6722194.55946  21871098.1724                   21871097.1334
  -7040958.90248  -5471042.46146  20621888.4304                   20621883.6644
  -1588765.12947  -1223992.52744  24113721.3524                   24113722.8134
 11  8 25  0  2  0.0000000  0  9G17G30G12G09G04G10G05G02G25
  23089220.28547  18006666.03144  23190568.9774                   23190568.1454
   -773256.77346   -589418.00043  24103993.0084                   24103992.9224
  -8831508.12147  -6836619.50546  21426629.1564                   21426625.9844
  12207530.23747   9535556.78144  23699284.4384                   23699284.6764
   6201947.74247   4867670.94945  21754334.6564                   21754333.0274
  -7525011.52347  -5853345.81246  20856797.9844                   20856796.2584
  -8690066.83247  -6756638.32046  21862686.3134                   21862685.3404
  -6996078.31248  -5436070.55146  20630428.6334                   20630423.7074
  -1643894.61746  -1266950.48844  24103230.2274                   24103231.4184
 11  8 25  0  2 30.0000000  0  9G17G30G12G09G04G10G05G02G25
  23185528.01247  18081710.94144  23208896.3914                   23208895.1564
   -830290.90646   -633860.07444  24093138.9924                   24093139.5594
  -8846894.36748  -6848608.76246  21423701.1094                   21423697.9104
  12329433.49647   9630546.19144  23722481.3674                   23722482.5664
   6323119.64548   4962090.61745  21777392.7274                   21777391.1174
  -7476568.53548  -5815598.00846  20866016.5234                   20866014.3794
  -8733928.73047  -6790816.31246  21854339.7194                   21854338.3674
  -6950894.88348  -5400862.67246  20639027.0554                   20639022.2894
  -1698823.83647  -1309752.39144  24092777.1804                   24092779.2854
 11  8 25  0  3  0.0000000  0  9G17G30G12G09G04G10G05G02G25
  23282020.09847  18156899.52744  23227257.3524                   23227256.9614
   -887069.51647   -678103.05943  24082335.2034                   24082334.7504
  -8861823.14148  -6860241.54746  21420860.3054                   21420857.6724
  12451514.44147   9725674.06044  23745713.0004                   23745714.8554
   6444438.57448   5056624.85245  21800478.8984                   21800477.3754
  -7427470.46548  -5777339.75446  20875359.3984                   20875357.6644
  -8777445.83247  -6824725.62146  21846058.4384                   21846057.5234
  -6905408.84448  -5365418.98846  20647682.3204                   20647677.7704
  -1753548.97747  -1352395.28144  24082363.7734                   24082365.2974
 11  8 25  0  3 30.0000000  0  9G17G30G12G09G04G10G05G02G25
  23378698.29747  18232233.13344  23245654.8204                   23245654.4344
   -943588.74246   -722143.94143  24071579.6484                   24071578.8244
  -8876290.93448  -6871515.11346  21418106.8284                   21418104.4534
  12573770.37547   9820938.27744  23768976.6174                   23768979.0664
   6565903.65648   5151272.96145  21823592.9694                   21823591.5984
  -7377715.89148  -5738569.93446  20884827.4144                   20884825.6954
  -8820614.29347  -6858363.27346  21837843.4694                   21837842.6134
  -6859620.28148  -5329739.56246  20656395.7194                   20656390.8954
  -1808066.44947  -1394876.31244  24071989.3134                   24071991.0004
 11  8 25  0  4  0.0000000  0  9G17G30G12G09G04G10G05G02G25
  23475563.80547  18307712.69944  23264088.0004                   23264086.9614
   -999844.93746   -765979.84043  24060873.6174                   24060873.7074
  -8890294.75048  -6882427.14546  21415441.7344                   21415439.5124
  12696198.88747   9916336.92244  23792274.9694                   23792276.5124
   6687513.80148   5246034.09045  21846734.4844                   21846732.9104
  -7327304.41048  -5699288.22746  20894420.2894                   20894418.8594
  -8863430.42647  -6891726.38746  21829695.8754                   21829694.8794
  -6813529.61748  -5293824.73046  20665166.5164                   20665161.7074
  -1862372.92247  -1437192.91844  24061654.4774                   24061656.3284
 11  8 25  0  4 30.0000000  0  9G17G30G12G09G04G10G05G02G25
  23572615.67247  18383337.47744  23282556.2114                   23282555.7584
  -1055836.94947   -809609.89843  24050219.4844                   24050218.6294
  -8903834.25448  -6892977.39846  21412865.6334                   21412862.3914
  12818794.84847  10011866.06644  23815604.0314                   23815605.8754
   6809265.23048   5340905.32445  21869903.6804                   21869901.8444
  -7276237.96948  -5659496.16446  20904138.0234                   20904135.6764
  -8905893.10947  -6924814.07046  21821615.4774                   21821614.2584
  -6767139.53148  -5257676.58646  20673994.1644                   20673989.6844
  -1916467.45747  -1479344.37944  24051360.7974                   24051362.5904
 11  8 25  0  5  0.0000000  0  9G17G30G12G09G04G10G05G02G25
  23669854.12147  18459107.66444  23301060.1724                   23301059.5594
  -1111562.30147   -853032.21143  24039615.3594                   24039614.4884
  -8916907.43048  -6903164.25846  21410377.9924                   21410374.8364
  12941554.64546  10107522.85544  23838963.6484                   23838967.0314
   6931155.97748   5435885.10245  21893098.4064                   21893096.7274
  -7224516.90648  -5619194.00446  20913980.0314                   20913978.2234
  -8948000.03947  -6957624.55146  21813602.7894                   21813601.7194
  -6720451.65648  -5221296.39846  20682878.4924                   20682873.9574
  -1970347.79347  -1521328.96944  24041107.6334                   24041108.9654
 11  8 25  0  5 30.0000000  0  9G17G30G12G09G04G10G05G02G25
  23767284.77047  18535027.62944  23319600.8204                   23319600.3284
  -1167012.94546   -896240.47743  24029062.6644                   24029062.3014
  -8929506.69948  -6912981.83646  21407980.4064                   21407977.9184
  13064480.10946  10203308.71944  23862356.4454                   23862359.3204
   7053189.21148   5530975.91445  21916320.2894                   21916318.9024
  -7172135.92248  -5578377.62146  20923947.9384                   20923946.0234
  -8989743.06647  -6990151.47746  21805659.2034                   21805658.0634
  -6673461.97748  -5184681.04346  20691820.5784                   20691815.7934
  -2024005.91447  -1563140.37944  24030896.8914                   24030898.5634
 11  8 25  0  6  0.0000000  0  9G17G30G12G09G04G10G05G02G25
  23864906.80147  18611096.69144  23338177.6254                   23338177.1564
  -1222187.66446   -939233.67643  24018563.7424                   24018562.6604
  -8941631.16448  -6922429.43746  21405673.1484                   21405669.6804
  13187566.13746  10299219.69944  23885779.2814                   23885781.2664
   7175361.39848   5626175.00445  21939568.9534                   21939567.3634
  -7119096.75448  -5537048.35546  20934040.7424                   20934038.8054
  -9031120.86347  -7022393.80146  21797785.4614                   21797783.8874
  -6626173.12148  -5147832.55946  20700819.0084                   20700814.3834
  -2077440.84447  -1604777.85544  24020728.2274                   24020730.3324
 11  8 25  0  6 30.0000000  0  9G17G30G12G09G04G10G05G02G25
  23962719.42247  18687314.27744  23356790.6954                   23356789.4774
  -1277084.87146   -982010.58243  24008117.0944                   24008116.4264
  -8953280.17248  -6931506.57046  21403456.1954                   21403453.1374
  13310808.29346  10395252.34044  23909232.1334                   23909233.1804
   7297669.57448   5721480.05145  21962843.9304                   21962842.0664
  -7065401.02748  -5495207.48846  20944258.9224                   20944256.7464
  -9072132.30547  -7054350.66846  21789980.7974                   21789979.7664
  -6578587.78548  -5110753.05946  20709874.3364                   20709869.2274
  -2130651.22747  -1646240.36744  24010602.5944                   24010604.3134
 11  8 25  0  7  0.0000000  0  9G17G30G12G09G04G10G05G02G25
  24060719.84047  18763678.19944  23375439.4064                   23375439.0664
  -1331705.06646  -1024571.64843  23997723.1804                   23997722.4654
  -8964454.81248  -6940214.05946  21401329.9924                   21401327.4844
  13434199.74246  10491401.31644  23932712.2344                   23932714.5904
   7420108.18448   5816886.73845  21986142.6954                   21986141.7664
  -7011051.80948  -5452857.40646  20954601.0084                   20954599.1054
  -9112777.42248  -7086022.07846  21782246.5864                   21782244.9414
  -6530710.24648  -5073445.85546  20718985.0164                   20718980.5744
  -2183637.82446  -1687528.52744  24000519.2034                   24000520.9414
 11  8 25  0  7 30.0000000  0  9G17G30G12G09G04G10G05G02G25
  24158918.14847  18840196.31344  23394126.5314                   23394125.9924
  -1386035.58646  -1066907.11342  23987384.7814                   23987382.7194
  -8975143.10248  -6948542.57846  21399296.0864                   21399293.1134
  13557746.94146  10587671.66044  23956223.1724                   23956225.3364
   7542685.35947   5912401.38745  22009468.6644                   22009467.6484
  -6956039.91448  -5409990.97346  20965069.0634                   20965066.9774
  -9153043.93047  -7117398.46946  21774583.8914                   21774582.6564
  -6482532.07448  -5035904.40246  20728153.0004                   20728148.4614
  -2236388.24247  -1728632.65244  23990481.1724                   23990482.9774
 11  8 25  0  8  0.0000000  0  9G17G30G12G09G04G10G05G02G25
  24257308.77047  18916864.28544  23412849.7344                   23412849.1644
  -1440080.14146  -1109019.75842  23977099.8444                   23977097.6994
  -8985349.03948  -6956495.23046  21397353.3914                   21397351.0984
  13681440.25447  10684055.85244  23979760.6174                   23979763.1024
   7665392.85248   6008017.57445  22032818.9694                   22032818.3164
  -6900371.64548  -5366613.05546  20975662.9454                   20975660.7774
  -9192935.43048  -7148482.64546  21766992.7584                   21766991.2704
  -6434060.58248  -4998134.39146  20737376.8204                   20737372.0634
  -2288906.09847  -1769555.59044  23980487.7034                   23980489.1884
 11  8 25  0  8 30.0000000  0  9G17G30G12G09G04G10G05G02G25
  24355891.71147  18993682.11344  23431608.6564                   23431608.8014
  -1493836.37146  -1150907.57843  23966870.4304                   23966869.3134
  -8995071.25848  -6964070.97346  21395503.8364                   21395501.2504
  13805275.90647  10780550.98044  24003326.4304                   24003328.7074
   7788228.31348   6103733.47345  22056193.7424                   22056193.2194
  -6844047.89148  -5322724.39146  20986381.0704                   20986378.9734
  -9232449.62547  -7179272.82446  21759473.3754                   21759471.6294
  -6385297.86748  -4960137.46146  20746656.1334                   20746651.0234
  -2341189.21547  -1810295.60944  23970538.4224                   23970540.0514
 11  8 25  0  9  0.0000000  0  9G17G30G12G09G04G10G05G02G25
  24454664.97347  19070648.26644  23450404.7974                   23450404.5044
  -1547303.87546  -1192570.39143  23956696.0634                   23956695.0904
  -9004309.95348  -6971269.93046  21393745.4454                   21393742.8984
  13929247.77747  10877152.20344  24026917.4384                   24026919.9064
   7911187.30948   6199545.64145  22079592.2114                   22079591.1414
  -6787071.85548  -5278327.44946  20997223.0944                   20997220.9924
  -9271586.69948  -7209769.14146  21752025.6724                   21752024.5354
  -6336247.43748  -4921916.32846  20755990.2504                   20755985.2544
  -2393237.70347  -1850852.82444  23960633.2194                   23960635.0084
 11  8 25  0  9 30.0000000  0  9G17G30G12G09G04G10G05G02G25
  24553627.99647  19147762.24644  23469237.3524                   23469237.0124
  -1600481.01647  -1234006.97743  23946576.8364                   23946575.7384
  -9013064.07048  -6978091.29746  21392079.7894                   21392076.7974
  14053351.59847  10973856.26243  24050534.5864                   24050536.3594
   8034266.97348   6295451.83245  22103013.3524                   22103012.2974
  -6729445.10548  -5233423.44946  21008189.0634                   21008187.2734
  -9310344.74648  -7239970.11346  21744649.8914                   21744648.7584
  -6286911.26248  -4883472.53146  20765378.1644                   20765373.8594
  -2445049.89547  -1891225.97744  23950774.6094                   23950774.9844
 11  8 25  0 10  0.0000000  0  9G17G30G12G09G04G10G05G02G25
  24652781.73847  19225024.85244  23488105.4534                   23488105.1844
  -1653364.50447  -1275214.80943  23936513.4694                   23936511.3404
  -9021331.18048  -6984533.18746  21390506.6564                   21390503.2384
  14177584.20347  11070660.73843  24074174.4774                   24074176.2154
   8157465.88348   6391450.94945  22126457.2974                   22126456.3244
  -6671167.07048  -5188011.96546  21019278.6094                   21019277.0904
  -9348720.43748  -7269873.15246  21737347.2504                   21737345.9804
  -6237290.93448  -4844807.32846  20774820.8054                   20774816.3134
  -2496622.70347  -1931412.57044  23940960.5784                   23940961.6914
 11  8 25  0 10 30.0000000  0  9G17G30G12G09G04G10G05G02G25
  24752128.21147  19302437.64544  23507010.6804                   23507010.6684
  -1705949.99646  -1316190.41043  23926506.5314                   23926504.9104
  -9029107.48048  -6990592.63346  21389027.3674                   21389024.2894
  14301943.71147  11167564.06343  24097839.3914                   24097841.0394
   8280783.93847   6487542.90645  22149923.9224                   22149922.9414
  -6612236.49248  -5142092.01646  21030492.9144                   21030491.5824
  -9386709.73048  -7299475.09046  21730118.0704                   21730116.8164
  -6187385.54348  -4805919.99646  20784317.1804                   20784313.0354
  -2547951.94147  -1971409.32844  23931192.1804                   23931194.4534
 11  8 25  0 11  0.0000000  0  9G17G30G12G09G04G10G05G02G25
  24851668.14547  19380001.18045  23525952.1804                   23525951.8094
  -1758234.27346  -1356931.29743  23916556.6954                   23916556.1094
  -9036390.37948  -6996267.58246  21387641.2194                   21387638.2664
  14426427.48447  11264564.24644  24121528.2114                   24121530.6724
   8404219.56648   6583726.48445  22173412.9384                   22173412.2274
  -6552653.78948  -5095663.91846  21041831.1954                   21041828.9494
  -9424309.46948  -7328773.48446  21722962.9844                   21722961.7424
  -6137195.99248  -4766811.23446  20793868.3284                   20793863.1134
  -2599034.37947  -2011213.81644  23921472.2344                   23921472.9964
 11  8 25  0 11 30.0000000  0  9G17G30G12G09G04G10G05G02G25
  24951405.26647  19457718.33244  23544931.8054                   23544931.7504
  -1810211.57447  -1397432.96944  23906665.8594                   23906664.7424
  -9043175.09048  -7001554.35246  21386349.9064                   21386346.7774
  14551035.12947  11361660.92243  24145240.3594                   24145243.3674
   8527773.95747   6680002.59445  22196925.1334                   22196923.6764
  -6492416.47748  -5048725.73446  21053293.8204                   21053291.9264
  -9461513.88348  -7357763.83646  21715883.2424                   21715882.1844
  -6086720.62148  -4727479.75846  20803473.6414                   20803468.9534
  -2649864.57447  -2050821.79344  23911799.7734                   23911800.1134
 11  8 25  0 12  0.0000000  0  9G17G30G12G09G04G10G05G02G25
  23475917.37547  18307987.46944  23264155.6724                   23264155.4964
  -3437306.99247  -2665299.41844  23597040.0234                   23597038.9064
 -10624885.41048  -8234055.89546  21085360.5474                   21085357.3594
  13100341.43847  10231250.05943  23869182.4844                   23869185.6604
   7076023.27048   5548768.25445  21920665.9304                   21920664.6054
  -8006948.99248  -6228880.91846  20765088.1094                   20765085.9304
 -11073747.63748  -8614049.78946  21409085.5784                   21409083.6484
  -7611384.93048  -5915529.85546  20513339.5314                   20513334.9614
  -4275867.63747  -3317837.11744  23602381.1564                   23602382.6564
 11  8 25  0 12 30.0000000  0  9G17G30G12G09G04G10G05G02G25
  23576042.74647  18386007.21144  23283209.2344                   23283208.7274
  -3488669.54747  -2705322.11743  23587265.0004                   23587265.0984
 -10630674.58648  -8238566.91846  21084258.6254                   21084255.7894
  13225179.27046  10328526.10543  23892938.7424                   23892941.3364
   7199802.09447   5645219.26245  21944220.3674                   21944219.0944
  -7945411.18448  -6180929.35946  20776797.9064                   20776796.1724
 -11110161.23848  -8642423.93446  21402156.2974                   21402154.3524
  -7560348.93748  -5875761.53546  20523051.2894                   20523046.3244
  -4326192.98447  -3357051.59844  23592804.7974                   23592805.8014
 11  8 25  0 13  0.0000000  0  9G17G30G12G09G04G10G05G02G25
  23676364.44147  18464179.91444  23302299.7034                   23302299.2664
  -3539718.96946  -2745100.80944  23577550.6884                   23577551.1524
 -10635961.57448  -8242686.61746  21083252.7734                   21083249.9774
  13350128.64546  10425889.08643  23916715.1334                   23916717.8954
   7323692.14847   5741756.96145  21967796.0784                   21967794.6134
  -7883222.32048  -6132470.49246  20788632.3524                   20788630.4264
 -11146173.85548  -8670485.60246  21395302.7664                   21395301.1604
  -7509033.03948  -5835775.10946  20532816.3914                   20532811.5434
  -4376260.30147  -3396065.05944  23583276.9534                   23583278.0314
 11  8 25  0 13 30.0000000  0  9G17G30G12G09G04G10G05G02G25
  23776876.70347  18542501.12144  23321426.8674                   23321426.2624
  -3590458.57047  -2784638.07844  23567895.4694                   23567895.2624
 -10640750.45748  -8246418.18746  21082341.3524                   21082338.1484
  13475180.08246  10523331.57843  23940511.8914                   23940514.5274
   7447685.43047   5838375.09045  21991390.9144                   21991389.5634
  -7820389.23048  -6083509.62546  20800589.0314                   20800587.1764
 -11181789.03548  -8698237.60246  21388525.4304                   21388524.1174
  -7457444.37548  -5795576.12146  20542633.3524                   20542628.3364
  -4426073.09047  -3434880.15244  23573797.5704                   23573799.3444
 11  8 25  0 14  0.0000000  0  9G17G30G12G09G04G10G05G02G25
  23877584.90647  18620975.00844  23340590.7344                   23340590.3674
  -3640880.67247  -2823928.00844  23558300.5314                   23558300.0354
 -10645034.05148  -8249756.03946  21081526.2344                   21081522.8364
  13600335.35246  10620854.98843  23964328.4384                   23964331.0354
   7571785.14147   5935076.14845  22015006.5864                   22015005.3204
  -7756907.75848  -6034043.54346  20812669.0084                   20812667.0394
 -11216999.23848  -8725674.03946  21381825.1174                   21381823.6374
  -7405579.62148  -5755162.00846  20552503.2504                   20552498.3554
  -4475623.93747  -3473491.10244  23564369.0474                   23564369.8714
 11  8 25  0 14 30.0000000  0  9G17G30G12G09G04G10G05G02G25
  23978489.61347  18699602.01244  23359791.9694                   23359792.2544
  -3690982.38346  -2862968.28543  23548765.9144                   23548765.9344
 -10648810.33648  -8252698.57846  21080807.4064                   21080804.3984
  13725591.08647  10718456.68043  23988164.4224                   23988167.4804
   7695989.55948   6031858.79745  22038641.5474                   22038640.3874
  -7692778.11348  -5984072.37146  20824872.5864                   20824870.8484
 -11251801.89548  -8752792.89546  21375202.5394                   21375200.6524
  -7353439.57848  -5714533.37946  20562424.8054                   20562420.4344
  -4524909.85247  -3511895.60545  23554989.6644                   23554990.8714
 11  8 25  0 15  0.0000000  0  9G17G30G12G09G04G10G05G02G25
  24079590.23047  18778381.65644  23379031.6174                   23379030.8794
  -3740762.21546  -2901757.70343  23539292.5394                   23539293.7344
 -10652078.51648  -8255245.18446  21080185.4614                   21080182.2934
  13850942.87147  10816133.23444  24012017.8134                   24012021.8054
   7820295.72348   6128720.73045  22062296.3674                   22062295.3014
  -7628002.18048  -5933597.59446  20837199.0164                   20837197.5864
 -11286195.05148  -8779592.67246  21368657.0314                   21368655.6764
  -7301026.95348  -5673692.35546  20572398.4924                   20572393.9774
  -4573929.65247  -3550092.75444  23545661.1414                   23545662.3714
 11  8 25  0 15 30.0000000  0  9G17G30G12G09G04G10G05G02G25
  24180888.23447  18857315.11744  23398307.4224                   23398306.6564
  -3790216.07046  -2940293.13744  23529882.3754                   23529882.3484
 -10654835.96548  -8257393.80546  21079661.0554                   21079657.8444
  13976388.44546  10913882.83643  24035890.3284                   24035892.8554
   7944702.99247   6225661.45345  22085970.0394                   22085969.4264
  -7562579.74248  -5882619.06246  20849648.5784                   20849646.7424
 -11320175.96148  -8806071.21946  21362191.1254                   21362189.6454
  -7248341.87148  -5632639.02746  20582424.0474                   20582419.3094
  -4622679.55947  -3588079.59044  23536384.6954                   23536386.0744
 11  8 25  0 16  0.0000000  0  9G17G30G12G09G04G10G05G02G25
  24282385.77347  18936404.06344  23417621.3984                   23417621.6294
  -3839339.52046  -2978571.12943  23520535.2274                   23520534.4654
 -10657078.91848  -8259141.53546  21079234.2274                   21079231.0354
  14101926.13346  11011704.19143  24059779.0164                   24059781.9024
   8069211.35547   6322680.94145  22109663.4224                   22109662.4264
  -7496509.69548  -5831135.91846  20862221.2974                   20862219.1954
 -11353739.77748  -8832224.76246  21355803.8754                   21355802.7814
  -7195383.96948  -5591373.10546  20592501.7034                   20592496.7854
  -4671154.97747  -3625852.52045  23527160.3524                   23527161.3674
 11  8 25  0 16 30.0000000  0  9G17G30G12G09G04G10G05G02G25
  24384076.16447  19015643.29344  23436973.1254                   23436972.6914
  -3888136.65646  -3016594.87143  23511248.6174                   23511247.9734
 -10658812.14148  -8260492.08246  21078904.2114                   21078901.2934
  14227545.77746  11109589.41844  24083683.8834                   24083687.1214
   8193812.26647   6419772.53945  22133373.9224                   22133373.1334
  -7429799.77348  -5779154.16046  20874915.6484                   20874913.6914
 -11386890.74248  -8858056.59846  21349495.6644                   21349493.7934
  -7142160.99648  -5549900.64846  20602629.4614                   20602624.9064
  -4719360.32447  -3663415.01644  23517986.7114                   23517987.4264
 11  8 25  0 17  0.0000000  0  9G17G30G12G09G04G10G05G02G25
  24485969.51647  19095040.67244  23456362.9224                   23456362.7624
  -3936595.14146  -3054354.70343  23502027.8524                   23502027.1604
 -10660024.14548  -8261436.47746  21078673.5234                   21078670.5864
  14353253.69146  11207543.44944  24107605.5234                   24107608.6724
   8318513.48047   6516942.29745  22157104.2734                   22157102.5784
  -7362441.34448  -5726667.06646  20887733.7584                   20887732.0634
 -11419616.94948  -8883557.45746  21343267.9454                   21343266.1954
  -7088664.97348  -5508215.41446  20612809.3524                   20612805.1054
  -4767283.44947  -3700757.64144  23508867.0704                   23508867.6454
 11  8 25  0 17 30.0000000  0  9G17G30G12G09G04G10G05G02G25
  24588064.28546  19174594.99644  23475789.9614                   23475790.5704
  -3984714.75447  -3091850.44144  23492870.7274                   23492870.5704
 -10660715.50848  -8261975.16446  21078541.8594                   21078539.2424
  14479044.00446  11305561.66843  24131541.4534                   24131545.8794
   8443310.86347   6614187.00045  22180852.3754                   22180850.1844
  -7294437.53148  -5673677.07846  20900674.6484                   20900672.3754
 -11451918.18748  -8908727.16846  21337121.0704                   21337119.2114
  -7034899.50448  -5466320.23046  20623040.5864                   20623035.7274
  -4814924.24247  -3737880.24644  23499801.6414                   23499802.6564
 11  8 25  0 18  0.0000000  0  9G17G30G12G09G04G10G05G02G25
  24690360.08647  19254305.93844  23495257.0944                   23495256.6994
  -4032492.84847  -3129080.05544  23483778.8754                   23483778.1334
 -10660884.78548  -8262107.02746  21078509.5474                   21078506.5704
  14604913.30546  11403641.41443  24155494.4694                   24155497.6254
   8568202.49248   6711505.14845  22204618.5784                   22204617.2584
  -7225789.65248  -5620185.22346  20913737.8594                   20913735.4804
 -11483792.55548  -8933564.25846  21331055.6174                   21331054.2584
  -6980865.84448  -5424216.07446  20633322.8204                   20633318.2934
  -4862280.20747  -3774780.84444  23490789.3914                   23490791.1024
 11  8 25  0 18 30.0000000  0  9G17G30G12G09G04G10G05G02G25
  24792856.99646  19334173.58244  23514761.3834                   23514761.4384
  -4079926.94147  -3166041.68744  23474752.8594                   23474751.5634
 -10660530.22348  -8261830.72746  21078577.1954                   21078573.6844
  14730857.84446  11501779.79344  24179461.5084                   24179464.4964
   8693186.12148   6808894.96545  22228402.3364                   22228400.8484
  -7156498.66848  -5566192.24246  20926923.3134                   20926921.7304
 -11515237.65248  -8958066.85246  21325071.4384                   21325070.1094
  -6926566.12948  -5381904.60946  20643655.8054                   20643650.9144
  -4909348.98847  -3811457.76244  23481833.1254                   23481832.8794
 11  8 25  0 19  0.0000000  0  9G17G30G12G09G04G10G05G02G25
  24895552.27746  19414195.83244  23534303.6884                   23534303.6374
  -4127017.51646  -3202735.58244  23465791.2734                   23465790.8754
 -10659653.12148  -8261147.25046  21078744.1174                   21078740.5554
  14856871.32047  11599971.91044  24203441.4064                   24203444.5164
   8818257.49647   6906353.15245  22252202.2894                   22252201.1724
  -7086569.10948  -5511701.66046  20940230.2974                   20940228.4064
 -11546254.07448  -8982235.40646  21319169.2974                   21319167.5784
  -6872004.41848  -5339388.98046  20654038.4224                   20654034.0664
  -4956131.12147  -3847911.35544  23472930.2194                   23472931.0234
 11  8 25  0 19 30.0000000  0  9G17G30G12G09G04G10G05G02G25
  24998453.09446  19494378.25044  23553885.5004                   23553885.1564
  -4173755.44147  -3239154.60244  23456898.0394                   23456896.5514
 -10658245.13348  -8260050.09046  21079011.8834                   21079009.0394
  14982956.94946  11698220.26643  24227434.5164                   24227438.4344
   8943420.85547   7003883.00045  22276020.0634                   22276019.1764
  -7015995.12148  -5456708.93446  20953660.2664                   20953658.2854
 -11576832.77048  -9006062.88346  21313350.4144                   21313348.2304
  -6817175.54748  -5296665.17246  20664472.3984                   20664467.3054
  -5002617.72347  -3884134.55544  23464083.8984                   23464085.5004
 11  8 25  0 20  0.0000000  0  9G17G30G12G09G04G10G05G02G25
  25101559.97346  19574721.21544  23573505.9774                   23573505.7074
  -4220137.60547  -3275296.46544  23448072.0314                   23448069.6804
 -10656304.72348  -8258538.03946  21079380.8984                   21079378.4614
  15109111.69947  11796522.44543  24251441.0474                   24251444.4694
   9068675.09047   7101483.66445  22299855.3054                   22299854.1954
  -6944777.39548  -5401214.58646  20967212.0634                   20967210.4414
 -11606971.02348  -9029547.16846  21307615.1334                   21307613.5434
  -6762080.44948  -5253733.93046  20674956.5234                   20674951.9064
  -5048805.56247  -3920124.98845  23455295.1174                   23455295.7234
 11  8 25  0 20 30.0000000  0  9G17G30G12G09G04G10G05G02G25
  25204869.32847  19655221.93844  23593165.3444                   23593164.0784
  -4266165.05146  -3311161.97743  23439313.0864                   23439310.9344
 -10653833.60548  -8256612.47346  21079851.1804                   21079847.9694
  15235328.42247  11894872.91443  24275459.5784                   24275463.0594
   9194014.62547   7199150.80145  22323706.6414                   22323705.3914
  -6872920.84448  -5345222.45346  20980886.2034                   20980884.3634
 -11636670.44148  -9052689.49246  21301963.5704                   21301961.9414
  -6706724.48848  -5210599.41846  20685490.5314                   20685485.4304
  -5094696.03546  -3955883.73444  23446561.7584                   23446563.0824
 11  8 25  0 21  0.0000000  0  9G17G30G12G09G04G10G05G02G25
  25308386.72747  19735884.79344  23612864.3834                   23612863.7464
  -4311830.08646  -3346744.96544  23430622.4534                   23430621.6024
 -10650824.82848  -8254267.94146  21080423.6024                   21080420.6684
  15361608.96146  11993273.12543  24299490.4924                   24299493.6484
   9319442.79747   7296887.01645  22347574.9304                   22347573.5434
  -6800421.20748  -5288729.21146  20994682.6724                   20994680.5664
 -11665923.28948  -9075483.84446  21296396.9144                   21296395.3094
  -6651103.79348  -5167258.61746  20696074.7344                   20696069.7974
  -5140281.47747  -3991404.76244  23437887.1564                   23437888.5434
 11  8 25  0 21 30.0000000  0  9G17G30G12G09G04G10G05G02G25
  25412112.60547  19816710.10544  23632602.0004                   23632602.4924
  -4357129.79747  -3382043.34044  23422002.7894                   23422001.1174
 -10647276.57048  -8251503.04346  21081098.9844                   21081095.8094
  15487950.22346  12091720.64143  24323532.7424                   24323535.9964
   9444958.30947   7394691.28545  22371459.6414                   22371458.1454
  -6727279.63348  -5231735.75846  21008600.8444                   21008598.6764
 -11694727.16448  -9097928.35546  21290915.6094                   21290913.7584
  -6595219.25448  -5123712.21546  20706709.2034                   20706704.2974
  -5185558.98447  -4026685.85544  23429270.5944                   23429272.8204
 11  8 25  0 22  0.0000000  0  9G17G30G12G09G04G10G05G02G25
  25516043.11347  19897694.86344  23652379.9694                   23652379.4454
  -4402065.57046  -3417058.14543  23413451.3134                   23413449.4804
 -10643191.10248  -8248319.53146  21081876.7194                   21081873.7114
  15614344.76646  12190209.68443  24347584.8984                   24347588.3204
   9570555.20747   7492558.97345  22395360.0004                   22395358.6414
  -6653501.26648  -5174246.09846  21022640.1094                   21022638.1054
 -11723083.66848  -9120024.24646  21285519.6094                   21285517.6134
  -6539076.13748  -5079964.32846  20717393.0004                   20717388.2624
  -5230530.20347  -4061728.28145  23420713.1174                   23420714.5594
 11  8 25  0 22 30.0000000  0  9G17G30G12G09G04G10G05G02G25
  25620181.75447  19978841.81344  23672196.5864                   23672195.4924
  -4446631.63747  -3451784.85943  23404970.6484                   23404969.2274
 -10638564.04748  -8244714.00446  21082757.1414                   21082753.9804
  15740792.60546  12288740.31343  24371646.6954                   24371650.2154
   9696235.26247   7590491.44945  22419276.2424                   22419274.9924
  -6579084.11748  -5116258.68746  21036801.2504                   21036799.6764
 -11750987.48848  -9141767.40246  21280209.5474                   21280207.6644
  -6482673.05148  -5036013.87146  20728125.9534                   20728121.3834
  -5275189.30547  -4096527.52745  23412215.2274                   23412216.2974
 11  8 25  0 23  0.0000000  0  9G17G30G12G09G04G10G05G02G25
  25724528.18246  20060150.67944  23692053.0394                   23692052.6884
  -4490825.89146  -3486221.82844  23396560.9454                   23396559.4964
 -10633393.84848  -8240685.25046  21083740.6954                   21083737.6844
  15867289.59446  12387309.15643  24395717.9144                   24395722.5234
   9821995.93047   7688486.74244  22443207.2504                   22443206.9024
  -6504029.86348  -5057774.82446  21051084.0004                   21051081.9614
 -11778436.85548  -9163156.46946  21274986.0314                   21274984.2584
  -6426011.88348  -4991862.30546  20738908.0004                   20738903.3594
  -5319534.52347  -4131082.15645  23403776.3914                   23403777.7704
 11  8 25  0 23 30.0000000  0  9G17G30G12G09G04G10G05G02G25
  25829079.41046  20141619.12544  23711948.2274                   23711948.8134
  -4534649.02747  -3520369.61343  23388221.3284                   23388220.1524
 -10627682.53948  -8236234.86346  21084827.4694                   21084824.6374
  15993829.37946  12485911.35543  24419799.0634                   24419802.4574
   9947832.35947   7786541.07845  22467153.6094                   22467152.2074
  -6428343.20748  -4998798.17246  21065486.4924                   21065484.1844
 -11805432.69148  -9184192.11346  21269849.1884                   21269847.1374
  -6369096.89148  -4947512.95346  20749738.4924                   20749734.0044
  -5363566.44147  -4165392.63745  23395397.5004                   23395398.1804
 11  8 25  0 24  0.0000000  0  9G17G30G12G09G04G10G05G02G25
  25933837.34046  20223248.63744  23731883.8284                   23731883.1414
  -4578096.86347  -3554225.02744  23379953.2504                   23379951.4144
 -10621427.28148  -8231360.63346  21086017.8204                   21086015.2114
  16120409.82846  12584545.25843  24443886.4224                   24443889.4384
  10073744.37147   7884654.31345  22491113.4694                   22491112.6644
  -6352024.11348  -4939328.71546  21080009.3834                   21080007.3634
 -11831971.32448  -9204871.49646  21264798.6174                   21264796.3874
  -6311928.58248  -4902966.22746  20760617.4844                   20760612.3914
  -5407281.05147  -4199455.94945  23387078.9844                   23387079.3324
 11  8 25  0 24 30.0000000  0  9G17G30G12G09G04G10G05G02G25
  26038803.73046  20305040.55944  23751858.2194                   23751857.5394
  -4621164.94147  -3587784.49644  23371758.1024                   23371756.7234
 -10614624.15248  -8226059.46146  21087312.1724                   21087309.6884
  16247029.80546  12683209.92643  24467981.7114                   24467985.3444
  10199732.05547   7982826.50845  22515088.6884                   22515087.9264
  -6275071.97748  -4879365.98446  21094653.1024                   21094650.9924
 -11858048.44148  -9225191.25846  21259836.3134                   21259834.4344
  -6254505.98848  -4858221.33246  20771544.7504                   20771539.7664
  -5450674.00847  -4233268.55145  23378820.6804                   23378822.3014
 11  8 25  0 25  0.0000000  0  9G17G30G12G09G04G10G05G02G25
  26143975.61746  20386992.61344  23771870.9534                   23771871.2774
  -4663854.10946  -3621048.62544  23363633.1954                   23363633.2384
 -10607275.32848  -8220333.09046  21088710.8204                   21088707.9184
  16373682.43846  12781900.06343  24492082.4534                   24492086.4964
  10325790.35947   8081053.73445  22539076.5634                   22539075.7274
  -6197491.41447  -4818913.57446  21109416.0164                   21109414.0984
 -11883665.32848  -9245152.40646  21254961.5084                   21254959.3444
  -6196833.99648  -4813282.11746  20782519.2584                   20782514.5394
  -5493746.18447  -4266831.16845  23370625.0164                   23370626.1454
 11  8 25  0 25 30.0000000  0  9G17G30G12G09G04G10G05G02G25
  26249353.73846  20469105.37944  23791924.4224                   23791923.9064
  -4706161.05547  -3654015.01244  23355583.2114                   23355581.8954
 -10599378.83648  -8214179.96546  21090213.4454                   21090210.1054
  16500365.34446  12880613.76243  24516189.8444                   24516194.5664
  10451918.34847   8179335.25444  22563077.6174                   22563076.7304
  -6119283.16448  -4757972.05546  21124298.2974                   21124296.5164
 -11908819.32848  -9264752.86746  21250174.6414                   21250173.1214
  -6138912.97348  -4768148.84046  20793541.0314                   20793536.8244
  -5536494.32047  -4300141.37145  23362490.3914                   23362490.4844
 11  8 25  0 26  0.0000000  0  9G17G30G12G09G04G10G05G02G25
  26354938.49246  20551379.18044  23812016.3594                   23812016.4494
  -4748083.01647  -3686681.45744  23347605.4064                   23347604.1604
 -10590932.45748  -8207598.36346  21091820.8754                   21091817.7664
  16627075.43846  12979348.64143  24540302.3054                   24540306.0744
  10578114.64847   8277670.01645  22587092.2814                   22587090.8524
  -6040448.24648  -4696542.23846  21139300.1884                   21139298.4384
 -11933508.02048  -9283990.73446  21245476.2584                   21245474.2974
  -6080744.44548  -4722822.72346  20804610.3594                   20804605.9264
  -5578915.89547  -4333197.05945  23354417.6884                   23354418.6804
 11  8 25  0 26 30.0000000  0  9G17G30G12G09G04G10G05G02G25
  26460731.67846  20633815.37544  23832148.7734                   23832148.5204
  -4789616.04346  -3719044.71944  23339702.3134                   23339701.1214
 -10581933.48047  -8200586.14846  21093533.3984                   21093530.5084
  16753810.47746  13078102.98443  24564419.2194                   24564423.1484
  10704378.99247   8376057.79744  22611119.1414                   22611118.2774
  -5960986.90648  -4634624.29746  21154421.3204                   21154419.4884
 -11957727.53548  -9302863.02746  21240867.8284                   21240865.6804
  -6022328.26248  -4677303.60946  20815726.6174                   20815721.6254
  -5621006.85947  -4365995.12945  23346408.0784                   23346408.7114
 11  8 25  0 27  0.0000000  0  9G17G30G12G09G04G10G05G02G25
  26566730.35247  20716411.69844  23852318.8364                   23852319.2664
  -4830760.44447  -3751105.23044  23331872.3594                   23331870.6214
 -10572383.91848  -8193144.91046  21095350.2734                   21095347.5084
  16880564.31646  13176871.96543  24588540.0864                   24588544.5554
  10830706.68047   8474494.93844  22635158.8364                   22635157.9224
  -5880903.31648  -4572221.47746  21169660.8444                   21169658.6604
 -11981478.77748  -9321370.41846  21236348.3054                   21236345.8594
  -5963668.93048  -4631595.03946  20826889.0784                   20826884.4104
  -5662767.80147  -4398536.06244  23338460.1254                   23338460.8874
 11  8 25  0 27 30.0000000  0  9G17G30G12G09G04G10G05G02G25
  26672931.95347  20799166.15644  23872528.6954                   23872528.8634
  -4871516.48846  -3782863.14144  23324116.8364                   23324115.5944
 -10562284.69148  -8185275.36346  21097272.2664                   21097268.9304
  17007330.89547  13275650.88343  24612663.2814                   24612666.9414
  10957093.54747   8572978.18445  22659209.7894                   22659208.6094
  -5800201.85248  -4509337.18746  21185017.5554                   21185015.1604
 -12004762.43748  -9339513.46946  21231917.2734                   21231915.4384
  -5904770.39848  -4585700.07046  20838096.7344                   20838092.3674
  -5704198.87947  -4430819.97745  23330576.7034                   23330576.9844
 11  8 25  0 28  0.0000000  0  9G17G30G12G09G04G10G05G02G25
  26779338.61346  20882080.37944  23892777.1484                   23892778.1684
  -4911879.82247  -3814314.98644  23316436.8134                   23316435.4494
 -10551632.83248  -8176975.20746  21099299.0164                   21099295.8674
  17134108.95746  13374438.73443  24636788.2034                   24636793.2194
  11083539.65747   8671507.60445  22683271.7034                   22683270.3794
  -5718882.30948  -4445971.29346  21200492.2194                   21200490.4064
 -12027574.79748  -9357289.27346  21227575.7584                   21227574.1644
  -5845632.21948  -4539618.35946  20849350.8284                   20849346.2234
  -5745295.83247  -4462843.52744  23322755.9144                   23322756.8444
 11  8 25  0 28 30.0000000  0  9G17G30G12G09G04G10G05G02G25
  26885953.69947  20965157.03544  23913065.8524                   23913065.6564
  -4951844.24647  -3845456.03144  23308831.6954                   23308829.8834
 -10540423.22748  -8168240.43446  21101432.7894                   21101429.6644
  17260898.68846  13473235.68443  24660915.7504                   24660920.0474
  11210046.79747   8770084.59045  22707345.4224                   22707344.0944
  -5636942.85948  -4382122.34846  21216084.5474                   21216082.4224
 -12049909.75448  -9374693.07446  21223325.7814                   21223323.8054
  -5786252.38348  -4493348.35546  20860650.1564                   20860645.7504
  -5786052.71147  -4494602.07044  23315000.2974                   23315000.0234
 11  8 25  0 29  0.0000000  0  9G17G30G12G09G04G10G05G02G25
  26992778.96946  21048397.46144  23933393.2734                   23933393.6094
  -4991405.93747  -3876283.27744  23301302.6954                   23301300.7774
 -10528653.07448  -8159068.87946  21103672.3204                   21103669.0664
  17387698.29346  13572040.33243  24685044.6954                   24685049.6254
  11336614.95347   8868709.11745  22731430.5084                   22731429.0664
  -5554383.73048  -4317790.55546  21231795.4614                   21231793.1054
 -12071764.10248  -9391722.36746  21219167.0864                   21219165.0824
  -5726630.78948  -4446889.96546  20871996.0554                   20871991.0124
  -5826465.55947  -4526092.58645  23307310.2114                   23307311.4494
 11  8 25  0 29 30.0000000  0  9G17G30G12G09G04G10G05G02G25
  25524394.78146  19904201.91844  23653969.4924                   23653969.6684
  -6605986.85947  -5134398.19944  22994058.0314                   22994057.2704
 -12091744.07848  -9377061.85946  20806225.7814                   20806222.7034
  15939085.24246  12443250.66443  24409383.3524                   24409387.2854
   9887823.53147   7739780.70745  22455734.4304                   22455733.6254
  -7046626.56248  -5480577.17246  20947830.6564                   20947828.6524
 -13668559.60548 -10635978.54346  20915306.9144                   20915304.8914
  -7242189.89848  -5627845.10946  20583594.7194                   20583590.0944
  -7441956.53547  -5784916.64545  22999891.7274                   22999893.3674
 11  8 25  0 30  0.0000000  0  9G17G30G12G09G04G10G05G02G25
  25631634.60546  19987765.34444  23674376.4614                   23674376.9104
  -6644741.74247  -5164596.69944  22986682.9144                   22986682.3714
 -12078855.45748  -9367018.75846  20808678.6254                   20808675.2194
  16065888.24246  12542057.94543  24433513.6174                   24433517.5394
  10014502.84847   7838491.83245  22479840.7814                   22479839.6174
  -6962838.52348  -5415287.78546  20963775.1644                   20963772.9884
 -13689452.58248 -10652258.73046  20911331.1254                   20911328.9804
  -7182095.16448  -5581018.03946  20595030.1884                   20595025.3874
  -7481680.27747  -5815870.21944  22992333.0314                   22992332.6914
 11  8 25  0 30 30.0000000  0  9G17G30G12G09G04G10G05G02G25
  25739082.22346  20071490.73044  23694823.3134                   23694823.1884
  -6683089.20347  -5194477.78144  22979385.9924                   22979384.6374
 -12065405.26248  -9356538.08646  20811238.1254                   20811235.1214
  16192688.33246  12640862.95743  24457643.2974                   24457647.5164
  10141235.30547   7937244.37944  22503957.0164                   22503956.0744
  -6878438.15248  -5349521.25046  20979836.1564                   20979834.0124
 -13709861.46548 -10668161.69146  20907447.1954                   20907445.2584
  -7121765.73848  -5534008.08646  20606510.5394                   20606506.1214
  -7521055.54347  -5846552.23445  22984839.8674                   22984840.7344
 11  8 25  0 31  0.0000000  0  9G17G30G12G09G04G10G05G02G25
  25846740.21146  20155380.03544  23715309.8914                   23715309.7464
  -6721024.08647  -5224037.39844  22972167.5394                   22972166.3954
 -12051389.47748  -9345616.68746  20813904.9304                   20813902.1454
  16319485.04346  12739665.31343  24481771.8674                   24481776.7154
  10268022.34847   8036039.44944  22528083.3444                   22528082.7544
  -6793424.60548  -5283276.92646  20996013.5474                   20996011.3524
 -13729782.14848 -10683684.24246  20903656.2424                   20903654.6334
  -7061200.37148  -5486814.28946  20618035.6724                   20618031.0164
  -7560077.21147  -5876958.68045  22977415.4304                   22977416.0394
 11  8 25  0 31 30.0000000  0  9G17G30G12G09G04G10G05G02G25
  25954609.52346  20239433.96944  23735836.9144                   23735836.5394
  -6758543.29747  -5253273.04344  22965027.3364                   22965026.3404
 -12036806.94948  -9334253.66446  20816680.0944                   20816676.6134
  16446275.49246  12838462.78143  24505899.7584                   24505904.3284
  10394862.98447   8134876.28944  22552220.9304                   22552219.5784
  -6707799.11348  -5216555.75446  21012307.7814                   21012305.4494
 -13749211.52748 -10698823.95746  20899959.1174                   20899957.1764
  -7000399.64848  -5439437.09446  20629605.7814                   20629601.1564
  -7598742.10947  -5907087.18745  22970056.7974                   22970057.2274
 11  8 25  0 32  0.0000000  0  9G17G30G12G09G04G10G05G02G25
  26062684.44146  20323648.14843  23756402.6094                   23756401.9104
  -6795650.02047  -5282187.34844  22957966.4064                   22957964.6254
 -12021661.70748  -9322452.18446  20819562.2584                   20819559.2234
  16573050.98846  12937248.57843  24530024.3984                   24530028.2894
  10521749.67647   8233749.01644  22576366.8914                   22576365.6294
  -6621569.09048  -5149363.53146  21028716.6414                   21028714.4614
 -13768153.73848 -10713584.05946  20896354.7894                   20896352.2344
  -6939370.94948  -5391882.26646  20641219.3524                   20641214.9144
  -7637053.76647  -5936940.37945  22962766.0004                   22962767.2664
 11  8 25  0 32 30.0000000  0  9G17G30G12G09G04G10G05G02G25
  26170969.88346  20408026.37943  23777008.7584                   23777008.6484
  -6832336.77047  -5310774.37544  22950984.9224                   22950983.6094
 -12005947.57848  -9310207.40646  20822552.3204                   20822549.3054
  16699813.49646  13036024.28143  24554146.9384                   24554150.3524
  10648686.20747   8332660.56344  22600522.2584                   22600520.4304
  -6534731.14548  -5081697.60546  21045241.4534                   21045239.2664
 -13786601.26248 -10727958.69546  20892844.0394                   20892841.9574
  -6878110.15648  -5344146.57446  20652876.8594                   20652872.1414
  -7675004.40247  -5966512.28145  22955544.9454                   22955545.3554
 11  8 25  0 33  0.0000000  0  9G17G30G12G09G04G10G05G02G25
  26279461.23846  20492565.06343  23797653.6954                   23797654.0204
  -6868605.78947  -5339035.87945  22944083.6724                   22944082.4804
 -11989667.88748  -9297521.92246  20825650.3674                   20825647.1484
  16826554.87946  13134783.49643  24578264.6564                   24578269.1644
  10775666.35947   8431606.08644  22624685.2194                   22624684.2114
  -6447291.71148  -5013562.99246  21061880.7344                   21061878.6024
 -13804557.16048 -10741950.23846  20889426.9614                   20889425.3054
  -6816623.72748  -5296235.07046  20664577.0004                   20664572.4454
  -7712596.56647  -5995804.88345  22948391.4384                   22948390.9694
 11  8 25  0 33 30.0000000  0  9G17G30G12G09G04G10G05G02G25
  26388161.78946  20577266.78943  23818338.9304                   23818338.5204
  -6904451.76247  -5366967.78544  22937262.1174                   22937260.1174
 -11972818.80148  -9284392.76246  20828856.6414                   20828853.4574
  16953274.89146  13233526.02043  24602378.8524                   24602384.2384
  10902691.32847   8530586.54744  22648857.3754                   22648856.1954
  -6359249.69948  -4944958.83246  21078634.2344                   21078632.0474
 -13822016.48448 -10755554.86746  20886104.6094                   20886102.6174
  -6754909.97748  -5248146.43746  20676321.0164                   20676315.9694
  -7749824.74647  -6024813.81645  22941306.8754                   22941308.4144
 11  8 25  0 34  0.0000000  0  9G17G30G12G09G04G10G05G02G25
  26497071.05947  20662131.11744  23839063.9924                   23839063.4774
  -6939872.62547  -5394568.44544  22930521.6174                   22930520.3524
 -11955399.17648  -9270819.03146  20832171.4304                   20832168.4264
  17079969.92646  13332249.14543  24626488.7664                   24626493.7814
  11029759.45747   8629600.61744  22673037.8364                   22673036.2664
  -6270607.11748  -4875886.68046  21095502.4144                   21095500.2274
 -13838977.90648 -10768771.48846  20882877.2114                   20882875.3364
  -6692970.61348  -5199881.98446  20688107.6094                   20688102.7384
  -7786686.94947  -6053537.52345  22934291.8754                   22934293.3284
 11  8 25  0 34 30.0000000  0  9G17G30G12G09G04G10G05G02G25
  26606190.40247  20747159.15244  23859828.9224                   23859828.3954
  -6974864.70747  -5421834.96544  22923862.7504                   22923861.4734
 -11937407.60248  -9256799.63346  20835595.1884                   20835592.3054
  17206637.91846  13430951.14543  24650592.9844                   24650598.0594
  11156870.32047   8728647.99244  22697226.2734                   22697224.9454
  -6181365.03948  -4806347.40246  21112484.7894                   21112482.5004
 -13855437.96548 -10781597.44146  20879744.6884                   20879742.8244
  -6630805.91448  -5151441.94946  20699937.3134                   20699932.5944
  -7823179.59848  -6081973.33645  22927348.4614                   22927347.4494
 11  8 25  0 35  0.0000000  0  9G17G30G12G09G04G10G05G02G25
  26715523.42647  20832353.72744  23880634.5084                   23880634.3364
  -7009422.03147  -5448762.70744  22917286.8834                   22917284.8674
 -11918838.85248  -9242330.47746  20839128.6724                   20839125.7624
  17333279.34446  13529632.42243  24674692.4534                   24674697.5164
  11284025.99647   8827730.30544  22721423.3054                   22721422.3554
  -6091521.64148  -4736339.56246  21129581.1954                   21129579.1684
 -13871391.36748 -10794028.61746  20876708.7814                   20876706.8164
  -6568413.60548  -5102824.56246  20711810.1174                   20711805.6484
  -7859296.62547  -6110116.44545  22920474.6804                   22920476.2814
 11  8 25  0 35 30.0000000  0  9G17G30G12G09G04G10G05G02G25
  26825070.34447  20917714.93844  23901480.1884                   23901481.6174
  -7043541.70747  -5475349.47744  22910794.0004                   22910792.4774
 -11899691.53148  -9227410.48846  20842772.2194                   20842769.2114
  17459891.39146  13628290.80143  24698785.9694                   24698791.3524
  11411225.46547   8926846.72744  22745628.0864                   22745627.5084
  -6001078.27047  -4665864.21145  21146792.3674                   21146790.0784
 -13886836.05548 -10806063.38746  20873769.7194                   20873767.8954
  -6505794.70348  -5054030.60546  20723725.9144                   20723721.3954
  -7895035.33247  -6137964.68745  22913674.0004                   22913674.9024
 11  8 25  0 36  0.0000000  0  9G17G30G12G09G04G10G05G02G25
  26934825.19047  21003238.16444  23922365.8364                   23922366.0044
  -7077227.57447  -5501598.14844  22904383.0084                   22904382.4064
 -11879970.72348  -9212043.62146  20846525.1024                   20846522.1414
  17586465.02046  13726919.22343  24722872.6724                   24722877.8404
  11538461.00447   9025991.25844  22769840.6254                   22769839.5824
  -5910042.87548  -4594927.53945  21164115.5944                   21164112.8984
 -13901776.16448 -10817704.97746  20870926.8754                   20870924.3284
  -6442956.76648  -5005065.97346  20735683.3834                   20735678.6214
  -7930399.41847  -6165521.09445  22906944.2734                   22906944.4614
 11  8 25  0 36 30.0000000  0  9G17G30G12G09G04G10G05G02G25
  27044787.95747  21088923.38344  23943291.7894                   23943291.0514
  -7110477.53947  -5527507.21544  22898056.3984                   22898054.1414
 -11859675.68048  -9196229.30546  20850387.0314                   20850384.0824
  17712996.61346  13825514.90643  24746950.5314                   24746955.7274
  11665730.84847   9125162.52044  22794059.3914                   22794058.6094
  -5818418.12548  -4523531.62145  21181551.1724                   21181549.2774
 -13916210.32848 -10828952.30946  20868180.0944                   20868177.8954
  -6379901.57848  -4955932.04746  20747682.6094                   20747677.6134
  -7965386.99647  -6192784.05545  22900286.0704                   22900287.2894
 11  8 25  0 37  0.0000000  0  9G17G30G12G09G04G10G05G02G25
  27154963.94547  21174774.75444  23964257.0474                   23964257.2114
  -7143283.46547  -5553070.28944  22891812.7734                   22891812.3754
 -11838799.68748  -9179962.29746  20854359.5394                   20854356.4264
  17839488.84046  13924079.93043  24771021.5164                   24771027.1564
  11793039.33247   9224363.90244  22818285.2194                   22818284.5744
  -5726199.81248  -4451673.19946  21199100.0394                   21199097.7974
 -13930131.10248 -10839799.61746  20865531.0554                   20865528.2774
  -6316624.48048  -4906625.20346  20759723.8984                   20759718.9534
  -7999989.74647  -6219747.17645  22893701.2194                   22893701.7504
 11  8 25  0 37 30.0000000  0  9G17G30G12G09G04G10G05G02G25
  27265348.46146  21260788.61344  23985262.2584                   23985263.0234
  -7175647.63747  -5578289.02344  22885655.3444                   22885653.9144
 -11817346.42248  -9163245.45746  20858442.2974                   20858439.0044
  17965933.66446  14022608.01243  24795083.7584                   24795089.3954
  11920380.48047   9323590.73844  22842517.3054                   22842516.4654
  -5633394.83648  -4379357.62945  21216760.0634                   21216757.9144
 -13943541.09048 -10850248.90646  20862979.1174                   20862976.6484
  -6253131.34448  -4857150.01646  20771806.2664                   20771801.2384
  -8034209.97347  -6246412.22745  22887189.7814                   22887190.2854
 11  8 25  0 38  0.0000000  0  9G17G30G12G09G04G10G05G02G25
  27375945.15246  21346967.81644  24006308.3054                   24006308.3984
  -7207564.46947  -5603159.30144  22879581.4224                   22879579.1954
 -11795312.16448  -9146075.88746  20862635.2664                   20862631.5744
  18092331.02046  14121099.09843  24819136.9454                   24819142.7624
  12047755.78547   9422844.19144  22866756.1644                   22866755.2624
  -5540001.95748  -4306583.93746  21234532.1254                   21234529.9494
 -13956435.53148 -10860296.47746  20860525.2344                   20860523.1414
  -6189421.32048  -4807505.83246  20783929.7584                   20783925.1054
  -8068042.14147  -6272774.87145  22880752.0004                   22880752.9774
 11  8 25  0 38 30.0000000  0  9G17G30G12G09G04G10G05G02G25
  27486755.63746  21433313.57844  24027394.5164                   24027395.0864
  -7239029.60247  -5627677.52744  22873593.5004                   22873592.8324
 -11772693.48048  -9128450.93746  20866939.2974                   20866936.1684
  18218680.16046  14219552.63343  24843180.8754                   24843186.6174
  12175166.22347   9522125.02344  22891002.0314                   22891001.3054
  -5446021.09448  -4233352.08245  21252416.4844                   21252414.0434
 -13968810.78948 -10869939.47346  20858170.0234                   20858168.1884
  -6125492.51248  -4757691.16446  20796095.1414                   20796090.5124
  -8101481.92247  -6298831.75845  22874387.9144                   22874387.7194
 11  8 25  0 39  0.0000000  0  9G17G30G12G09G04G10G05G02G25
  27597774.59046  21519821.78943  24048519.4304                   24048521.3094
  -7270046.03947  -5651846.12544  22867691.7114                   22867690.1644
 -11749495.16448  -9110374.30546  20871353.5944                   20871350.5354
  18344972.62946  14317962.01643  24867213.0164                   24867219.6954
  12302604.77747   9621427.75844  22915252.8284                   22915251.6214
  -5351460.03948  -4159668.12946  21270410.1334                   21270408.3364
 -13980670.33648 -10879180.62946  20855913.4384                   20855911.5944
  -6061352.22748  -4707711.70746  20808300.6174                   20808296.0164
  -8134532.30947  -6324585.27345  22868099.1254                   22868099.9344
 11  8 25  0 39 30.0000000  0  9G17G30G12G09G04G10G05G02G25
  27709010.61345  21606499.11744  24069688.1804                   24069689.6764
  -7300603.25447  -5675656.90644  22861876.0004                   22861874.0744
 -11725707.93448  -9091838.78946  20875880.1094                   20875876.8554
  18471213.63346  14416331.27743  24891235.8524                   24891242.4734
  12430078.45347   9720757.89544  22939509.8284                   22939508.6094
  -5256312.37548  -4085527.09045  21288516.4384                   21288514.2774
 -13992004.28148 -10888012.22746  20853756.7504                   20853754.6414
  -5996993.43748  -4657561.98846  20820547.7504                   20820542.8594
  -8167182.66447  -6350027.02045  22861884.9144                   22861885.9654
 11  8 25  0 40  0.0000000  0  8G17G30G12G04G10G05G02G25
  27820453.73846  21693337.90643  24090895.1334                   24090896.6724
  -7330708.65647  -5699115.60544  22856148.0554                   22856146.1174
 -11701340.67648  -9072851.30146  20880517.3054                   20880514.1414
  12557575.69947   9820106.37544  22963772.1334                   22963771.2624
  -5160589.91847  -4010938.14845  21306731.5704                   21306729.1994
 -14002820.60548 -10896440.47346  20851698.2894                   20851696.0314
  -5932427.11348  -4607250.55146  20832834.1804                   20832829.3984
  -8199440.46547  -6375162.92645  22855747.3284                   22855746.9804
 11  8 25  0 40 30.0000000  0  8G17G30G12G04G10G05G02G25
  27932110.14546  21780342.83244  24112142.8204                   24112143.8984
  -7360354.01246  -5722215.77744  22850505.9304                   22850505.0594
 -11676386.45348  -9053406.43446  20885265.8284                   20885262.6954
  12685101.59447   9919477.17644  22988039.3444                   22988038.2814
  -5064288.77748  -3935898.28546  21325057.5004                   21325055.1214
 -14013111.74648 -10904459.49646  20849739.6724                   20849737.6294
  -5867648.85548  -4556773.97346  20845160.8984                   20845156.2664
  -8231297.37547  -6399986.42245  22849684.8284                   22849685.6024
 11  8 25  0 41  0.0000000  0  8G17G30G12G04G10G05G02G25
  28043978.53546  21867512.95744  24133430.9454                   24133431.4224
  -7389537.55947  -5744956.18744  22844952.8594                   22844950.3134
 -11650845.44948  -9033504.34046  20890126.0314                   20890123.1414
  12812654.00847  10018868.62944  23012311.5704                   23012311.0004
  -4967411.75048  -3860409.67646  21343492.2114                   21343490.2934
 -14022876.60548 -10912068.43046  20847881.5084                   20847879.5784
  -5802660.75448  -4506133.89146  20857527.6254                   20857523.2304
  -8262751.69547  -6424496.23445  22843699.7504                   22843699.5664
 11  8 25  0 41 30.0000000  0  8G17G30G12G04G10G05G02G25
  28156065.66846  21954853.52344  24154760.6174                   24154761.3634
  -7418250.59847  -5767329.91044  22839488.4694                   22839487.3594
 -11624710.26648  -9013139.24646  20895099.1724                   20895096.0434
  12940238.09447  10118284.75044  23036590.2814                   23036589.4654
  -4869954.43048  -3784468.90645  21362037.8284                   21362035.4694
 -14032106.97348 -10919260.86346  20846125.6254                   20846122.9264
  -5737457.63748  -4455326.25446  20869935.8134                   20869931.1844
  -8293794.71547  -6448685.56245  22837791.7974                   22837792.6914
 11  8 25  0 42  0.0000000  0  8G17G30G12G04G10G05G02G25
  28268370.61347  22042363.84443  24176132.1564                   24176132.1374
  -7446491.63347  -5789335.82045  22834114.6644                   22834113.0434
 -11597980.71548  -8992311.00446  20900185.6094                   20900182.6254
  13067851.82847  10217723.98444  23060874.1804                   23060873.1884
  -4771919.82047  -3708078.29745  21380692.7424                   21380690.9774
 -14040802.42248 -10926036.48846  20844470.4454                   20844468.1844
  -5672041.37548  -4404352.53946  20882383.9694                   20882379.1684
  -8324424.72347  -6472553.02745  22831963.4774                   22831964.5514
 11  8 25  0 42 30.0000000  0  8G17G30G12G04G10G05G02G25
  28380888.78947  22130040.33243  24197542.9384                   24197543.4964
  -7474262.96947  -5810975.80544  22828829.6804                   22828828.0664
 -11570660.97748  -8971022.89146  20905384.6414                   20905381.1214
  13195488.79747  10317181.32444  23085162.4384                   23085161.8794
  -4673315.09047  -3631243.43745  21399456.8594                   21399454.9024
 -14048965.94548 -10932397.63346  20842916.8444                   20842914.6684
  -5606417.84448  -4353217.31646  20894871.8594                   20894866.3754
  -8354644.14847  -6496100.59045  22826212.9144                   22826212.7424
 11  8 25  0 43  0.0000000  0  8G17G30G12G04G10G05G02G25
  28493625.02347  22217886.72343  24218995.9454                   24218995.7154
  -7501557.60547  -5832244.23445  22823636.3834                   22823634.7934
 -11542745.30948  -8949270.40246  20910696.9224                   20910693.6254
  13323152.93447  10416659.85544  23109456.4844                   23109455.6374
  -4574137.35248  -3553962.07446  21418330.1644                   21418327.5554
 -14056591.03548 -10938339.22346  20841466.1724                   20841463.6604
  -5540583.88748  -4301918.11746  20907399.3754                   20907394.5044
  -8384445.97747  -6519322.75445  22820541.8284                   22820542.3834
 11  8 25  0 43 30.0000000  0  8G17G30G12G04G10G05G02G25
  28606573.09247  22305898.19243  24240489.9694                   24240488.2854
  -7528379.20747  -5853144.12944  22818531.9454                   22818529.7304
 -11514239.10348  -8927057.75746  20916121.3594                   20916118.1644
  13450836.96147  10516153.87544  23133753.8984                   23133753.4414
  -4474394.50848  -3476240.37545  21437310.4224                   21437307.8164
 -14063681.85248 -10943864.49246  20840116.5394                   20840114.4804
  -5474546.52348  -4250460.42646  20919965.6414                   20919960.9884
  -8413833.62147  -6542222.17245  22814949.0394                   22814949.5124
 11  8 25  0 44  0.0000000  0  8G17G30G12G04G10G05G02G25
  28719733.10947  22394074.82843  24262023.0864                   24262023.0394
  -7554725.38747  -5873673.55545  22813518.8524                   22813517.1764
 -11485141.57448  -8904384.33646  20921658.4924                   20921654.8524
  13578539.72747  10615662.49444  23158054.9064                   23158054.0164
  -4374088.83248  -3398080.11745  21456397.8984                   21456395.2934
 -14070237.03548 -10948972.37946  20838869.0554                   20838866.9654
  -5408307.01648  -4198845.22346  20932570.9384                   20932566.4534
  -8442804.87147  -6564797.15245  22809435.9614                   22809436.1684
 11  8 25  0 44 30.0000000  0  8G17G30G12G04G10G05G02G25
  28833106.64147  22482417.86343  24283597.3834                   24283597.4534
  -7580592.34447  -5893829.55144  22808595.8284                   22808594.3404
 -11455450.47748  -8881248.40246  20927308.3524                   20927304.8134
  13706261.23847  10715185.72744  23182359.5084                   23182359.1564
  -4273221.00848  -3319481.81645  21475592.3134                   21475589.9964
 -14076253.35248 -10953660.37146  20837724.4844                   20837722.0354
  -5341865.06248  -4147072.27046  20945214.3364                   20945209.6564
  -8471355.74247  -6587044.52345  22804003.0944                   22804003.7624
 11  8 25  0 45  0.0000000  0  8G17G30G12G04G10G05G02G25
  28946688.93446  22570923.55943  24305211.6174                   24305211.1994
  -7605982.52047  -5913614.05544  22803764.3834                   22803761.7854
 -11425169.71548  -8857652.99246  20933070.7664                   20933067.4534
  13833996.00047  10814719.29344  23206666.4844                   23206666.4144
  -4171798.09448  -3240450.98445  21494892.4774                   21494890.2114
 -14081733.93448 -10957930.93446  20836681.2974                   20836678.8284
  -5275226.46148  -4095146.07846  20957895.2034                   20957890.7704
  -8499488.58648  -6608966.19545  22798649.7274                   22798649.5704
 11  8 25  0 45 30.0000000  0  8G17G30G12G04G10G05G02G25
  29060484.93446  22659595.75043  24326865.6094                   24326865.9494
  -7630888.73447  -5933021.44544  22799024.6724                   22799022.9924
 -11394293.72348  -8833593.77046  20938946.2814                   20938943.1564
  13961747.67247  10914266.04744  23230977.3444                   23230976.8484
  -4069817.27748  -3160985.41845  21514299.0004                   21514296.4574
 -14086672.46548 -10961779.09046  20835741.6094                   20835739.4774
  -5208387.66048  -4043063.88746  20970614.0004                   20970609.5434
  -8527196.25847  -6630556.56245  22793376.8674                   22793377.4774
 11  8 25  0 46  0.0000000  0  8G17G30G12G04G10G05G02G25
  29174494.45746  22748434.28943  24348560.9924                   24348560.8954
  -7655308.92647  -5952050.07844  22794377.2584                   22794376.0164
 -11362822.09448  -8809070.40646  20944934.8444                   20944931.6174
  14089514.61747  11013824.71144  23255290.3444                   23255289.8984
  -3967281.03548  -3081087.05145  21533811.0944                   21533808.8054
 -14091067.52748 -10965203.76646  20834905.0704                   20834903.2304
  -5141350.08648  -3990826.82046  20983370.9224                   20983366.4884
  -8554476.57047  -6651813.91045  22788185.9924                   22788185.5594
 11  8 25  0 46 30.0000000  0  8G17G30G12G04G10G05G02G25
  27713301.09846  21609842.03143  24070505.7194                   24070505.5744
  -9254661.75847  -7198299.02744  22490030.6884                   22490029.1724
 -12906173.23048 -10011681.67246  20651245.1094                   20651241.8054
  12641880.01247   9885797.71144  22979814.5084                   22979814.1564
  -5439608.37148  -4228355.10545  21253636.0944                   21253634.1764
 -15670337.69148 -12195803.85546  20534380.0634                   20534377.8984
  -6649532.87948  -5166034.18746  20696373.2894                   20696368.4494
 -10156748.19147  -7900337.25445  22483283.3594                   22483283.3914
 11  8 25  0 47  0.0000000  0  8G17G30G12G04G10G05G02G25
  27827737.67646  21699013.35243  24092282.2814                   24092282.7664
  -9278102.92647  -7216564.79344  22485569.8674                   22485568.6414
 -12873508.44548  -9986228.58646  20657460.7504                   20657457.8794
  12769674.65647   9985377.91444  23004133.6174                   23004132.9264
  -5335967.67248  -4147596.12145  21273358.2194                   21273356.3524
 -15673641.01248 -12198377.82446  20533751.3754                   20533748.9964
  -6582101.19148  -5113490.02746  20709205.0164                   20709200.6804
 -10183166.55947  -7920922.96545  22478256.4774                   22478256.5274
 11  8 25  0 47 30.0000000  0  8G17G30G12G04G10G05G02G25
  27942382.39546  21788346.83243  24114097.7034                   24114098.9064
  -9301056.34047  -7234450.57444  22481202.0704                   22481199.6954
 -12840250.96148  -9960313.64846  20663789.5554                   20663786.3094
  12897476.23447  10084963.54844  23028453.7274                   23028452.3014
  -5231783.37948  -4066413.57446  21293184.2034                   21293182.2934
 -15676401.25048 -12200528.61346  20533225.9144                   20533223.4844
  -6514479.16448  -5060797.53946  20722073.1024                   20722068.6454
 -10209155.69947  -7941174.20745  22473310.4384                   22473310.9304
 11  8 25  0 48  0.0000000  0  8G17G30G12G04G10G05G02G25
  28057237.77046  21877844.51643  24135954.4064                   24135955.0704
  -9323517.37147  -7251952.60944  22476927.8594                   22476926.8014
 -12806397.84848  -9933934.58246  20670231.5864                   20670228.3594
  13025286.15247  10184555.68444  23052775.1804                   23052773.7814
  -5127055.07847  -3984807.11745  21313113.3834                   21313111.1334
 -15678614.89848 -12202253.48846  20532804.6024                   20532802.1374
  -6446665.59048  -5007955.79346  20734977.6334                   20734972.8984
 -10234710.66047  -7961087.16045  22468447.9844                   22468447.9574
 11  8 25  0 48 30.0000000  0  8G17G30G12G04G10G05G02G25
  28172306.72746  21967508.59844  24157851.0554                   24157852.1724
  -9345480.64847  -7269066.80944  22472748.3834                   22472746.6254
 -12771945.80548  -9907088.83646  20676787.4064                   20676784.0744
  13153106.41047  10284155.87544  23077098.1254                   23077096.6844
  -5021782.21148  -3902776.31345  21333145.7814                   21333143.9694
 -15680277.23448 -12203548.77346  20532488.6724                   20532486.0594
  -6378658.59448  -4954963.33246  20747919.1724                   20747914.2734
 -10259826.19947  -7980657.67245  22463668.3754                   22463668.7624
 11  8 25  0 49  0.0000000  0  8G17G30G12G04G10G05G02G25
  28287588.14346  22057338.23544  24179788.2034                   24179789.6954
  -9366945.36347  -7285792.56244  22468664.1094                   22468661.2544
 -12736895.35948  -9879776.79746  20683457.4064                   20683454.3954
  13280934.64547  10383762.25044  23101422.9064                   23101422.1024
  -4915968.63748  -3820324.19545  21353281.4224                   21353279.7894
 -15681388.06648 -12204414.30946  20532276.7344                   20532274.5514
  -6310460.75048  -4901822.14846  20760896.9774                   20760892.0984
 -10284501.30547  -7999885.02045  22458973.4454                   22458972.7464
 11  8 25  0 49 30.0000000  0  8G17G30G12G04G10G05G02G25
  28403082.06646  22147333.48044  24201767.0084                   24201767.3554
  -9387909.03147  -7302127.86344  22464674.7274                   22464673.2544
 -12701245.94548  -9851998.02746  20690241.5554                   20690238.3134
  13408769.99246  10483374.18444  23125749.1804                   23125747.9264
  -4809616.39848  -3737452.32445  21373519.4774                   21373517.7894
 -15681945.85248 -12204848.90646  20532170.7194                   20532168.2854
  -6242072.89548  -4848532.92246  20773910.4924                   20773905.6024
 -10308733.50047  -8018767.23045  22454361.6024                   22454361.8524
 11  8 25  0 50  0.0000000  0  8G17G30G12G04G10G05G02G25
  28518777.81646  22237485.97744  24223782.6334                   24223783.4734
  -9408380.07847  -7318079.30944  22460779.2504                   22460777.3204
 -12665007.38748  -9823760.18746  20697137.4844                   20697134.0434
  13536600.87547  10582982.62544  23150074.6024                   23150073.1684
  -4702737.87948  -3654170.35245  21393857.9924                   21393855.8014
 -15681959.63748 -12204859.59846  20532168.0234                   20532165.7344
  -6173506.59848  -4795104.64846  20786958.3524                   20786953.5434
 -10332530.94547  -8037310.67645  22449833.2894                   22449832.7424
 11  8 25  0 50 30.0000000  0  8G17G30G12G04G10G05G02G25
  28634685.94947  22327803.96144  24245838.9224                   24245840.2464
  -9428345.39547  -7333636.68445  22456979.4454                   22456978.6724
 -12628168.85948  -9795054.85246  20704147.6724                   20704144.0394
  13664436.96947  10682595.13744  23174401.3674                   23174399.6644
  -4595325.20747  -3570472.16845  21414298.2504                   21414296.3134
 -15681417.39548 -12204437.03147  20532271.4384                   20532269.2544
  -6104752.39848  -4741529.95346  20800041.7974                   20800037.0784
 -10355880.63747  -8055505.19145  22445390.0004                   22445390.2504
 11  8 25  0 51  0.0000000  0  8G17G30G12G04G10G05G02G25
  28750804.20346  22418285.70344  24267935.8364                   24267936.7974
  -9447805.63347  -7348800.47744  22453276.9454                   22453274.4964
 -12590732.25848  -9765883.46946  20711271.1484                   20711268.4574
  13792274.68847  10782208.93444  23198727.6414                   23198726.4844
  -4487383.27748  -3486361.56645  21434838.7974                   21434836.8244
 -15680320.32048 -12203582.11347  20532480.1884                   20532477.7974
  -6035814.02748  -4687811.74646  20813160.3594                   20813155.5824
 -10378782.90247  -8073351.07445  22441032.0704                   22441031.8014
 11  8 25  0 51 30.0000000  0  8G17G30G12G04G10G05G02G25
  28867129.06647  22508928.44544  24290071.7814                   24290072.7304
  -9466761.77347  -7363571.52045  22449669.5554                   22449667.1214
 -12552700.49648  -9736248.33246  20718508.4064                   20718505.6134
  13920109.79747  10881820.69144  23223053.7194                   23223053.3594
  -4378917.20748  -3401842.55545  21455478.9924                   21455477.0824
 -15678670.39148 -12202296.42246  20532794.0474                   20532791.5124
  -5966695.80948  -4633953.40246  20826312.7734                   20826308.2974
 -10401238.77747  -8090849.13345  22436758.2814                   22436757.9304
 11  8 25  0 52  0.0000000  0  9G17G30G12G29G04G10G05G02G25
  28983662.05547  22599733.35243  24312247.4454                   24312248.1994
  -9485210.21147  -7377946.88345  22446159.1414                   22446156.9734
 -12514071.30548  -9706147.66046  20725859.4844                   20725856.1374
  -4773554.90657  -3715754.94153  24599065.5084                   24599065.0314
  14047942.80547  10981430.79344  23247379.6484                   23247378.6564
  -4269928.33247  -3316916.16045  21476218.8444                   21476217.0434
 -15676464.57048 -12200577.55546  20533213.9534                   20533211.0984
  -5897397.29348  -4579954.55946  20839500.1804                   20839495.6054
 -10423244.42247  -8107996.35245  22432570.3674                   22432570.8364
 11  8 25  0 52 30.0000000  0  9G17G30G12G29G04G10G05G02G25
  29100405.78547  22690702.46143  24334463.2734                   24334462.7424
  -9503145.89847  -7391922.75444  22442745.5234                   22442743.5594
 -12474841.85548  -9675579.26246  20733324.6804                   20733321.5824
  -4806807.70747  -3741666.13744  24592737.3834                   24592736.9494
  14175775.52746  11081040.69944  23271705.1724                   23271704.7274
  -4160416.06348  -3231581.92245  21497058.6254                   21497056.3404
 -15673699.08648 -12198422.58646  20533740.3444                   20533737.8134
  -5827916.91448  -4525814.01646  20852721.5234                   20852716.7624
 -10444794.83247  -8124788.84045  22428469.6024                   22428469.7974
 11  8 25  0 53  0.0000000  0  9G17G30G12G29G04G10G05G02G25
  29217349.96947  22781827.80143  24356716.0394                   24356716.4384
  -9520577.36347  -7405505.68745  22439428.5554                   22439427.1214
 -12435022.18748  -9644550.95746  20740901.9384                   20740899.1524
  -4840132.66447  -3767633.59443  24586396.4774                   24586395.5394
  14303596.57846  11180641.50044  23296028.9384                   23296028.4454
  -4050393.35547  -3145849.93845  21517995.1484                   21517993.1174
 -15670382.86748 -12195838.48047  20534371.1644                   20534368.7544
  -5758266.00048  -4471540.57846  20865976.1484                   20865971.3364
 -10465898.16047  -8141232.92245  22424453.9844                   22424454.0824
 11  8 25  0 53 30.0000000  0  9G17G30G12G29G04G10G05G02G25
  29334497.78146  22873111.82043  24379009.0784                   24379008.9734
  -9537498.84047  -7418691.20345  22436208.0554                   22436206.3244
 -12394608.32848  -9613059.63746  20748592.4694                   20748589.5664
  -4873525.60947  -3793654.03143  24580041.6644                   24580040.6254
  14431408.49246  11280235.17244  23320351.2424                   23320350.3634
  -3939859.10548  -3059719.35245  21539029.1724                   21539027.0124
 -15666511.33648 -12192821.66846  20535107.8134                   20535104.8594
  -5688442.13348  -4417132.37546  20879262.8914                   20879258.2934
 -10486548.65247  -8157324.18045  22420524.4844                   22420523.8284
 11  8 25  0 54  0.0000000  0  9G17G30G12G29G04G10G05G02G25
  29451848.52346  22964553.94543  24401340.2114                   24401339.7894
  -9553908.99247  -7431478.32045  22433085.8834                   22433083.4654
 -12353600.75848  -9581105.68746  20756396.0704                   20756392.9304
  -4906986.55946  -3819727.45743  24573674.6484                   24573673.0044
  14559209.57446  11379820.39544  23344671.0084                   23344670.2304
  -3828816.52348  -2973192.66845  21560159.7814                   21560158.3094
 -15662083.88748 -12189371.66046  20535950.4774                   20535947.7974
  -5618447.16448  -4362590.84046  20892582.6094                   20892578.1094
 -10506744.83647  -8173061.40645  22416681.1484                   22416681.6804
 11  8 25  0 54 30.0000000  0  9G17G30G12G29G04G10G05G02G25
  29569403.06346  23056154.89843  24423709.9844                   24423710.4184
  -9569804.47747  -7443864.36345  22430060.5474                   22430059.0634
 -12311998.00048  -9548687.96946  20764312.9304                   20764309.3874
  -4940513.88946  -3845852.60643  24567294.0314                   24567293.2934
  14687000.17246  11479397.45344  23368988.5314                   23368987.9184
  -3717266.76247  -2886270.78145  21581387.1094                   21581385.1174
 -15657098.05148 -12185486.55547  20536898.8134                   20536896.7704
  -5548281.00048  -4307915.91446  20905934.8364                   20905930.0234
 -10526483.23847  -8188441.92645  22412924.7734                   22412925.1884
 11  8 25  0 55  0.0000000  0  9G17G30G12G29G04G10G05G02G25
  29687160.39146  23147913.87942  24446118.4454                   24446118.8204
  -9585184.32447  -7455848.64545  22427134.5164                   22427131.9384
 -12269800.65648  -9515806.93046  20772342.5474                   20772339.9534
  -4974108.00046  -3872029.75843  24560900.9064                   24560900.3284
  14814778.43846  11578964.90244  23393304.0944                   23393303.1294
  -3605213.37948  -2798956.46545  21602710.0314                   21602708.4844
 -15651553.63348 -12181166.20346  20537953.9384                   20537951.2974
  -5477945.57448  -4253109.09846  20919318.9064                   20919314.4734
 -10545762.71547  -8203464.85245  22409256.3054                   22409256.1994
 11  8 25  0 55 30.0000000  0  9G17G30G12G29G04G10G05G02G25
  29805126.59046  23239835.62943  24468566.5084                   24468566.7624
  -9600040.55147  -7467424.86745  22424307.1484                   22424305.4224
 -12227002.32048  -9482457.57846  20780487.0234                   20780483.4534
  -5007762.21146  -3898253.76643  24554496.9844                   24554496.2154
  14942549.44146  11678526.69544  23417617.8284                   23417616.9614
  -3492653.07448  -2711247.14145  21624129.6484                   21624127.4884
 -15645443.13748 -12176404.73046  20539116.6884                   20539114.4184
  -5407436.10248  -4198166.65646  20932736.3754                   20932731.7734
 -10564575.10247  -8218123.80945  22405675.9924                   22405676.1764
 11  8 25  0 56  0.0000000  0  9G17G30G12G29G04G10G05G02G25
  29923293.37146  23331913.60543  24491053.0784                   24491053.4734
  -9614378.94547  -7478597.59845  22421578.5084                   22421577.1024
 -12183611.76648  -9448646.75846  20788744.0164                   20788740.9774
  -5041483.99646  -3924530.43843  24548080.1334                   24548079.1884
  15070304.26646  11778075.84044  23441928.8284                   23441927.9384
  -3379595.85248  -2623150.60945  21645643.5784                   21645641.2814
 -15638773.77748 -12171207.79347  20540385.8524                   20540383.3594
  -5336761.33648  -4143095.41046  20946185.6644                   20946181.0904
 -10582926.12547  -8232423.25045  22402184.1254                   22402184.2664
 11  8 25  0 56 30.0000000  0  9G17G30G12G29G04G10G05G02G25
  30041670.45346  23424155.48043  24513579.4224                   24513580.4224
  -9628187.76647  -7489357.66045  22418950.5784                   22418948.9734
 -12139618.02048  -9414365.93446  20797115.7344                   20797112.5984
  -5075263.39146  -3950851.98843  24541651.8594                   24541651.1604
  15198051.97746  11877619.46544  23466237.8204                   23466238.3984
  -3266034.37548  -2534661.15245  21667253.7664                   21667251.6884
 -15631534.71948 -12165566.94546  20541763.0394                   20541760.9144
  -5265912.59048  -4087888.58646  20959667.5554                   20959663.1134
 -10600803.85547  -8246353.89545  22398781.7034                   22398781.9964
 11  8 25  0 57  0.0000000  0  9G17G30G12G29G04G10G05G02G25
  30160249.86346  23516555.01643  24536144.8134                   24536145.3524
  -9641472.93047  -7499709.68444  22416422.3594                   22416420.4774
 -12095028.73048  -9379621.03546  20805600.7584                   20805597.9144
  -5109106.94546  -3977223.48043  24535210.4774                   24535211.2074
  15325783.59846  11977150.54343  23490544.5234                   23490544.9344
  -3151979.38748  -2445787.13745  21688957.4224                   21688955.6844
 -15623732.71948 -12159487.43446  20543247.8284                   20543245.5084
  -5194899.05548  -4032553.35946  20973180.9534                   20973176.3364
 -10618213.94947  -8259920.16845  22395469.1804                   22395469.1414
 11  8 25  0 57 30.0000000  0  8G30G12G29G04G10G05G02G25
  -9654224.89847  -7509646.22745  22413995.7734                   22413994.7704
 -12049836.63348  -9344406.41046  20814200.3204                   20814197.3984
  -5143006.62546  -4003638.73843  24528759.9064                   24528760.5514
  15453506.09846  12076674.52044  23514849.8054                   23514849.6684
  -3037425.60248  -2356524.45345  21710756.3914                   21710754.8674
 -15615358.82448 -12152962.30146  20544841.2664                   20544839.0744
  -5123713.92648  -3977084.42246  20986727.3204                   20986722.6094
 -10635146.82847  -8273114.58645  22392246.7894                   22392246.5984
 11  8 25  0 58  0.0000000  0  8G30G12G29G04G10G05G02G25
  -9666446.53547  -7519169.51245  22411670.0784                   22411668.8594
 -12004046.08248  -9308725.47746  20822914.0784                   20822911.0164
  -5176966.62146  -4030100.99643  24522298.1954                   24522297.6374
  15581213.59446  12176186.80544  23539152.5234                   23539151.0554
  -2922380.48048  -2266878.90645  21732649.1024                   21732647.3164
 -15606417.00048 -12145994.61346  20546542.9844                   20546540.5744
  -5052363.30948  -3921486.53546  21000304.3914                   21000299.7974
 -10651605.10247  -8285939.16445  22389114.5554                   22389114.7894
 11  8 25  0 58 30.0000000  0  8G30G12G29G04G10G05G02G25
  -9678131.30947  -7528274.48445  22409447.1414                   22409445.2154
 -11957652.68448  -9272574.78146  20831742.2584                   20831739.2034
  -5210981.99246  -4056606.37143  24515825.4844                   24515824.3244
  15708909.91447  12275690.39144  23563451.7504                   23563451.3204
  -2806841.92648  -2176848.87545  21754635.4144                   21754633.1844
 -15596901.71548 -12138580.07046  20548353.5164                   20548351.3834
  -4980843.48848  -3865756.80146  21013914.4064                   21013909.6724
 -10667582.08647  -8298388.72745  22386074.1804                   22386074.1914
 11  8 25  0 59  0.0000000  0  8G30G12G29G04G10G05G02G25
  -9689275.41047  -7536958.13345  22407325.9844                   22407324.4494
 -11910654.19548  -9235952.58646  20840685.9144                   20840682.9184
  -5245050.00846  -4083152.81343  24509341.7274                   24509341.3874
  15836596.07447  12375186.07044  23587749.3444                   23587749.3914
  -2690810.80947  -2086435.02345  21776715.4144                   21776713.1254
 -15586809.66048 -12130716.10546  20550273.9774                   20550271.5164
  -4909153.52348  -3809894.48846  21027556.2814                   21027551.8014
 -10683073.75447  -8310460.12545  22383126.8284                   22383126.7704
 11  8 25  0 59 30.0000000  0  8G30G12G29G04G10G05G02G25
  -9699878.96947  -7545220.62145  22405308.5704                   22405306.1054
 -11863053.18048  -9198860.88346  20849744.1644                   20849740.9104
  -5279172.02346  -4109741.32043  24502848.4844                   24502847.7504
  15964269.30147  12474671.65244  23612045.2344                   23612044.8554
  -2574291.57448  -1995640.82445  21798888.1094                   21798886.0514
 -15576142.28548 -12122403.84447  20552304.1094                   20552301.2114
  -4837296.42248  -3753901.93446  21041230.3594                   21041226.2624
 -10698080.12147  -8322153.36745  22380270.7274                   22380270.7154
 11  8 25  1  0  0.0000000  0  8G30G12G29G04G10G05G02G25
  -9709941.43047  -7553061.44545  22403392.9534                   22403391.7344
 -11814850.31248  -9161300.21546  20858916.9924                   20858913.6954
  -5313348.77746  -4136372.50444  24496345.3054                   24496344.9924
  16091927.45747  12574145.51244  23636337.7734                   23636337.3244
  -2457287.94148  -1904469.16045  21821153.0474                   21821150.9534
 -15564899.93748 -12113643.53147  20554443.3204                   20554440.9344
  -4765274.44548  -3697780.91046  21054935.8364                   21054931.4144
 -10712600.36347  -8333467.82845  22377507.3284                   22377507.5394
 11  8 25  1  0 30.0000000  0  8G30G12G29G04G10G05G02G25
  -9719465.90647  -7560483.07445  22401580.7504                   22401578.9654
 -11766050.81648  -9123274.63346  20868203.0084                   20868200.2734
  -5347584.82047  -4163049.83644  24489830.7894                   24489830.1604
  16219564.71947  12673603.09044  23660626.3914                   23660625.4224
  -2339807.59448  -1812926.03545  21843508.9844                   21843506.9534
 -15553086.46148 -12104438.19147  20556691.2584                   20556688.6914
  -4693093.69148  -3641536.16446  21068671.4694                   21068666.9104
 -10726637.49247  -8344405.83645  22374836.5084                   22374836.4224
 11  8 25  1  1  0.0000000  0  8G30G12G29G04G10G05G02G25
  -9728451.21547  -7567484.59045  22399871.0394                   22399869.4494
 -11716655.43748  -9084784.73246  20877602.7504                   20877599.6914
  -5381879.76247  -4189773.06344  24483303.5084                   24483303.7704
  16347179.75047  12773043.37943  23684910.1414                   23684910.0124
  -2221854.21948  -1721014.31645  21865954.5704                   21865952.6454
 -15540701.60248 -12094787.62946  20559048.1254                   20559045.4414
  -4620755.79748  -3585168.97346  21082437.0314                   21082432.1644
 -10740190.04748  -8354966.24245  22372257.3594                   22372257.1724
 11  8 25  1  1 30.0000000  0  8G30G12G29G04G10G05G02G25
  -9736891.91847  -7574061.73845  22398264.7034                   22398262.7894
 -11666660.77348  -9045827.85246  20887116.1724                   20887113.5514
  -5416229.53147  -4216539.03544  24476767.2584                   24476766.6844
  16474775.32447  12872468.46943  23709190.9144                   23709190.6524
  -2103426.48847  -1628732.98845  21888490.4064                   21888489.0554
 -15527741.13348 -12084688.52346  20561514.5554                   20561511.5594
  -4548258.24248  -3528677.37146  21096232.6564                   21096228.0704
 -10753252.39147  -8365144.68445  22369771.8984                   22369771.8754
 11  8 25  1  2  0.0000000  0  8G30G12G29G04G10G05G02G25
  -9744789.76247  -7580215.86745  22396761.5474                   22396760.0554
 -11616070.44148  -9006406.82446  20896743.7504                   20896740.4804
  -5450636.93447  -4243349.91044  24470219.6024                   24470218.7194
  16602347.00046  12971874.95343  23733466.9774                   23733467.4184
  -1984530.54747  -1536086.82045  21911115.3984                   21911113.6054
 -15514207.33248 -12074142.66847  20564089.7734                   20564087.3204
  -4475605.34048  -3472064.72346  21110058.3054                   21110053.3244
 -10765826.06647  -8374942.34045  22367379.3134                   22367379.1884
 11  8 25  1  2 30.0000000  0  8G30G12G29G04G10G05G02G25
  -9752138.25847  -7585941.93445  22395362.8834                   22395361.3404
 -11564879.71148  -8966517.95346  20906484.8444                   20906482.2274
  -5485096.33247  -4270201.28544  24463662.1804                   24463661.7034
  16729898.84847  13071265.94543  23757739.3984                   23757739.6134
  -1865164.51247  -1443074.35945  21933830.6954                   21933828.8674
 -15500094.85248 -12063145.90247  20566775.3284                   20566772.6374
  -4402793.40248  -3415328.14846  21123913.5394                   21123909.0744
 -10777904.33647  -8384353.97345  22365080.5784                   22365080.6844
 11  8 25  1  3  0.0000000  0  8G30G12G29G04G10G05G02G25
  -9758942.35547  -7591243.82445  22394068.6254                   22394066.5784
 -11513095.44948  -8926166.58246  20916338.8284                   20916335.8554
  -5519614.05547  -4297098.16444  24457093.7664                   24457092.9344
  16857423.47747  13170635.71543  23782006.6884                   23782006.4454
  -1745337.60548  -1349702.75045  21956633.0474                   21956630.7544
 -15485409.59848 -12051702.80547  20569569.9614                   20569567.5634
  -4329830.21148  -3358473.70346  21137798.1644                   21137793.7234
 -10789491.98447  -8393383.29345  22362875.7424                   22362875.7464
 11  8 25  1  3 30.0000000  0  8G30G12G29G04G10G05G02G25
 -11340618.55947  -8823718.76645  22093085.7344                   22093083.9694
 -13036134.15648 -10112949.99246  20626514.1564                   20626511.2194
  -7129608.29346  -5551639.08244  24150722.0004                   24150721.4304
  15409506.27747  12042388.49244  23506477.5784                   23506477.0634
  -3200466.52347  -2483569.44145  21679730.8834                   21679729.1994
 -17045568.49648 -13267411.00847  20272681.1174                   20272678.4024
  -5832132.46148  -4529098.82846  20851919.4614                   20851914.9144
 -12376005.47347  -9629627.55945  22060972.4384                   22060972.0744
 11  8 25  1  4  0.0000000  0  8G30G12G29G04G10G05G02G25
 -11346322.68747  -8828163.53145  22092000.0084                   22091997.9454
 -12983157.56648 -10071669.55146  20636595.5634                   20636592.3204
  -7164234.04346  -5578620.14544  24144132.8984                   24144132.2504
  15536979.99647  12141718.61744  23530735.1724                   23530734.4184
  -3079719.95748  -2389481.21145  21702708.5634                   21702706.2894
 -17029729.53948 -13255068.93446  20275695.3914                   20275692.7464
  -5758863.61748  -4472006.22346  20865862.2424                   20865857.3244
 -12386600.06248  -9637883.07845  22058956.3204                   22058955.7034
 11  8 25  1  4 30.0000000  0  8G30G12G29G04G10G05G02G25
 -11351476.30947  -8832179.30945  22091019.2584                   22091017.3524
 -12929586.81648 -10029926.11346  20646789.4694                   20646786.0554
  -7198914.94546  -5605644.16444  24137533.5234                   24137532.6914
  15664425.01847  12241026.40344  23554986.6884                   23554986.1294
  -2958519.59847  -2295039.39145  21725771.6724                   21725770.0944
 -17013314.53148 -13242277.98047  20278819.2114                   20278816.6844
  -5685445.33648  -4414797.17646  20879832.9304                   20879828.3364
 -12396697.28547  -9645751.03145  22057034.7664                   22057034.3054
 11  8 25  1  5  0.0000000  0  8G30G12G29G04G10G05G02G25
 -11356073.93747  -8835761.86345  22090144.4144                   22090142.5634
 -12875418.79348  -9987717.27346  20657097.5634                   20657094.6954
  -7233646.11746  -5632707.35943  24130924.2344                   24130923.2664
  15791844.79347  12340314.52743  23579233.7034                   23579233.3094
  -2836864.23047  -2200243.02045  21748922.1954                   21748920.3954
 -16996319.05548 -13229034.71947  20282053.0474                   20282050.7154
  -5611874.93048  -4357469.60246  20893832.9774                   20893828.0594
 -12406291.33647  -9653226.90645  22055209.1024                   22055208.8674
 11  8 25  1  5 30.0000000  0  8G30G12G29G04G10G05G02G25
 -11360113.43747  -8838909.50845  22089375.9534                   22089374.1724
 -12820652.94948  -9945042.61346  20667519.2114                   20667516.0434
  -7268426.49246  -5659808.89543  24124305.3914                   24124305.2544
  15919238.90247  12439582.64544  23603476.5004                   23603476.0044
  -2714756.40248  -2105094.08245  21772158.5784                   21772156.6844
 -16978741.82848 -13215338.15247  20285398.0554                   20285395.2854
  -5538152.62548  -4300023.64546  20907861.6804                   20907857.4924
 -12415379.82448  -9660308.83245  22053479.5944                   22053479.6134
 11  8 25  1  6  0.0000000  0  8G30G12G29G04G10G05G02G25
 -11363591.84447  -8841619.94145  22088714.1884                   22088711.9884
 -12765288.82048  -9901901.73846  20678054.7034                   20678051.4694
  -7303253.95746  -5686947.14843  24117678.2974                   24117677.2814
  16046608.05547  12538831.33643  23627713.5164                   23627713.1024
  -2592197.29348  -2009593.48445  21795480.5784                   21795478.7734
 -16960580.84448 -13201186.71147  20288853.9144                   20288851.3014
  -5464278.01648  -4242459.01646  20921919.8284                   20921915.1414
 -12423959.58648  -9666994.35545  22051846.8054                   22051846.7584
 11  8 25  1  6 30.0000000  0  8G30G12G29G04G10G05G02G25
 -11366511.82047  -8843895.23845  22088158.1884                   22088156.1484
 -12709330.75048  -9858298.06646  20688702.8134                   20688700.0314
  -7338131.96546  -5714124.80143  24111041.0704                   24111040.7114
  16173947.14147  12638056.59443  23651945.7584                   23651944.6844
  -2469193.86748  -1913746.67245  21818887.7734                   21818885.7424
 -16941839.97348 -13186583.39547  20292419.8984                   20292417.4264
  -5390256.45348  -4184779.87546  20936005.8054                   20936001.7074
 -12432033.06647  -9673285.37145  22050310.3134                   22050310.3794
 11  8 25  1  7  0.0000000  0  8G30G12G29G04G10G05G02G25
 -11368873.52047  -8845735.50845  22087708.6414                   22087706.8524
 -12652780.64548  -9814233.05946  20699464.0704                   20699460.8404
  -7373061.30146  -5741342.44943  24104392.9144                   24104392.7274
  16301253.86347  12737256.60243  23676171.1174                   23676171.0314
  -2345750.62948  -1817557.14145  21842378.1644                   21842376.1764
 -16922520.19948 -13171529.00847  20296096.4534                   20296094.1564
  -5316090.64148  -4126988.33646  20950118.8984                   20950114.7894
 -12439600.11348  -9679181.75845  22048870.6644                   22048869.9344
 11  8 25  1  7 30.0000000  0  8G30G12G29G04G10G05G02G25
 -11370679.48047  -8847142.73845  22087365.3444                   22087363.3984
 -12595643.13748  -9769710.33646  20710336.9614                   20710333.8954
  -7408045.42246  -5768602.81243  24097736.2894                   24097735.6134
  16428523.26646  12836427.57443  23700389.5474                   23700389.0394
  -2221874.64048  -1721030.40745  21865951.0394                   21865948.8984
 -16902624.92648 -13156026.17247  20299882.3204                   20299879.5124
  -5241785.61348  -4069088.31946  20964258.7424                   20964254.4064
 -12446663.15148  -9684685.41245  22047526.3674                   22047526.0164
 11  8 25  1  8  0.0000000  0  8G30G12G29G04G10G05G02G25
 -11371916.36347  -8848106.52745  22087129.3674                   22087128.0204
 -12537907.02748  -9724721.16046  20721323.8984                   20721320.7584
  -7443071.80946  -5795896.08243  24091071.5944                   24091070.6564
  16555766.69146  12935578.29343  23724602.8914                   23724603.0594
  -2097556.62948  -1624159.23445  21889607.6254                   21889605.7854
 -16882141.96148 -13140065.38347  20303780.0784                   20303777.6764
  -5167330.36748  -4011071.24246  20978427.2894                   20978422.7274
 -12453208.35548  -9689785.55145  22046280.7734                   22046280.5664
 11  8 25  1  8 30.0000000  0  8G30G12G29G04G10G05G02G25
 -11372589.69947  -8848631.19545  22087001.4694                   22086999.7194
 -12479579.61748  -9679271.25046  20732423.1024                   20732420.3364
  -7478146.89846  -5823227.27744  24084397.2894                   24084395.7074
  16682976.38746  13034702.70343  23748810.9534                   23748809.6914
  -1972806.54348  -1526951.39845  21913346.5784                   21913345.3164
 -16861077.89548 -13123651.79747  20307788.3284                   20307786.1254
  -5092733.00048  -3952943.43446  20992622.8674                   20992618.0044
 -12459241.12948  -9694486.39545  22045132.4694                   22045132.8094
 11  8 25  1  9  0.0000000  0  8G30G12G29G04G10G05G02G25
 -11372695.37947  -8848713.53545  22086981.8594                   22086979.4694
 -12420658.74648  -9633358.89846  20743635.5234                   20743632.7114
  -7513266.85547  -5850593.44144  24077714.5234                   24077713.6174
  16810154.31347  13133802.38343  23773011.7974                   23773011.4454
  -1847624.75047  -1429407.15245  21937168.1334                   21937166.6024
 -16839429.37548 -13106782.80547  20311908.0864                   20311905.7114
  -5017991.66448  -3894703.42646  21006845.2504                   21006840.5984
 -12464757.05948  -9698784.50045  22044083.1254                   22044083.0274
 11  8 25  1  9 30.0000000  0  8G30G12G29G04G10G05G02G25
 -11372236.26247  -8848355.77745  22087068.9454                   22087066.8874
 -12361149.10248  -9586987.76246  20754959.8054                   20754956.9734
  -7548434.90246  -5877997.05544  24071021.6954                   24071020.9344
  16937295.38347  13232873.31644  23797206.4224                   23797206.1804
  -1722018.15647  -1331531.89545  21961070.3594                   21961068.7114
 -16817200.32848 -13089461.44547  20316138.0234                   20316135.4144
  -4943111.30148  -3836355.09846  21021094.5864                   21021090.3244
 -12469758.68048  -9702681.85545  22043131.3364                   22043131.2934
 11  8 25  1 10  0.0000000  0  8G30G12G29G04G10G05G02G25
 -11371208.37547  -8847554.80545  22087264.5394                   22087262.5864
 -12301049.02348  -9540156.55146  20766396.4844                   20766393.4774
  -7583648.13346  -5905435.88344  24064320.5634                   24064320.2734
  17064401.54347  13331917.08244  23821393.9844                   23821393.4494
  -1595986.98847  -1233325.80945  21985053.0004                   21985051.7734
 -16794388.13348 -13071685.67647  20320478.9614                   20320476.1764
  -4868090.65248  -3777897.44946  21035370.5234                   21035366.3014
 -12474241.84848  -9706175.21946  22042278.2034                   22042278.1134
 11  8 25  1 10 30.0000000  0  8G30G12G29G04G10G05G02G25
 -11369615.96948  -8846313.96145  22087567.3754                   22087565.4924
 -12240364.77348  -9492870.12946  20777944.4534                   20777941.5354
  -7618911.44946  -5932913.69944  24057610.4774                   24057609.2234
  17191466.56347  13430928.79344  23845573.4844                   23845573.2034
  -1469539.65247  -1134795.43445  22009115.0084                   22009114.0984
 -16770997.53548 -13053459.21147  20324929.9614                   20324927.5164
  -4792936.30948  -3719335.63746  21049672.1954                   21049667.9184
 -12478210.50848  -9709267.66046  22041523.0084                   22041522.6484
 11  8 25  1 11  0.0000000  0  8G30G12G29G04G10G05G02G25
 -11367454.77347  -8844629.89145  22087978.7894                   22087976.4774
 -12179094.05948  -9445126.73046  20789603.7734                   20789600.6724
  -7654221.13747  -5960427.66444  24050890.8984                   24050889.6644
  17318492.66047  13529910.18044  23869745.7034                   23869746.0474
  -1342676.34447  -1035940.93445  22033256.8524                   22033254.9144
 -16747025.55548 -13034779.72347  20329491.4774                   20329489.3794
  -4717646.27048  -3660668.08646  21063999.3204                   21063994.8134
 -12481660.08248  -9711955.60546  22040866.5164                   22040866.5744
 11  8 25  1 11 30.0000000  0  8G30G12G29G04G10G05G02G25
 -11364724.27047  -8842502.22345  22088498.3674                   22088496.2894
 -12117238.16448  -9396927.34446  20801374.6564                   20801371.4804
  -7689576.80947  -5987977.47744  24044162.8834                   24044162.2814
  17445478.35947  13628860.07444  23893910.5084                   23893910.0864
  -1215400.70347   -936765.12945  22057476.3594                   22057474.9384
 -16722472.82048 -13015647.70347  20334164.1094                   20334161.7734
  -4642222.30947  -3601896.16846  21078351.8674                   21078347.7584
 -12484589.75848  -9714238.44146  22040309.2274                   22040309.1804
 11  8 25  1 12  0.0000000  0  8G30G12G29G04G10G05G02G25
 -11361427.86347  -8839933.56645  22089125.3284                   22089123.7544
 -12054802.44148  -9348276.13346  20813255.4614                   20813252.4534
  -7724982.45746  -6015566.18444  24037425.9614                   24037424.6954
  17572418.39546  13727774.37944  23918065.4844                   23918065.7504
  -1087720.17647   -837273.81245  22081773.5084                   22081771.5044
 -16697343.41448 -12996066.31647  20338946.2194                   20338943.4694
  -4566670.06648  -3543024.30146  21092728.7584                   21092724.7034
 -12487002.60948  -9716118.56246  22039849.9304                   22039850.2034
 11  8 25  1 12 30.0000000  0  8G30G12G29G04G10G05G02G25
 -11357556.44547  -8836916.86745  22089862.0164                   22089860.1724
 -11991779.92248  -9299167.68446  20825248.2344                   20825245.5354
  -7760429.47346  -6043187.09844  24030679.8054                   24030679.2114
  17699319.93846  13826658.68043  23942215.1254                   23942214.4804
   -959629.79347   -737463.12945  22106148.5164                   22106146.4184
 -16671629.36348 -12976029.36347  20343838.8594                   20343836.3164
  -4490982.34048  -3484046.85546  21107131.5554                   21107127.6684
 -12488889.28148  -9717588.66846  22039490.3524                   22039491.1214
 11  8 25  1 13  0.0000000  0  8G30G12G29G04G10G05G02G25
 -11353110.09047  -8833452.16845  22090708.4614                   22090706.4654
 -11928172.55148  -9249603.51646  20837352.8674                   20837349.5864
  -7795918.20746  -6070840.55144  24023927.6564                   24023926.2114
  17826180.86346  13925511.30243  23966355.2034                   23966354.5354
   -831133.80547   -637336.40245  22130600.1954                   22130598.2624
 -16645331.75848 -12955537.69947  20348843.5314                   20348840.5314
  -4415161.38748  -3424965.59846  21121560.2584                   21121555.5664
 -12490249.49248  -9718648.55545  22039231.9064                   22039231.5594
 11  8 25  1 13 30.0000000  0  8G30G12G29G04G10G05G02G25
 -11348085.29347  -8829536.73045  22091663.9454                   22091662.4144
 -11863979.13748  -9199582.68046  20849568.1024                   20849565.3244
  -7831445.94546  -6098524.39144  24017165.1724                   24017165.3404
  17953002.79746  14024333.55943  23990488.7034                   23990488.2584
   -702233.04747   -536894.26245  22155129.3284                   22155127.2504
 -16618448.39548 -12934589.60247  20353959.0164                   20353956.7114
  -4339206.09848  -3365779.65646  21136014.0944                   21136009.4384
 -12491079.56248  -9719295.34046  22039074.0554                   22039073.5634
 11  8 25  1 14  0.0000000  0  8G30G12G29G04G10G05G02G25
 -11342485.69147  -8825173.39145  22092730.2274                   22092728.4804
 -11799204.94948  -9149109.28146  20861894.0944                   20861891.9064
  -7867015.87946  -6126241.12544  24010396.7114                   24010395.8134
  18079780.46446  14123121.30143  24014613.0084                   24014613.5664
   -572935.40647   -436142.86745  22179733.8594                   22179732.1524
 -16590983.30948 -12913188.20347  20359185.5944                   20359183.1994
  -4263122.15648  -3306493.47746  21150492.6024                   21150488.1604
 -12491382.65248  -9719531.48446  22039016.3754                   22039016.4694
 11  8 25  1 14 30.0000000  0  8G30G12G29G04G10G05G02G25
 -11336306.97347  -8820358.77345  22093905.6174                   22093904.0354
 -11733847.60248  -9098181.48846  20874331.4304                   20874328.4844
  -7902624.58246  -6153988.06644  24003621.1094                   24003619.7304
  18206516.37146  14221876.52743  24038730.0554                   24038730.1094
   -443240.23047   -335081.70345  22204413.9774                   22204412.0824
 -16562933.71148 -12891331.34047  20364523.1024                   20364520.3284
  -4186907.32048  -3247105.30546  21164995.5784                   21164990.9384
 -12491154.08248  -9719353.35246  22039059.7974                   22039060.2274
 11  8 25  1 15  0.0000000  0  8G30G12G29G04G10G05G02G25
 -11329549.17647  -8815092.93445  22095191.4064                   22095190.1334
 -11667909.66848  -9046801.27346  20886878.6724                   20886875.9304
  -7938272.52747  -6181765.62544  23996837.6094                   23996835.2854
  18333208.69946  14320597.80943  24062839.7814                   24062838.4614
   -313151.99247   -233714.25445  22229169.0944                   22229166.9614
 -16534300.55948 -12869019.76647  20369971.5554                   20369968.7504
  -4110563.66048  -3187616.74246  21179523.3364                   21179519.2234
 -12490393.85948  -9718760.94146  22039204.5784                   22039204.7154
 11  8 25  1 15 30.0000000  0  8G30G12G29G04G10G05G02G25
 -11322212.75047  -8809376.21545  22096587.7974                   22096586.0864
 -11601392.96948  -8994970.08646  20899536.6254                   20899533.7664
  -7973960.15247  -6209574.09843  23990046.6254                   23990043.7274
  18459855.38346  14419283.55143  24086939.1414                   24086939.0864
   -182674.91847   -132043.81645  22253997.5944                   22253996.2304
 -16505085.03148 -12846254.39547  20375531.3204                   20375528.6174
  -4034093.29348  -3128029.44146  21194074.9144                   21194070.7464
 -12489101.83647  -9717754.14546  22039450.0784                   22039450.5704
 11  8 25  1 16  0.0000000  0  8G30G12G29G04G10G05G02G25
 -11314295.96147  -8803207.27745  22098094.6334                   22098092.1524
 -11534298.43448  -8942688.62546  20912304.6174                   20912301.5124
  -8009686.04346  -6237412.37143  23983247.0784                   23983245.9494
  18586456.23846  14517933.54743  24111031.3054                   24111030.7774
    -51811.58647    -30072.39545  22278900.2734                   22278898.5084
 -16475286.89148 -12823035.03947  20381201.8204                   20381199.1604
  -3957496.99248  -3068344.00046  21208651.0084                   21208646.6724
 -12487276.08648  -9716331.46146  22039797.7504                   22039797.4774
 11  8 25  1 16 30.0000000  0  8G30G12G29G04G10G05G02G25
 -11305794.00447  -8796582.34845  22099712.3444                   22099709.6604
 -11466622.94948  -8889954.48846  20925182.6884                   20925179.6374
  -8045445.22347  -6265276.59444  23976443.7664                   23976442.4104
  18713014.63346  14616550.43043  24135114.8524                   24135113.9224
     79438.78147     72200.62545  22303876.3594                   22303874.3634
 -16444901.98848 -12799358.46547  20386983.6644                   20386981.2854
  -3880771.51648  -3008557.92246  21223251.3444                   21223246.6214
 -12484911.35948  -9714488.78546  22040247.8674                   22040247.6764
 11  8 25  1 17  0.0000000  0  8G30G12G29G04G10G05G02G25
 -11296710.48047  -8789504.26245  22101440.7034                   22101438.4534
 -11398372.17248  -8836772.05546  20938170.3284                   20938167.5514
  -8081241.58647  -6293169.82844  23969631.4064                   23969630.2194
  18839525.19546  14715130.09443  24159189.3754                   24159187.9804
    211068.75047    174769.41045  22328924.8364                   22328922.7424
 -16413935.02048 -12775228.32847  20392876.4454                   20392874.0824
  -3803922.62948  -2948675.66046  21237875.0164                   21237870.4104
 -12482011.02748  -9712228.76646  22040799.6254                   22040799.2464
 11  8 25  1 17 30.0000000  0  8G30G12G29G04G10G05G02G25
 -11287043.01647  -8781971.15645  22103280.2344                   22103277.8284
 -11329545.69148  -8783141.04346  20951267.5234                   20951264.8444
  -8117072.93447  -6321090.32844  23962812.7504                   23962811.0984
  18965988.84446  14813673.16443  24183254.4614                   24183253.2734
    343076.80147    277632.81345  22354045.2894                   22354043.0944
 -16382384.68448 -12750643.62547  20398880.5944                   20398877.6914
  -3726949.73048  -2888696.77046  21252522.3364                   21252517.8594
 -12478572.27348  -9709549.20746  22041454.2114                   22041454.0554
 11  8 25  1 18  0.0000000  0  8G30G12G29G04G10G05G02G25
 -11276791.34047  -8773982.80945  22105231.0314                   22105229.2704
 -11260145.34048  -8729062.85246  20964473.7114                   20964470.9264
  -8152939.19547  -6349038.05944  23955987.1884                   23955985.0704
  19092404.02746  14912178.48443  24207310.0554                   24207309.4414
    475459.05147    380787.81645  22379236.3914                   22379234.4384
 -16350252.01248 -12725605.16047  20404995.0704                   20404992.6564
  -3649854.57448  -2828622.61346  21267193.6414                   21267188.9494
 -12474594.63348  -9706449.73046  22042210.4534                   22042211.0634
 11  8 25  1 18 30.0000000  0  8G30G12G29G04G10G05G02G25
 -11265955.22747  -8765539.06245  22107292.9694                   22107291.3674
 -11190172.91848  -8674538.88346  20977789.4144                   20977786.2424
  -8188840.07047  -6377012.76244  23949155.6174                   23949153.5664
  19218769.62146  15010645.16443  24231356.9614                   24231356.4574
    608211.66447    484231.39845  22404498.7664                   22404496.9104
 -16317537.47348 -12700113.28547  20411220.3364                   20411217.8244
  -3572638.62148  -2768454.32446  21281886.9224                   21281882.7584
 -12470077.45348  -9702929.82846  22043070.3524                   22043070.8634
 11  8 25  1 19  0.0000000  0  8G30G12G29G04G10G05G02G25
 -11254533.60547  -8756639.07845  22109466.3754                   22109464.7274
 -11119629.06248  -8619569.65246  20991213.3444                   20991210.4024
  -8224774.20347  -6405013.36344  23942317.5474                   23942315.6994
  19345085.39546  15109073.00043  24255393.8524                   24255393.5514
    741332.33647    587961.78545  22429831.1254                   22429828.8204
 -16284241.22348 -12674168.13747  20417556.4534                   20417553.9264
  -3495302.34448  -2708192.28146  21296603.4534                   21296599.0664
 -12465019.20348  -9698988.32046  22044033.0704                   22044032.9534
 11  8 25  1 19 30.0000000  0  8G30G12G29G04G10G05G02G25
 -11242525.94547  -8747282.43745  22111751.7034                   22111749.8554
 -11048515.67648  -8564156.63346  21004745.6254                   21004742.9414
  -8260741.27347  -6433039.66044  23935473.6094                   23935472.1374
  19471350.25046  15207461.12543  24279421.1094                   24279421.0984
    874817.33647    691976.06345  22455231.9694                   22455230.4304
 -16250363.65248 -12647770.00847  20424003.2504                   20424000.3324
  -3417847.30948  -2647837.71546  21311342.7664                   21311338.0784
 -12459419.14548  -9694624.63746  22045098.3524                   22045098.3554
 11  8 25  1 20  0.0000000  0  8G30G12G29G04G10G05G02G25
 -11229931.23847  -8737468.36345  22114148.5004                   22114146.7854
 -10976833.68448  -8508300.54746  21018386.4144                   21018383.8094
  -8296740.20747  -6461090.77044  23928623.0234                   23928622.1174
  19597563.78546  15305809.27043  24303438.8134                   24303438.3284
   1008663.73047    796271.94945  22480702.2194                   22480700.3134
 -16215904.81648 -12620918.94547  20430560.2274                   20430557.7234
  -3340274.10948  -2587391.05546  21326104.7194                   21326099.8484
 -12453275.89148  -9689837.68446  22046267.8674                   22046267.7274
 11  8 25  1 20 30.0000000  0  8G30G12G29G04G10G05G02G25
 -12792165.40247  -9954793.66045  21816864.9774                   21816863.1024
 -12479998.93448  -9679598.16446  20732343.4454                   20732340.5904
  -9908188.21147  -7716764.54344  23621974.4694                   23621973.7464
  18148312.34046  14176522.36743  24027655.2274                   24027655.2814
   -432544.51247   -326747.47745  22206449.9064                   22206447.7034
 -17756280.82448 -13821211.91847  20137436.3284                   20137433.8484
  -4837998.25848  -3754448.82846  21041097.2734                   21041092.5824
 -14022005.12548 -10912224.08646  21747748.5784                   21747748.8404
 11  8 25  1 21  0.0000000  0  8G30G12G29G04G10G05G02G25
 -12778391.26247  -9944060.55945  21819486.3984                   21819484.0784
 -12407180.33248  -9622856.41046  20746200.3284                   20746197.6764
  -9944244.91847  -7744860.68044  23615112.7584                   23615112.2854
  18274424.28546  14274791.38743  24051653.6804                   24051653.5554
   -297981.66047   -221893.31245  22232055.7424                   22232054.1374
 -17720656.97348 -13793453.05547  20144215.6644                   20144213.2034
  -4760188.52048  -3693817.85546  21055903.6884                   21055899.1764
 -14014768.94548 -10906585.50046  21749125.0784                   21749124.9574
 11  8 25  1 21 30.0000000  0  8G30G12G29G04G10G05G02G25
 -12764033.51247  -9932872.68445  21822218.2734                   21822216.0984
 -12333802.37148  -9565678.79346  20760163.7504                   20760161.0164
  -9980336.29347  -7772983.80944  23608245.4774                   23608243.4614
  18400477.61346  14373014.71543  24075640.5704                   24075641.0984
   -163072.39547   -116769.20745  22257728.3674                   22257726.7114
 -17684458.47348 -13765246.40247  20151103.9774                   20151100.9654
  -4682269.02748  -3633101.36346  21070731.2504                   21070726.8714
 -14006991.84047 -10900525.41046  21750605.1644                   21750604.9414
 11  8 25  1 22  0.0000000  0  9G30G12G29G04G10G05G02G25G26
 -12749082.57047  -9921222.59445  21825062.9774                   21825061.3984
 -12259857.62148  -9508059.52346  20774234.9224                   20774232.2894
 -10016452.48447  -7801126.27744  23601372.6254                   23601370.6174
  18526480.29746  14471198.56343  24099617.6644                   24099617.9964
    -27811.20347    -11370.89545  22283467.4384                   22283465.5084
 -17647676.62948 -13736585.19947  20158103.0634                   20158100.4774
  -4604231.95348  -3572293.24646  21085581.2894                   21085576.8594
 -13998663.88748 -10894036.09846  21752189.8284                   21752190.1884
  -7964703.00456  -6191176.05953  24701311.8914                   24701316.2074
 11  8 25  1 22 30.0000000  0  9G30G12G29G04G10G05G02G25G26
 -12733542.37147  -9909113.34445  21828020.1024                   21828018.3714
 -12185351.92648  -9450003.16846  20788413.0554                   20788409.9654
 -10052597.58647  -7829291.26644  23594494.1564                   23594492.5314
  18652427.43446  14569339.16443  24123585.6414                   24123585.3554
    107794.60947     94295.94945  22309272.8754                   22309271.1094
 -17610316.43048 -13707473.33647  20165212.8444                   20165209.8984
  -4526082.75048  -3511397.76246  21100452.8134                   21100447.9844
 -13989788.60248 -10887120.28546  21753879.1024                   21753879.4774
  -8009062.37546  -6225741.39143  24692871.2274                   24692874.1804
 11  8 25  1 23  0.0000000  0  9G30G12G29G04G10G05G02G25G26
 -12717415.63747  -9896547.04745  21831089.2814                   21831087.7814
 -12110290.43748  -9391513.70746  20802696.7664                   20802694.2194
 -10088773.72347  -7857480.42644  23587609.9454                   23587609.5354
  18778314.88346  14667433.23843  24147540.8754                   24147540.4184
    243738.61347    200226.32844  22335141.3754                   22335139.8754
 -17572381.64548 -13677913.74247  20172431.6644                   20172428.5704
  -4447825.84847  -3450418.35546  21115344.4224                   21115339.6214
 -13980368.34448 -10879779.81646  21755671.5864                   21755671.4734
  -8053561.24246  -6260415.44543  24684402.9774                   24684406.7624
 11  8 25  1 23 30.0000000  0  9G30G12G29G04G10G05G02G25G26
 -12700700.31247  -9883522.11345  21834270.1804                   21834268.5594
 -12034672.79748  -9332590.89546  20817086.3524                   20817083.7734
 -10124978.32847  -7885691.73844  23580720.2424                   23580720.2424
  18904143.51246  14765481.52343  24171484.6414                   24171484.3594
    380018.91047    306418.76244  22361074.8134                   22361073.1884
 -17533871.18048 -13647905.56247  20179759.6024                   20179756.8554
  -4369459.76648  -3389353.87546  21130257.1954                   21130252.4574
 -13970400.69148 -10872012.82446  21757568.3134                   21757568.1134
  -8098195.55546  -6295195.02743  24675909.2894                   24675912.9024
 11  8 25  1 24  0.0000000  0  9G30G12G29G04G10G05G02G25G26
 -12683393.34847  -9870036.15245  21837563.7894                   21837562.0784
 -11958497.95347  -9273233.89146  20831582.0634                   20831578.9734
 -10161207.99247  -7913922.55944  23573826.9384                   23573825.6844
  19029915.45346  14863485.65643  24195419.0634                   24195417.9454
    516634.88747    412872.75445  22387072.0944                   22387070.2504
 -17494783.12948 -13617447.31647  20187197.6804                   20187194.9414
  -4290983.62147  -3328203.63746  21145190.2424                   21145185.7624
 -13959882.18448 -10863816.59846  21759569.8594                   21759569.6764
  -8142960.15646  -6330076.14843  24667390.1484                   24667393.5004
 11  8 25  1 24 30.0000000  0  9G30G12G29G04G10G05G02G25G26
 -12665493.43447  -9856088.16445  21840969.5704                   21840967.6454
 -11881766.19148  -9213442.92246  20846183.4614                   20846180.7624
 -10197461.35947  -7942171.87144  23566927.8594                   23566925.8714
  19155630.54346  14961445.46543  24219342.0944                   24219341.1644
    653584.30547    519586.57044  22413132.7424                   22413131.0044
 -17455117.42248 -13586538.95347  20194745.8054                   20194743.2424
  -4212397.67648  -3266967.83246  21160144.8674                   21160140.5634
 -13948811.14848 -10855189.81246  21761676.9924                   21761677.0354
  -8187851.82446  -6365056.27743  24658847.1724                   24658850.4384
 11  8 25  1 25  0.0000000  0  9G30G12G29G04G10G05G02G25G26
 -12647002.47747  -9841679.62145  21844488.7114                   21844486.9144
 -11804482.36748  -9153221.77346  20860890.0164                   20860887.4494
 -10233739.63347  -7970440.59444  23560023.6174                   23560022.6094
  19281286.01646  15059358.83243  24243253.3444                   24243253.0664
    790861.58247    626555.85945  22439255.7664                   22439254.1374
 -17414876.48048 -13555182.35247  20202403.3284                   20202401.0394
  -4133704.87548  -3205648.76246  21175119.5394                   21175115.0744
 -13937188.96948 -10846133.55946  21763888.4614                   21763888.2304
  -8232870.07846  -6400135.07843  24650280.0474                   24650283.6804
 11  8 25  1 25 30.0000000  0  9G30G12G29G04G10G05G02G25G26
 -12627915.97347  -9826807.01245  21848120.3594                   21848118.5554
 -11726643.46548  -9092568.10246  20875702.6024                   20875699.6724
 -10270038.02047  -7998724.97344  23553116.3134                   23553115.3404
  19406885.38347  15157228.48443  24267154.0704                   24267153.9184
    928467.55147    733781.26645  22465441.2504                   22465439.6374
 -17374057.04348 -13523374.97747  20210171.0554                   20210168.3634
  -4054902.41448  -3144244.26246  21190115.3364                   21190110.6374
 -13925010.95348 -10836644.21146  21766205.7664                   21766205.9734
  -8278008.45346  -6435307.46543  24641690.6094                   24641692.9534
 11  8 25  1 26  0.0000000  0  9G30G12G29G04G10G05G02G25G26
 -12608230.41447  -9811467.61345  21851866.6804                   21851864.5044
 -11648247.70348  -9031480.51246  20890620.6804                   20890618.0394
 -10306352.14547  -8027021.57044  23546205.4774                   23546205.1374
  19532430.96546  15255056.21943  24291044.4924                   24291044.2584
   1066402.00447    841262.62545  22491689.5314                   22491687.6214
 -17332656.80948 -13491115.02747  20218049.3984                   20218046.4924
  -3975988.06348  -3082752.56246  21205132.1174                   21205127.3324
 -13912273.03548 -10826718.57446  21768629.7034                   21768629.7504
  -8323261.31646  -6470569.08643  24633078.8364                   24633081.7854
 11  8 25  1 26 30.0000000  0  9G30G12G29G04G10G05G02G25G26
 -12587943.77347  -9795659.84845  21855726.9224                   21855725.3874
 -11569295.55548  -8969959.36346  20905644.8834                   20905642.3134
 -10342679.60947  -8055328.59044  23539293.5004                   23539292.0274
  19657923.84046  15352842.91043  24314925.1254                   24314924.4264
   1204663.62547    948998.93444  22517999.8444                   22517997.7234
 -17290674.78148 -13458401.73847  20226038.0784                   20226035.2234
  -3896960.83648  -3021172.90646  21220170.5314                   21220165.9734
 -13898972.77748 -10816354.73446  21771160.5704                   21771160.5394
  -8368624.44946  -6505916.64543  24624446.3984                   24624449.8324
 11  8 25  1 27  0.0000000  0  9G30G12G29G04G10G05G02G25G26
 -12567060.11347  -9779386.85945  21859701.0554                   21859698.9804
 -11489792.87548  -8908009.24246  20920774.0004                   20920770.8054
 -10379023.94947  -8083648.76644  23532377.5314                   23532375.7504
  19783359.21146  15450584.77743  24338794.3674                   24338794.0234
   1343244.76247   1056984.22344  22544370.9924                   22544369.2734
 -17248115.57048 -13425238.69147  20234137.1644                   20234134.3874
  -3817826.13348  -2959509.50846  21235229.5314                   21235224.7544
 -13885113.83648 -10805555.56246  21773797.8914                   21773797.2304
  -8414099.50946  -6541351.39943  24615792.5164                   24615795.5274
 11  8 25  1 27 30.0000000  0  9G30G12G29G04G10G05G02G25G26
 -12545581.00847  -9762649.90645  21863788.5234                   21863786.3954
 -11409743.18448  -8845632.87546  20936006.7344                   20936003.6884
 -10415385.89847  -8111982.70344  23525457.2814                   23525456.0274
  19908734.53146  15548279.84843  24362652.0944                   24362652.3014
   1482140.26647   1165214.46144  22570802.0554                   22570799.7384
 -17204982.12948 -13391628.19947  20242345.0704                   20242342.3914
  -3738586.67647  -2897764.48046  21250308.0554                   21250303.3834
 -13870697.35948 -10794321.96146  21776541.0634                   21776541.2584
  -8459685.96546  -6576873.02343  24607117.5784                   24607120.2624
 11  8 25  1 28  0.0000000  0  9G30G12G29G04G10G05G02G25G26
 -12523503.89547  -9745446.96945  21867989.6024                   21867987.8834
 -11329145.98448  -8782829.86346  20951343.8914                   20951340.9534
 -10451762.57046  -8140328.06644  23518534.3524                   23518534.0944
  20034051.35946  15645929.28943  24386499.5944                   24386499.1024
   1621349.10947   1273688.87144  22597291.9924                   22597290.4064
 -17161272.71948 -13357568.89847  20250662.5394                   20250659.8674
  -3659241.24248  -2835936.88046  21265407.3594                   21265402.7974
 -13855720.42248 -10782651.62946  21779391.3594                   21779391.1054
  -8505379.16846  -6612477.78142  24598421.3204                   24598424.5124
 11  8 25  1 28 30.0000000  0  9G30G12G29G04G10G05G02G25G26
 -12500825.64547  -9727775.60245  21872305.0554                   21872303.3754
 -11247999.98148  -8719599.22546  20966785.4534                   20966782.6484
 -10488149.95746  -8168681.79344  23511611.1724                   23511610.0904
  20159312.06646  15743535.02743  24410335.8834                   24410335.5204
   1760870.99247   1382407.17644  22623842.6724                   22623840.7704
 -17116985.48848 -13323059.34447  20259090.2974                   20259087.4264
  -3579787.79747  -2774025.11346  21280526.6804                   21280521.9494
 -13840179.39548 -10770541.74246  21782348.8364                   21782348.3324
  -8551173.14145  -6648161.07842  24589707.2894                   24589710.6334
 11  8 25  1 29  0.0000000  0  9G30G12G29G04G10G05G02G25G26
 -12477548.19547  -9709637.33645  21876734.9614                   21876732.8204
 -11166309.21947  -8655944.09846  20982330.5864                   20982328.0234
 -10524549.41447  -8197044.90644  23504684.5234                   23504683.0594
  20284513.98046  15841094.93443  24434160.7344                   24434161.2234
   1900700.53547   1491365.25044  22650451.4064                   22650449.6954
 -17072123.36348 -13288101.82447  20267627.2664                   20267623.9494
  -3500229.40248  -2712031.56646  21295665.9224                   21295661.6724
 -13824075.89148 -10757993.57046  21785413.2274                   21785413.0664
  -8597067.84045  -6683922.91842  24580973.1334                   24580976.8834
 11  8 25  1 29 30.0000000  0  9G30G12G29G04G10G05G02G25G26
 -12453671.39847  -9691032.04345  21881277.9144                   21881275.7424
 -11084075.53148  -8591865.90646  20997979.0864                   20997976.2734
 -10560959.82446  -8225416.55544  23497754.8524                   23497753.4414
  20409656.32846  15938608.41043  24457975.2814                   24457975.6134
   2040834.58647   1600560.61344  22677117.9844                   22677116.4534
 -17026686.87548 -13252696.75847  20276273.4694                   20276270.6844
  -3420566.86348  -2649956.87946  21310825.0634                   21310820.7114
 -13807409.21948 -10745006.55946  21788584.9694                   21788584.7424
  -8643060.44546  -6719760.99642  24572221.3834                   24572224.1804
 11  8 25  1 30  0.0000000  0  9G30G12G29G04G10G05G02G25G26
 -12429197.76647  -9671961.68745  21885935.3674                   21885933.8634
 -11001303.41048  -8527368.17646  21013730.2344                   21013727.3324
 -10597382.78547  -8253798.01644  23490823.8364                   23490822.0124
  20534736.05547  16036073.11343  24481777.0164                   24481776.3554
   2181267.07446   1709988.50044  22703841.3984                   22703839.6484
 -16980679.85948 -13216847.11347  20285028.2274                   20285025.6604
  -3340804.00847  -2587804.01646  21326003.4384                   21325999.3634
 -13790181.55148 -10731582.39846  21791863.0784                   21791863.1024
  -8689151.23046  -6755675.68442  24563450.6024                   24563452.6884
 11  8 25  1 30 30.0000000  0  9G30G12G29G04G10G05G02G25G26
 -12404122.79747  -9652422.77045  21890707.0864                   21890704.7344
 -10917990.13348  -8462448.74646  21029584.1724                   21029581.4304
 -10633813.11347  -8282185.23844  23483892.1174                   23483890.6174
  20659757.06647  16133492.07043  24505568.1254                   24505567.2854
   2321999.15646   1819649.82044  22730621.5314                   22730620.0004
 -16934098.84448 -13180550.19947  20293892.3984                   20293890.1294
  -3260937.27047  -2525570.19946  21341201.7814                   21341196.9534
 -13772387.82448 -10717717.16046  21795249.1564                   21795249.3094
  -8735332.81246  -6791661.09443  24554661.5394                   24554664.1844
 11  8 25  1 31  0.0000000  0  9G30G12G29G04G10G05G02G25G26
 -12378446.53147  -9632415.30545  21895593.1724                   21895590.7544
 -10834137.66848  -8397109.17646  21045540.7034                   21045538.0784
 -10670249.95347  -8310577.52044  23476957.7974                   23476956.9344
  20784718.39147  16230864.52343  24529347.2894                   24529346.4414
   2463027.52746   1929542.04744  22757458.0164                   22757456.8014
 -16886944.76648 -13143806.73847  20302865.1414                   20302862.7074
  -3180967.62147  -2463256.20346  21356419.4304                   21356415.2584
 -13754027.80948 -10703410.66046  21798743.0474                   21798742.8484
  -8781602.96546  -6827715.51643  24545856.9144                   24545860.0944
 11  8 25  1 31 30.0000000  0  9G30G12G29G04G10G05G02G25G26
 -12352169.18448  -9611939.48045  21900593.3444                   21900591.1414
 -10749748.73048  -8331351.58246  21061599.3914                   21061596.5664
 -10706692.66046  -8338974.35544  23470022.5004                   23470022.1094
  20909619.14846  16328189.80143  24553114.9064                   24553114.5234
   2604348.51246   2039662.25444  22784350.7194                   22784349.5664
 -16839218.69148 -13106617.57047  20311947.5004                   20311944.3444
  -3100896.24648  -2400862.92246  21371656.6564                   21371652.3594
 -13735101.11748 -10688662.59446  21802344.3444                   21802344.0704
  -8827959.26646  -6863837.10243  24537035.5164                   24537038.4614
 11  8 25  1 32  0.0000000  0  9G30G12G29G04G10G05G02G25G26
 -12325289.23047  -9590994.09045  21905708.6254                   21905706.9264
 -10664823.47348  -8265176.08246  21077760.2584                   21077757.6134
 -10743138.65246  -8367373.75844  23463087.4064                   23463086.2154
  21034460.27046  16425468.59443  24576871.1484                   24576871.2074
   2745960.48446   2150009.21944  22811299.0164                   22811297.7814
 -16790920.14848 -13068982.33247  20321138.5164                   20321135.6334
  -3020722.89148  -2338390.19946  21386912.9454                   21386908.5004
 -13715605.91448 -10673471.53546  21806054.1484                   21806053.9804
  -8874397.55947  -6900022.55143  24528198.3204                   24528200.2774
 11  8 25  1 32 30.0000000  0  9G30G12G29G04G10G05G02G25G26
 -12297807.71148  -9569579.93745  21910938.2424                   21910936.6804
 -10579364.67648  -8198584.82046  21094022.7274                   21094019.9104
 -10779588.04347  -8395775.85244  23456151.5084                   23456149.1914
  21159240.40247  16522699.85943  24600616.1094                   24600616.9494
   2887859.40246   2260579.78944  22838301.4614                   22838299.6884
 -16742051.41048 -13030902.78547  20330437.6884                   20330434.8634
  -2940448.71148  -2275838.89846  21402188.4924                   21402184.4844
 -13695542.70348 -10657837.86746  21809872.5784                   21809871.8594
  -8920916.48846  -6936270.82043  24519345.5004                   24519348.1914
 11  8 25  1 33  0.0000000  0  9G30G12G29G04G10G05G02G25G26
 -12269723.64847  -9547696.28145  21916282.2894                   21916280.2074
 -10493373.36348  -8131578.62546  21110386.2894                   21110383.3554
 -10816038.86147  -8424179.07844  23449215.4384                   23449213.1414
  21283960.09046  16619884.06343  24624349.7974                   24624349.9224
   3030042.69146   2371371.94944  22865358.0164                   22865356.7664
 -16692612.16848 -12992378.67647  20339845.4304                   20339842.7504
  -2860073.76648  -2213209.08246  21417483.5784                   21417479.5984
 -13674910.05948 -10641760.50046  21813798.6884                   21813798.0784
  -8967511.86346  -6972578.69543  24510479.0394                   24510481.2464
 11  8 25  1 33 30.0000000  0  9G30G12G29G04G10G05G02G25G26
 -12241034.99648  -9525341.51245  21921741.6804                   21921739.8244
 -10406849.77748  -8064157.68046  21126850.6804                   21126848.1644
 -10852487.74246  -8452580.75845  23442278.8054                   23442278.3164
  21408620.60246  16717022.11343  24648071.8674                   24648071.3554
   3172509.12946   2482384.73843  22892468.4144                   22892467.0394
 -16642601.39148 -12953409.23047  20349362.5164                   20349359.4574
  -2779597.03548  -2150499.94946  21432797.9064                   21432793.5554
 -13653705.54748 -10625237.49246  21817833.4924                   21817833.9304
  -9014179.34447  -7008942.76643  24501598.6564                   24501600.8874
 11  8 25  1 34  0.0000000  0  9G30G12G29G04G10G05G02G25G26
 -12211742.30947  -9502516.05945  21927315.8364                   21927314.2814
 -10319796.28948  -7996323.81246  21143416.6724                   21143414.0394
 -10888933.95747  -8480980.35245  23435343.5234                   23435342.6484
  21533221.03946  16814113.39143  24671781.6334                   24671781.4024
   3315255.02046   2593615.27044  22919632.1414                   22919630.5004
 -16592020.86348 -12913995.81647  20358987.5164                   20358984.6684
  -2699019.71148  -2087712.43046  21448130.8754                   21448126.9414
 -13631929.14548 -10608268.86746  21821977.4614                   21821977.6054
  -9060916.57847  -7045361.16443  24492703.6644                   24492705.8714
 11  8 25  1 34 30.0000000  0  9G30G12G29G04G10G05G02G25G26
 -12181849.28148  -9479222.79345  21933004.0554                   21933002.6844
 -10232218.00048  -7928081.01646  21160082.7344                   21160079.7624
 -10925380.16047  -8509379.97345  23428408.1484                   23428406.5004
  21657757.41846  16911154.77042  24695480.6484                   24695480.5904
   3458273.50846   2705058.21544  22946847.5634                   22946846.0514
 -16540875.17248 -12874142.01247  20368720.3914                   20368717.7154
  -2618346.45747  -2024850.14546  21463482.5864                   21463478.6414
 -13609584.20748 -10590857.22346  21826229.6564                   21826229.5434
  -9107724.23546  -7081834.43943  24483796.6564                   24483798.9454
 11  8 25  1 35  0.0000000  0  9G30G12G29G04G10G05G02G25G26
 -12151353.54748  -9455459.89545  21938807.5634                   21938805.5664
 -10144114.97348  -7859429.33246  21176847.8524                   21176845.0904
 -10961823.01247  -8537777.02744  23421473.1804                   23421470.4414
  21782231.48846  17008147.60542  24719166.8984                   24719167.7274
   3601564.09847   2816713.18444  22974115.0864                   22974112.9344
 -16489162.86748 -12833846.68447  20378560.7974                   20378557.9734
  -2537575.60947  -1961911.81646  21478852.8054                   21478848.3524
 -13586667.90648 -10573000.35246  21830590.3284                   21830590.3094
  -9154597.52846  -7118358.90144  24474877.7274                   24474879.2854
 11  8 25  1 35 30.0000000  0  9G30G12G29G04G10G05G02G25G26
 -12120254.18448  -9431226.63745  21944725.4144                   21944723.9614
 -10055488.21948  -7790369.54346  21193713.2034                   21193710.0514
 -10998260.61747  -8566169.97244  23414539.1254                   23414537.7894
  21906643.98846  17105092.41842  24742841.9064                   24742843.7464
   3745124.21946   2928578.19543  23001433.4924                   23001431.8094
 -16436884.00048 -12793109.89147  20388508.9534                   20388506.1804
  -2456706.62547  -1898897.02346  21494242.0864                   21494237.5744
 -13563178.80148 -10554697.13746  21835060.2344                   21835060.3484
  -9201532.25446  -7154931.21543  24465945.9614                   24465948.0744
 11  8 25  1 36  0.0000000  0  9G30G12G29G04G10G05G02G25G26
 -12088552.53948  -9406524.07045  21950758.3754                   21950756.4734
  -9966340.62148  -7720903.90646  21210677.2584                   21210674.6804
 -11034692.44947  -8594558.37145  23407606.9304                   23407606.0394
  22030993.19145  17201987.90242  24766505.3054                   24766505.9304
   3888949.86347   3040650.12544  23028802.9694                   23028800.8594
 -16384040.98048 -12751933.48847  20398564.8204                   20398561.8054
  -2375741.74647  -1835807.50046  21509649.0164                   21509644.3524
 -13539117.75848 -10535948.27346  21839638.8834                   21839638.8714
  -9248526.96146  -7191550.27043  24457002.6334                   24457004.1724
 11  8 25  1 36 30.0000000  0  9G30G12G29G04G10G05G02G25G26
 -12056251.82847  -9381354.68745  21956905.1334                   21956902.6094
  -9876677.44548  -7651036.52346  21227739.2894                   21227736.6884
 -11071120.78147  -8622944.05945  23400674.7344                   23400673.0554
  22155275.60246  17298831.33642  24790155.1724                   24790156.1954
   4033035.03147   3152924.24644  23056221.5004                   23056219.0434
 -16330637.69548 -12710320.52347  20408726.9384                   20408724.1254
  -2294684.56647  -1772646.05146  21525073.2894                   21525069.3164
 -13514487.56248 -10516755.90646  21844325.5474                   21844325.0704
  -9295582.05546  -7228216.33643  24448048.8754                   24448050.0354
 11  8 25  1 37  0.0000000  0  9G30G12G29G04G10G05G02G25G26
 -13598768.02047 -10583315.35545  21663373.8984                   21663371.6884
 -11361914.81348  -8808364.36746  20945108.2504                   20945105.5164
 -12682962.53146  -9878924.64844  23093951.2344                   23093949.5864
  20704078.19546  16168028.24243  24514001.1884                   24514001.7114
   2601964.22747   2037804.13344  22783897.5234                   22783896.0474
 -17852090.60948 -13895868.22747  20119204.0474                   20119201.5434
  -3788950.05948  -2937008.75446  21240724.4614                   21240719.5784
 -15064703.89148 -11724716.68046  21549329.6484                   21549329.2974
 -10918112.91446  -8492525.90643  24139289.9534                   24139292.7584
 11  8 25  1 37 30.0000000  0  9G30G12G29G04G10G05G02G25G26
 -13565260.30547 -10557205.43745  21669749.9144                   21669748.4144
 -11271217.82448  -8737691.41446  20962367.8364                   20962364.3094
 -12719370.91846  -9907294.82044  23087022.5864                   23087021.1214
  20828235.20346  16264773.97343  24537628.1564                   24537627.4414
   2746567.60546   2150482.07044  22811414.2974                   22811413.2584
 -17797561.33648 -13853377.85547  20129580.4384                   20129577.7624
  -3707701.22348  -2873697.95746  21256185.5704                   21256181.0474
 -15038925.08248 -11704629.27346  21554234.6954                   21554234.8874
 -10965270.63746  -8529271.94543  24130316.0234                   24130318.5784
 11  8 25  1 38  0.0000000  0  8G30G12G29G10G05G02G25G26
 -13531150.35947 -10530626.24245  21676240.9304                   21676239.1764
 -11180007.77348  -8666618.66846  20979724.3054                   20979721.4924
 -12755768.43447  -9935656.51645  23080097.2114                   23080095.5044
   2891424.41846   2263357.47743  22838979.8674                   22838978.3554
 -17742471.44148 -13810450.64147  20140063.8674                   20140061.1724
  -3626358.62948  -2810314.10946  21271664.4774                   21271660.2504
 -15012572.52348 -11684094.79346  21559249.4144                   21559249.4224
 -11012476.05946  -8566055.19543  24121333.9384                   24121334.6644
 11  8 25  1 38 30.0000000  0  8G30G12G29G10G05G02G25G26
 -13496435.02748 -10503575.31645  21682846.8834                   21682845.1994
 -11088283.22748  -8595145.00846  20997178.7274                   20997176.0944
 -12792150.25046  -9964005.94545  23073173.7504                   23073172.3324
   3036534.71947   2376430.43744  22866593.6414                   22866591.7424
 -17686818.72348 -13767084.86747  20150654.1024                   20150651.3554
  -3544919.64148  -2746855.14146  21287161.7114                   21287157.1374
 -14985642.50848 -11663110.35946  21564374.3674                   21564374.0314
 -11059723.35247  -8602871.06643  24112342.8204                   24112343.9064
 11  8 25  1 39  0.0000000  0  8G30G12G29G10G05G02G25G26
 -13461113.76648 -10476052.23845  21689568.4384                   21689566.6294
 -10996045.86348  -8523271.75446  21014731.0314                   21014728.4184
 -12828514.47347  -9992341.66844  23066254.0474                   23066251.6764
   3181896.44946   2489699.28944  22894255.0164                   22894253.7384
 -17630604.27748 -13723281.37947  20161351.3524                   20161348.4144
  -3463383.97748  -2683320.84846  21302677.2424                   21302673.0514
 -14958134.11348 -11641675.23046  21569608.5944                   21569609.1054
 -11107008.64146  -8639716.57443  24103343.8984                   24103346.7304
 11  8 25  1 39 30.0000000  0  8G30G12G29G10G05G02G25G26
 -13425185.71947 -10448056.33245  21696405.1724                   21696403.5044
 -10903296.35548  -8450999.43746  21032380.3834                   21032377.8134
 -12864858.83247 -10020661.95344  23059337.6094                   23059335.2424
   3327507.70346   2603162.59444  22921963.7734                   22921962.5864
 -17573827.46148 -13679039.68047  20172155.6094                   20172152.6484
  -3381751.52748  -2619711.13746  21318211.3284                   21318207.1134
 -14930045.92248 -11619788.30146  21574953.6884                   21574954.0824
 -11154327.69146  -8676588.38343  24094340.2814                   24094341.2774
 11  8 25  1 40  0.0000000  0  8G30G12G29G10G05G02G25G26
 -13388648.44147 -10419585.70745  21703357.7734                   21703356.1724
 -10810034.03148  -8378327.51646  21050127.9064                   21050125.3554
 -12901178.80946 -10048963.23444  23052425.4454                   23052424.4304
   3473367.99646   2716819.94144  22949720.4614                   22949718.4024
 -17516487.00448 -13634358.77747  20183067.1644                   20183064.5664
  -3300019.68848  -2556023.98046  21333764.4844                   21333760.0704
 -14901375.00048 -11597447.32046  21580410.1094                   21580409.6414
 -11201675.17646  -8713482.31243  24085330.1024                   24085330.3014
 11  8 25  1 40 30.0000000  0  8G30G12G29G10G05G02G25G26
 -13351508.33648 -10390645.34445  21710425.5554                   21710423.7934
 -10716268.02048  -8305263.10946  21067970.9384                   21067968.3634
 -12937479.78147 -10077249.62545  23045517.7974                   23045517.2854
   3619468.04746   2830664.11343  22977522.2734                   22977520.4574
 -17458590.41848 -13589244.53147  20194084.5164                   20194081.6524
  -3218195.34848  -2492264.74646  21349335.3914                   21349331.0164
 -14872127.32848 -11574656.93046  21585975.5704                   21585975.2504
 -11249053.93847  -8750400.64143  24076313.2194                   24076315.0434
 11  8 25  1 41  0.0000000  0  8G30G12G29G10G05G02G25G26
 -13313760.45747 -10361231.38345  21717608.1804                   21717606.6214
 -10621994.56648  -8231803.29346  21085910.5634                   21085907.9884
 -12973754.95347 -10105515.92245  23038615.0784                   23038614.0274
   3765809.98847   2944696.79744  23005370.1484                   23005368.7274
 -17400133.46148 -13543693.63347  20205208.4614                   20205205.5274
  -3136273.75048  -2428429.73846  21364924.4064                   21364920.0784
 -14842297.40248 -11551412.82846  21591651.9224                   21591651.8834
 -11296455.85547  -8787337.07043  24067293.5704                   24067294.9574
 11  8 25  1 41 30.0000000  0  8G30G12G29G10G05G02G25G26
 -13275416.79347 -10331353.17245  21724905.3284                   21724903.1644
 -10527227.62148  -8157958.93846  21103944.1254                   21103941.3554
 -13010014.64147 -10133770.18445  23031715.6094                   23031713.6454
   3912379.15246   3058906.53144  23033261.3984                   23033260.0354
 -17341128.91448 -13497716.04347  20216436.7114                   20216433.9184
  -3054267.04348  -2364528.39846  21380529.6414                   21380525.3404
 -14811896.80948 -11527724.04346  21597437.0864                   21597436.6914
 -11343889.65247  -8824298.31643  24058266.8674                   24058268.0084
 11  8 25  1 42  0.0000000  0  8G30G12G29G10G05G02G25G26
 -13236468.84048 -10301004.10545  21732316.6804                   21732314.9184
 -10431960.06348  -8083724.48446  21122073.0784                   21122069.9344
 -13046248.48047 -10162004.28945  23024820.2814                   23024818.6054
   4059181.48047   3173297.93444  23061197.2814                   23061195.7814
 -17281569.19148 -13451305.84847  20227770.5944                   20227767.7274
  -2972166.83248  -2300554.21146  21396152.8674                   21396148.3324
 -14780916.39848 -11503583.46946  21603332.2974                   21603331.9384
 -11391343.35546  -8861275.09043  24049236.3984                   24049236.3244
 11  8 25  1 42 30.0000000  0  8G30G12G29G10G05G02G25G26
 -13196922.77348 -10270188.95745  21739842.1414                   21739840.7774
 -10336200.23448  -8009106.45346  21140295.6254                   21140292.9064
 -13082460.88747 -10190221.65645  23017929.3984                   23017927.9534
   4206208.12547   3287864.14544  23089175.4694                   23089173.5824
 -17221461.38348 -13404468.57047  20239208.7274                   20239205.7734
  -2889980.10248  -2236512.60946  21411792.6334                   21411788.1054
 -14749361.91848 -11478995.57046  21609336.7504                   21609336.9384
 -11438819.45746  -8898269.30943  24040202.1644                   24040202.4024
 11  8 25  1 43  0.0000000  0  8G30G12G29G10G05G02G25G26
 -13156777.47748 -10238906.90245  21747481.7274                   21747479.9304
 -10239948.77348  -7934105.33246  21158611.5784                   21158609.1214
 -13118648.95347 -10218420.06645  23011043.0634                   23011040.9264
   4353457.73847   3402604.08844  23117196.0084                   23117193.8794
 -17160805.36748 -13357204.12147  20250750.9224                   20250748.4694
  -2807705.41848  -2172402.46146  21427448.9614                   21427444.1954
 -14717231.74248 -11453959.06646  21615451.0634                   21615451.1094
 -11486313.66047  -8935277.60943  24031164.0634                   24031165.6564
 11  8 25  1 43 30.0000000  0  8G30G12G29G10G05G02G25G26
 -13116035.02047 -10207159.52045  21755234.6884                   21755232.6914
 -10143209.65248  -7858724.20746  21177020.3364                   21177017.8954
 -13154813.02347 -10246599.83245  23004160.9224                   23004158.6764
   4500925.65647   3517514.13744  23145257.5864                   23145256.3404
 -17099604.22748 -13309514.91047  20262397.1884                   20262394.6374
  -2725344.71548  -2108225.28146  21443121.9144                   21443116.8364
 -14684527.46148 -11428475.21946  21621674.6254                   21621674.1214
 -11533824.42646  -8972298.85243  24022122.8834                   24022124.5004
 11  8 25  1 44  0.0000000  0  8G30G12G29G10G05G02G25G26
 -13074687.17248 -10174940.41445  21763102.9924                   21763101.3094
 -10045976.42248  -7782958.07446  21195523.3594                   21195520.8204
 -13190943.03547 -10274753.02345  22997284.8674                   22997283.4574
   4648617.58647   3632598.72344  23173362.6094                   23173361.7544
 -17037850.23448 -13261394.90647  20274148.9454                   20274145.6884
  -2642890.18048  -2043975.00046  21458812.0004                   21458807.6524
 -14651240.37148 -11402537.24246  21628008.8204                   21628009.1884
 -11581340.19146  -9009323.94543  24013080.2584                   24013081.4844
 11  8 25  1 44 30.0000000  0  8G30G12G29G10G05G02G25G26
 -13032737.67647 -10142252.47745  21771085.3054                   21771083.7664
  -9948254.30948  -7706810.98846  21214119.2974                   21214116.6804
 -13227040.67647 -10302880.97345  22990415.8204                   22990414.8364
   4796527.06647   3747852.82444  23201508.7814                   23201507.8284
 -16975548.30948 -13212847.93047  20286004.5634                   20286001.5634
  -2560345.69548  -1979654.62546  21474520.0234                   21474515.5864
 -14617373.57848 -11376147.54746  21634453.6724                   21634453.7854
 -11628860.96546  -9046352.93443  24004037.8444                   24004038.8404
 11  8 25  1 45  0.0000000  0  8G30G12G29G10G05G02G25G26
 -12990183.26648 -10109093.18745  21779183.5164                   21779181.2974
  -9850042.13348  -7630282.03546  21232808.5234                   21232805.8914
 -13263100.79347 -10330979.69145  22983554.2814                   22983552.7894
   4944655.11347   3863277.26243  23229696.2344                   23229694.8984
 -16912695.85248 -13163871.96947  20297964.6414                   20297961.5274
  -2477707.85248  -1915261.50046  21490245.0164                   21490241.0554
 -14582923.43848 -11349303.28946  21641009.2034                   21641009.4924
 -11676379.90246  -9083380.50843  23994994.5084                   23994996.2114
 11  8 25  1 45 30.0000000  0  8G30G12G29G10G05G02G25G26
 -12947035.96148 -10075471.91845  21787394.0004                   21787392.0124
  -9751353.50848  -7553381.81346  21251588.2114                   21251585.2344
 -13299133.48447 -10359057.07845  22976696.9064                   22976695.4224
   5092986.96547   3978860.51243  23257924.0234                   23257921.8054
 -16849305.77048 -13114477.09047  20310027.3134                   20310024.8594
  -2394988.57848  -1850804.92246  21505986.3914                   21505981.8984
 -14547901.39548 -11322013.41446  21647673.8364                   21647673.6524
 -11723905.29746  -9120413.13743  23985950.7894                   23985952.1804
 11  8 25  1 46  0.0000000  0  8G30G12G29G10G05G02G25G26
 -12903288.38348 -10041382.88745  21795719.1644                   21795717.1644
  -9652183.16448  -7476106.23446  21270459.6954                   21270457.1604
 -13335129.07447 -10387105.53545  22969847.2584                   22969845.7274
   5241527.69147   4094606.52344  23286189.9844                   23286188.5594
 -16785371.66848 -13064658.30547  20322193.6644                   20322190.8244
  -2312180.37148  -1786279.05146  21521744.0864                   21521740.0314
 -14512299.60248 -11294271.77346  21654448.4144                   21654448.5664
 -11771425.91446  -9157442.04343  23976908.0234                   23976908.9064
 11  8 25  1 46 30.0000000  0  8G30G12G29G10G05G02G25G26
 -12858938.42248 -10006824.48445  21804158.0864                   21804156.8324
  -9552530.47348  -7398454.80546  21289423.0944                   21289420.6604
 -13371083.55547 -10415121.94545  22963005.0394                   22963004.7814
   5390276.94147   4210515.03544  23314496.1484                   23314494.6804
 -16720892.23048 -13014414.56647  20334463.8914                   20334460.5984
  -2229281.02348  -1721682.16446  21537519.4774                   21537515.0394
 -14476115.34048 -11266076.25446  21661334.0704                   21661334.6484
 -11818936.19946  -9194462.87143  23967866.8914                   23967867.8284
 11  8 25  1 47  0.0000000  0  8G30G12G29G10G05G02G25G26
 -12813990.83247  -9971800.41445  21812711.7274                   21812709.9104
  -9452401.77348  -7320432.45346  21308476.8754                   21308474.0784
 -13406999.50847 -10443108.33244  22956170.2814                   22956169.1844
   5539227.46947   4326580.35944  23342840.6804                   23342839.2114
 -16655873.13748 -12963750.32447  20346836.3364                   20346833.3054
  -2146294.91848  -1657017.66846  21553311.1024                   21553306.4804
 -14439352.94948 -11237430.25846  21668329.8134                   21668329.9884
 -11866437.15646  -9231476.41843  23958827.5704                   23958829.0514
 11  8 25  1 47 30.0000000  0  8G30G12G29G10G05G02G25G26
 -12768447.69147  -9936312.27745  21821378.2034                   21821376.6604
  -9351800.94148  -7242042.21946  21327620.4924                   21327617.7814
 -13442877.09047 -10471064.87144  22949343.3834                   22949340.4454
   5688375.01647   4442799.21143  23371221.9064                   23371220.2344
 -16590316.98848 -12912667.60247  20359311.1254                   20359308.6954
  -2063224.12148  -1592287.17646  21569118.8914                   21569114.6484
 -14402013.91448 -11208334.94146  21675435.0784                   21675435.1564
 -11913926.98446  -9268481.32844  23949790.5474                   23949791.6374
 11  8 25  1 48  0.0000000  0  8G30G12G29G10G05G02G25G26
 -12722305.19148  -9900357.10945  21830158.7894                   21830156.4964
  -9250725.89547  -7163282.45346  21346854.5864                   21346851.6994
 -13478709.89147 -10498986.52744  22942524.5474                   22942522.4844
   5837721.17247   4559172.81244  23399642.2034                   23399640.7154
 -16524220.96948 -12861164.19547  20371889.3134                   20371886.3834
  -1980064.52048  -1527487.49646  21584943.7814                   21584939.3834
 -14364093.88748 -11178786.89146  21682651.0864                   21682651.0314
 -11961398.04746  -9305471.62144  23940756.9224                   23940757.9884
 11  8 25  1 48 30.0000000  0  8G30G12G29G10G05G02G25G26
 -12675565.17248  -9863936.35245  21839053.2194                   21839051.3164
  -9149180.21548  -7084155.96546  21366178.1804                   21366175.5354
 -13514497.72747 -10526873.10945  22935714.5554                   22935713.3484
   5987261.73447   4675697.87944  23428098.9844                   23428097.4104
 -16457587.58248 -12809242.07047  20384568.6484                   20384565.9414
  -1896818.02348  -1462620.09446  21600784.9774                   21600780.3554
 -14325594.29748 -11148787.23046  21689977.2424                   21689977.4614
 -12008848.39146  -9342445.76244  23931728.3364                   23931728.1334
 11  8 25  1 49  0.0000000  0  8G30G12G29G10G05G02G25G26
 -12628230.20348  -9827051.98445  21848060.5704                   21848058.9344
  -9047167.81348  -7004665.80146  21385590.3364                   21385587.5864
 -13550241.07847 -10554725.03945  22928913.0394                   22928911.1254
   6136992.08647   4792370.86744  23456591.4694                   23456589.8054
 -16390420.51248 -12756904.08247  20397350.0474                   20397347.0594
  -1813486.71948  -1397686.60946  21616642.2974                   21616637.8714
 -14286517.11348 -11118337.49246  21697413.6804                   21697413.7234
 -12056276.49246  -9379402.57443  23922701.5234                   23922702.2344
 11  8 25  1 49 30.0000000  0  8G30G12G29G10G05G02G25G26
 -12580300.80948  -9789704.45345  21857181.9614                   21857179.6484
  -8944691.03948  -6924813.78546  21405091.0234                   21405088.0204
 -13585938.05147 -10582540.85245  22922119.9454                   22922118.1054
   6286909.38747   4909189.52044  23485120.1334                   23485118.5744
 -16322720.88748 -12704151.11347  20410233.1804                   20410230.0594
  -1730070.76648  -1332687.16846  21632516.0944                   21632511.2704
 -14246862.33648 -11087437.68746  21704959.8674                   21704960.3554
 -12103678.98846  -9416339.47743  23913681.9774                   23913682.2304
 11  8 25  1 50  0.0000000  0  8G30G12G29G10G05G02G25G26
 -12531776.60948  -9751893.41045  21866415.6174                   21866413.4494
  -8841751.53548  -6844601.20746  21424679.4774                   21424677.3874
 -13621585.86347 -10610318.32845  22915336.0784                   22915334.5554
   6437011.90647   5026152.50044  23513683.6884                   23513682.0124
 -16254489.11348 -12650983.48047  20423217.0784                   20423214.3714
  -1646569.52748  -1267621.26246  21648405.8284                   21648401.2894
 -14206629.10948 -11056087.11746  21712616.2274                   21712615.9104
 -12151051.54746  -9453253.02043  23904667.2584                   23904667.2584
 11  8 25  1 50 30.0000000  0  8G30G12G29G10G05G02G25G26
 -12482658.67648  -9713619.73845  21875761.9454                   21875759.8054
  -8738351.95748  -6764030.13746  21444356.2344                   21444353.6564
 -13657183.22347 -10638056.48045  22908562.2734                   22908560.8834
   6587296.40247   5143257.32044  23542281.7664                   23542279.6644
 -16185727.14548 -12597402.71547  20436302.0554                   20436299.5314
  -1562983.49248  -1202489.28946  21664311.7664                   21664307.0744
 -14165817.93848 -11024286.21146  21720382.0394                   21720381.8444
 -12198391.23446  -9490140.94543  23895658.5394                   23895658.8014
 11  8 25  1 51  0.0000000  0  8G30G12G29G10G05G02G25G26
 -12432953.77347  -9674888.68745  21885221.0944                   21885219.2624
  -8634500.48447  -6683106.93846  21464118.4614                   21464115.6374
 -13692734.52347 -10665758.77745  22901796.8444                   22901794.9384
   6737754.05147   5260497.05143  23570912.9144                   23570910.8794
 -16116442.62148 -12543414.77047  20449486.0864                   20449483.8134
  -1479318.80148  -1137296.01646  21680232.4614                   21680228.0904
 -14124435.09848 -10992039.84446  21728256.7274                   21728257.2814
 -12245700.71146  -9527005.32843  23886655.1564                   23886656.3284
 11  8 25  1 51 30.0000000  0  8G30G12G29G10G05G02G25G26
 -12382655.90247  -9635695.56245  21894792.0164                   21894790.3794
  -8530192.59048  -6601828.07846  21483967.5314                   21483964.6214
 -13728231.28147 -10693418.58245  22895042.4844                   22895040.5314
   6888388.97747   5377874.90643  23599577.2274                   23599575.5354
 -16046629.56648 -12489014.98047  20462771.7424                   20462768.8014
  -1395569.21948  -1072036.60546  21696169.5554                   21696165.4694
 -14082474.00448 -10959342.87546  21736241.8674                   21736241.7734
 -12292970.02046  -9563838.41443  23877661.0164                   23877661.2664
 11  8 25  1 52  0.0000000  0  8G30G12G29G10G05G02G25G26
 -12331764.86747  -9596040.26245  21904476.6484                   21904474.2584
  -8425430.23047  -6520195.09446  21503903.3204                   21503900.6094
 -13763670.88347 -10721033.82045  22888298.7664                   22888296.9344
   7039198.94547   5495389.14543  23628275.4694                   23628274.2464
 -15976289.50848 -12434204.53547  20476156.7894                   20476153.7974
  -1311734.03948  -1006710.49646  21712122.7274                   21712118.0664
 -14039934.00048 -10926194.82846  21744336.9384                   21744336.8324
 -12340194.68846  -9600636.68743  23868673.4144                   23868674.8244
 11  8 25  1 52 30.0000000  0  8G30G12G29G10G05G02G25G26
 -12280285.88747  -9555926.80145  21914272.7814                   21914270.7384
  -8320219.96148  -6438213.10246  21523924.1024                   21523921.4844
 -13799056.02047 -10748606.62545  22881564.3594                   22881562.8244
   7190176.82047   5613034.19943  23657006.0234                   23657004.2814
 -15905428.15248 -12378987.87547  20489641.3364                   20489638.5394
  -1227818.12548   -941321.46146  21728091.4064                   21728087.0204
 -13996819.74248 -10892599.29346  21752541.0394                   21752541.4384
 -12387375.88746  -9637401.11743  23859695.5944                   23859696.0864
 11  8 25  1 53  0.0000000  0  9G30G12G29G15G10G05G02G25G26
 -12228217.81648  -9515354.29345  21924181.0394                   21924179.6454
  -8214562.15247  -6355882.37146  21544030.0314                   21544027.6484
 -13834382.90247 -10776134.07445  22874842.3984                   22874839.6484
  -9510388.68056  -7401277.50853  24758450.6954                   24758455.0434
   7341321.92247   5730809.57043  23685767.9384                   23685766.3444
 -15834044.94148 -12323364.59047  20503224.8914                   20503221.8674
  -1143819.60948   -875868.06346  21744075.9614                   21744071.2544
 -13953129.51648 -10858554.96546  21760855.1954                   21760855.2664
 -12434508.22746  -9674127.48043  23850726.6254                   23850726.7034
 11  8 25  1 53 30.0000000  0  9G30G12G29G15G10G05G02G25G26
 -13750979.23848 -10701921.65245  21634409.1484                   21634407.3324
  -9683875.41847  -7500801.82446  21264429.2974                   21264426.5474
 -15445070.55147 -12031215.33245  22568338.3674                   22568337.2664
 -11131349.67746  -8664363.58143  24449992.2814                   24449995.9184
   5917216.75447   4621117.21143  23414769.3204                   23414767.6724
 -17337558.74648 -13494933.77347  20217115.8914                   20217112.8954
  -2635155.17648  -2037947.71546  21460284.2584                   21460279.5044
 -15484281.74248 -12051660.58646  21469486.7734                   21469486.6254
 -14057009.43846 -10938413.97343  23541974.1644                   23541974.7584
 11  8 25  1 54  0.0000000  0  9G30G12G29G15G10G05G02G25G26
 -13697736.22348 -10660433.60945  21644540.8984                   21644538.6914
  -9577330.93048  -7417780.18446  21284703.9384                   21284701.4104
 -15480276.62947 -12058648.57045  22561638.1174                   22561637.6764
 -11177023.55546  -8699953.16443  24441299.9454                   24441303.7424
   6068687.18747   4739146.07843  23443593.4064                   23443591.8244
 -17265137.28148 -13438501.45747  20230896.7894                   20230893.6564
  -2550992.56348  -1972366.43846  21476299.6094                   21476295.3554
 -15439441.41048 -12016720.05546  21478019.2814                   21478019.3834
 -14104034.69146 -10975056.89544  23533025.7584                   23533026.1024
 11  8 25  1 54 30.0000000  0  9G30G12G29G15G10G05G02G25G26
 -13643908.22748 -10618489.72345  21654784.0784                   21654782.0904
  -9470347.73448  -7334416.68846  21305061.8914                   21305059.5944
 -15515420.98847 -12086033.75045  22554951.6254                   22554949.2074
 -11222829.82846  -8735645.94543  24432583.7664                   24432586.9534
   6220315.15647   4857297.71944  23472447.7274                   23472445.6994
 -17192200.24648 -13381667.38747  20244776.7194                   20244773.7304
  -2466749.76648  -1906722.69146  21492330.6414                   21492326.4384
 -15394027.69948 -11981332.72746  21486661.2894                   21486661.5004
 -14151002.43446 -11011655.03544  23524088.2894                   23524088.7854
 11  8 25  1 55  0.0000000  0  9G30G12G29G15G10G05G02G25G26
 -13589495.55148 -10576090.23045  21665138.1414                   21665136.4414
  -9362927.39548  -7250712.55946  21325503.6414                   21325501.0274
 -15550500.62147 -12113368.52745  22548276.2504                   22548274.2154
 -11268765.31646  -8771439.44543  24423841.7664                   24423845.1254
   6372098.24647   4975570.22743  23501331.1724                   23501328.7854
 -17118748.44948 -13324432.21547  20258754.0474                   20258751.1644
  -2382426.09048  -1841015.93046  21508376.6414                   21508372.4384
 -15348040.25048 -11945498.33646  21495412.6954                   21495412.2774
 -14197908.46946 -11048205.05944  23515161.8834                   23515162.7074
 11  8 25  1 55 30.0000000  0  9G30G12G29G15G10G05G02G25G26
 -13534501.46147 -10533237.69945  21675603.4144                   21675601.5164
  -9255075.36348  -7166672.04746  21346027.3444                   21346024.8284
 -15585516.40647 -12140653.50845  22541612.3834                   22541610.9064
 -11314830.21546  -8807333.78943  24415075.6414                   24415079.4884
   6524031.28147   5093959.60943  23530242.4064                   23530240.5394
 -17044786.42648 -13266799.45347  20272828.6884                   20272825.6334
  -2298023.99648  -1775248.04746  21524437.7664                   21524433.4494
 -15301481.96148 -11909219.15246  21504272.2114                   21504272.1564
 -14244752.00846 -11084706.39844  23506247.5314                   23506247.8554
 11  8 25  1 56  0.0000000  0  9G30G12G29G15G10G05G02G25G26
 -13478924.12148 -10489930.69945  21686179.2194                   21686177.7974
  -9146791.11748  -7082294.75446  21366632.6954                   21366630.3244
 -15620463.53547 -12167885.02045  22534962.6954                   22534959.6174
 -11361019.22346  -8843324.83243  24406285.9614                   24406288.6914
   6676114.71146   5212466.14143  23559183.1644                   23559181.2704
 -16970312.57048 -13208767.85947  20287000.4454                   20286997.3914
  -2213540.85948  -1709417.02346  21540514.4144                   21540509.9884
 -15254350.46148 -11872493.30546  21513240.8364                   21513241.1884
 -14291526.49646 -11121153.89544  23497347.2894                   23497346.8204
 11  8 25  1 56 30.0000000  0  9G30G12G29G15G10G05G02G25G26
 -13422760.75448 -10446167.02045  21696866.8134                   21696865.1134
  -9038073.12148  -6997579.44946  21387321.5554                   21387318.6374
 -15655336.81647 -12195058.99245  22528325.8204                   22528323.6994
 -11407325.68446  -8879407.37943  24397473.3754                   24397476.4574
   6828349.57846   5331090.70743  23588152.2894                   23588150.9734
 -16895324.71148 -13150335.75847  20301269.8914                   20301267.2854
  -2128973.04748  -1643520.02046  21556607.2114                   21556602.4924
 -15206642.27348 -11835318.07846  21522319.7194                   21522319.7234
 -14338224.71547 -11157541.98844  23488460.5084                   23488460.6334
 11  8 25  1 57  0.0000000  0  9G30G12G29G15G10G05G02G25G26
 -13366013.75447 -10401948.59445  21707665.8524                   21707663.2234
  -8928925.59448  -6912529.46146  21408091.2814                   21408089.1764
 -15690135.54347 -12222174.82445  22521704.0234                   22521703.0004
 -11453748.60546  -8915580.72743  24388639.5394                   24388642.5784
   6980731.53946   5449829.85543  23617149.8524                   23617148.4884
 -16819826.06648 -13091505.64147  20315637.1564                   20315633.9064
  -2044322.14148  -1577558.27046  21572715.9304                   21572711.3244
 -15158359.42248 -11797695.06646  21531507.4304                   21531507.1764
 -14384844.73047 -11193869.16444  23479588.5474                   23479589.1214
 11  8 25  1 57 30.0000000  0  9G30G12G29G15G10G05G02G25G26
 -13308683.00447 -10357275.27045  21718575.0234                   21718573.4804
  -8819349.96948  -6827145.89546  21428942.8594                   21428940.4774
 -15724856.43447 -12249230.01245  22515096.6804                   22515095.6644
 -11500284.49246  -8951842.08643  24379783.8914                   24379786.5904
   7133259.30147   5568682.66043  23646175.2194                   23646173.3594
 -16743817.34848 -13032278.05547  20330100.8984                   20330098.2074
  -1959587.53948  -1511531.30146  21588840.4694                   21588835.7544
 -15109501.17648 -11759623.71546  21540805.0474                   21540804.7774
 -14431381.94146 -11230131.82844  23470732.7034                   23470733.0204
 11  8 25  1 58  0.0000000  0  9G30G12G29G15G10G05G02G25G26
 -13250773.80948 -10312151.21145  21729595.0864                   21729593.3444
  -8709352.78148  -6741433.82446  21449874.5554                   21449872.3164
 -15759502.39847 -12276226.82845  22508504.2114                   22508501.9344
 -11546935.21547  -8988192.95743  24370906.6414                   24370908.7894
   7285925.84047   5687643.58643  23675225.8594                   23675225.1054
 -16667304.35248 -12972657.53947  20344660.7814                   20344657.9384
  -1874773.12948  -1445442.14546  21604980.1024                   21604975.5044
 -15060072.35248 -11721107.75046  21550210.9614                   21550211.0004
 -14477836.96547 -11266330.40644  23461892.9144                   23461892.4774
 11  8 25  1 58 30.0000000  0  9G30G12G29G15G10G05G02G25G26
 -13192286.96947 -10266577.04345  21740724.6644                   21740722.7504
  -8598936.21948  -6655394.97346  21470886.5314                   21470883.9414
 -15794071.09847 -12303163.43845  22501925.6094                   22501923.8874
 -11593697.34447  -9024630.65243  24362007.3754                   24362010.1334
   7438728.77747   5806710.80543  23704304.1644                   23704302.3794
 -16590288.43448 -12912645.12547  20359316.4064                   20359313.5274
  -1789878.86348  -1379290.76246  21621134.9454                   21621130.5124
 -15010073.22748 -11682147.38346  21559725.1414                   21559725.0744
 -14524206.17247 -11302462.09044  23453068.7814                   23453068.8834
 11  8 25  1 59  0.0000000  0  9G30G12G29G15G10G05G02G25G26
 -13133220.91448 -10220551.55145  21751964.4304                   21751962.5824
  -8488100.37548  -6569029.40246  21491977.8444                   21491975.2544
 -15828558.05947 -12330036.32445  22495363.0634                   22495361.3484
 -11640566.12947  -9061151.46944  24353088.0164                   24353091.0434
   7591668.14547   5925884.31643  23733407.3914                   23733406.4494
 -16512768.78547 -12852240.19146  20374067.9224                   20374065.0314
  -1704902.19148  -1313075.18046  21637305.5554                   21637300.8204
 -14959501.60948 -11642740.93846  21569348.7194                   21569348.5004
 -14570483.32047 -11338522.06344  23444262.6644                   23444263.0824
 11  8 25  1 59 30.0000000  0  9G30G12G29G15G10G05G02G25G26
 -13073578.27348 -10174076.75445  21763313.9844                   21763312.4264
  -8376849.15648  -6482340.16446  21513147.8444                   21513145.4804
 -15862962.69147 -12356845.09045  22488816.3054                   22488813.0084
 -11687540.50046  -9097754.59043  24344149.1254                   24344151.8674
   7744739.68747   6045160.81243  23762536.3204                   23762534.7974
 -16434748.67648 -12791445.29747  20388915.1254                   20388911.8324
  -1619844.77748  -1246796.68446  21653491.1724                   21653486.8094
 -14908359.61748 -11602890.03946  21579081.2424                   21579081.1484
 -14616666.38347 -11374508.76644  23435474.1954                   23435474.2504
 11  8 25  2  0  0.0000000  0  9G30G12G29G15G10G05G02G25G26
 -13013363.63348 -10127156.24645  21774773.0394                   21774770.5784
  -8265188.68047  -6395332.00846  21534396.3594                   21534394.0744
 -15897286.58647 -12383590.94145  22482284.0474                   22482282.1174
 -11734621.18446  -9134440.53143  24335189.9924                   24335191.5744
   7897937.38747   6164535.62143  23791688.7504                   23791687.5594
 -16356233.03548 -12730264.27747  20403855.6724                   20403853.0784
  -1534710.00447  -1180457.90646  21669691.7664                   21669687.0824
 -14856651.41448 -11562597.94146  21588920.9384                   21588921.0864
 -14662755.27747 -11410422.03144  23426703.9924                   23426703.5824
 11  8 25  2  0 30.0000000  0  9G30G12G29G15G10G05G02G25G26
 -12952571.30148 -10079785.60245  21786341.5704                   21786339.1294
  -8153114.44148  -6308001.44946  21555723.3364                   21555720.8404
 -15931520.94947 -12410266.97345  22475769.5864                   22475768.2974
 -11781798.87146  -9171202.04343  24326212.1334                   24326214.0664
   8051265.48046   6284012.04343  23820865.8284                   23820864.7194
 -16277216.96947 -12668693.31346  20418891.8284                   20418889.0394
  -1449491.32847  -1114053.75045  21685908.2664                   21685903.7664
 -14804370.55948 -11521859.62546  21598869.6484                   21598869.3324
 -14708739.43447 -11446253.68844  23417952.4144                   23417952.3324
 11  8 25  2  1  0.0000000  0  9G30G12G29G15G10G05G02G25G26
 -12891201.29748 -10031964.79745  21798019.5004                   21798017.5084
  -8040628.11347  -6220349.78946  21577128.9454                   21577126.8874
 -15965662.49247 -12436870.71545  22469272.6644                   22469270.8054
 -11829069.53946  -9208035.99643  24317216.1174                   24317218.4884
   8204722.41846   6403588.83643  23850067.6414                   23850066.7854
 -16197701.16448 -12606732.94147  20434023.3364                   20434020.5314
  -1364187.37547  -1047583.14845  21702141.2274                   21702136.3014
 -14751516.66848 -11480674.79746  21608927.3204                   21608926.9884
 -14754614.36347 -11482000.27344  23409222.7504                   23409222.8244
 11  8 25  2  1 30.0000000  0  9G30G12G29G15G10G05G02G25G26
 -12829259.76248  -9983698.66445  21809806.5164                   21809804.3754
  -7927737.15247  -6132382.81346  21598611.2344                   21598608.8484
 -15999714.59847 -12463404.77045  22462792.6024                   22462791.3244
 -11876435.67246  -9244944.36343  24308202.7814                   24308205.2814
   8358300.91846   6523260.37143  23879292.5634                   23879291.8324
 -16117692.16848 -12544388.26247  20449248.4844                   20449245.3984
  -1278803.23847   -981050.07445  21718389.3054                   21718384.8404
 -14698095.33648 -11439047.80146  21619093.2664                   21619092.8954
 -14800381.52047 -11517662.85943  23400514.4144                   23400514.3794
 11  8 25  2  2  0.0000000  0  9G30G12G29G15G10G05G02G25G26
 -12766745.40248  -9934986.19145  21821702.3524                   21821700.4694
  -7814441.82847  -6044100.75046  21620170.8984                   21620168.2234
 -16033672.47747 -12489865.37545  22456330.9384                   22456329.2234
 -11923892.19546  -9281923.18843  24299171.6334                   24299173.9264
   8512000.69546   6643026.40643  23908540.2504                   23908539.9304
 -16037189.27348 -12481658.72346  20464567.5864                   20464564.8164
  -1193336.57447   -914452.68446  21734653.2194                   21734648.5824
 -14644104.74648 -11396977.23446  21629367.0864                   21629367.2464
 -14846034.64847 -11553236.57844  23391826.5314                   23391826.3984
 11  8 25  2  2 30.0000000  0  9G30G12G29G15G10G05G02G25G26
 -12703661.77048  -9885830.10245  21833706.7814                   21833704.8484
  -7700746.65247  -5955507.11346  21641806.2894                   21641803.6914
 -16067536.34447 -12516252.74245  22449886.2344                   22449884.4614
 -11971438.41446  -9318971.84443  24290123.0554                   24290126.2304
   8665816.93446   6762883.16843  23937811.1024                   23937810.0394
 -15956196.70748 -12418547.62146  20479980.3204                   20479977.2974
  -1107789.54348   -847792.66045  21750932.4924                   21750927.5984
 -14589547.84048 -11354465.38746  21639748.8834                   21639748.6174
 -14891572.50847 -11588720.49244  23383160.1954                   23383160.3554
 11  8 25  2  3  0.0000000  0  9G30G12G29G15G10G05G02G25G26
 -12640011.15248  -9836232.23445  21845819.1954                   21845817.0474
  -7586655.68047  -5866605.07046  21663516.7894                   21663514.6334
 -16101305.39547 -12542566.23845  22443460.2424                   22443458.3054
 -12019073.02746  -9356089.38343  24281058.9534                   24281060.2934
   8819745.89546   6882827.79343  23967103.0634                   23967101.3244
 -15874717.53548 -12355057.35247  20495484.8754                   20495482.6054
  -1022163.30948   -781070.93046  21767226.3204                   21767221.9414
 -14534426.48448 -11311513.71146  21650238.3134                   21650237.6644
 -14936992.18847 -11624112.31644  23374516.8284                   23374517.3444
 11  8 25  2  3 30.0000000  0  9G30G12G29G15G10G05G02G25G26
 -12575791.53548  -9786190.98445  21858040.0234                   21858037.7934
  -7472168.09447  -5777393.97346  21685303.3984                   21685300.9024
 -16134974.30147 -12568801.68845  22437053.2114                   22437051.7154
 -12066789.88746  -9393271.06643  24271978.6334                   24271980.4064
   8973788.67247   7002861.15643  23996416.0704                   23996413.9964
 -15792749.76648 -12291186.34847  20511083.0394                   20511080.4804
   -936454.57847   -714284.91846  21783536.1254                   21783531.5474
 -14478738.03548 -11268120.13746  21660835.3594                   21660834.8714
 -14982287.19947 -11659407.02744  23365897.9384                   23365897.3554
 11  8 25  2  4  0.0000000  0  9G30G12G29G15G10G05G02G25G26
 -12511007.64548  -9735710.04745  21870367.5394                   21870366.0204
  -7357289.75047  -5687878.39846  21707163.9144                   21707161.7074
 -16168544.59447 -12594960.29345  22430665.0314                   22430662.7544
 -12114589.84046  -9430517.47343  24262881.7504                   24262884.2344
   9127939.07847   7122978.38343  24025750.5474                   24025747.9104
 -15710299.00847 -12226938.99246  20526772.7034                   20526769.7074
   -850666.64147   -647437.18445  21799860.8594                   21799856.2584
 -14422486.72748 -11224287.97346  21671539.7504                   21671539.5164
 -15027457.28147 -11694604.39544  23357302.4694                   23357302.0784
 11  8 25  2  4 30.0000000  0  9G30G12G29G15G10G05G02G25G26
 -12445661.57848  -9684791.05945  21882802.9614                   21882800.8914
  -7242024.07047  -5598060.99246  21729098.2034                   21729095.6764
 -16202014.78947 -12621040.94545  22424296.3594                   22424293.9804
 -12162470.73447  -9467826.94544  24253770.0944                   24253772.8524
   9282194.24247   7243177.23043  24055104.0314                   24055102.1994
 -15627367.55948 -12162317.06646  20542554.3754                   20542551.6174
   -764800.26247   -580528.32045  21816200.6644                   21816196.3754
 -14365674.03148 -11180018.37546  21682350.7814                   21682350.9184
 -15072499.34047 -11729701.97344  23348730.7274                   23348731.0314
 11  8 25  2  5  0.0000000  0  9G30G12G29G15G10G05G02G25G26
 -12379753.11748  -9633433.84445  21895344.6484                   21895342.8634
  -7126372.18048  -5507942.65246  21751106.0394                   21751103.7424
 -16235381.26247 -12647040.72345  22417946.4144                   22417944.6644
 -12210428.44147  -9505196.27344  24244644.1644                   24244646.3754
   9436552.85246   7363456.62943  24084477.3444                   24084475.9304
 -15543955.92648 -12097320.97747  20558427.2814                   20558424.2274
   -678853.85948   -513557.09845  21832555.8524                   21832551.1484
 -14308299.34448 -11135310.85946  21693268.7974                   21693268.9384
 -15117408.39547 -11764695.93444  23340185.2814                   23340185.0234
 11  8 25  2  5 30.0000000  0  9G30G12G29G15G10G05G02G25G26
 -12313289.03148  -9581643.68445  21907992.1174                   21907991.0204
  -7010342.38347  -5417529.84446  21773186.2194                   21773183.5944
 -16268647.16447 -12672962.15245  22411616.3444                   22411614.2814
 -12258465.74647  -9542627.64144  24235502.9064                   24235504.4734
   9591006.99646   7483810.49243  24113869.3444                   24113867.6684
 -15460071.50447 -12031956.47747  20574389.4384                   20574386.4454
   -592832.68447   -446527.61345  21848925.2194                   21848920.6294
 -14250368.79748 -11090170.20346  21704292.6484                   21704292.8014
 -15162186.08247 -11799587.51644  23331663.1024                   23331664.0204
 11  8 25  2  6  0.0000000  0  9G30G12G29G15G10G05G02G25G26
 -12246262.21948  -9529415.02345  21920747.2114                   21920745.4384
  -6893928.62147  -5326817.84046  21795338.7814                   21795336.3014
 -16301802.27047 -12698797.25845  22405306.7194                   22405305.1804
 -12306571.06347  -9580112.00844  24226348.7814                   24226349.9774
   9745562.69146   7604243.48443  24143280.1644                   24143278.6914
 -15375707.34448 -11966218.15247  20590443.3054                   20590440.8484
   -506728.45748   -379433.41045  21865310.2504                   21865305.6174
 -14191874.78548 -11044590.48846  21715423.7664                   21715423.6724
 -15206820.25047 -11834367.30144  23323170.5394                   23323170.0664
 11  8 25  2  6 30.0000000  0  9G30G12G29G15G10G05G02G25G26
 -12178677.09048  -9476751.33245  21933608.5784                   21933606.9964
  -6777136.53548  -5235811.03546  21817563.1174                   21817561.2814
 -16334847.36347 -12724546.62145  22399019.1024                   22399016.7624
 -12354744.91847  -9617649.79744  24217180.8834                   24217182.8594
   9900214.43446   7724751.32443  24172709.3204                   24172707.4024
 -15290868.45348 -11900109.91446  20606587.7894                   20606585.1564
   -420543.87948   -312276.59046  21881710.5004                   21881705.8754
 -14132821.15648 -10998574.70746  21726661.1804                   21726661.1374
 -15251310.30147 -11869034.77744  23314704.3594                   23314703.8204
 11  8 25  2  7  0.0000000  0  9G30G12G29G15G10G05G02G25G26
 -12110534.76248  -9423653.45745  21946575.1174                   21946573.4654
  -6659968.38347  -5144511.19946  21839859.8914                   21839857.0744
 -16367779.99247 -12750208.39145  22392751.9064                   22392749.6174
 -12402984.23046  -9655238.55944  24208000.5704                   24208003.0904
  10054960.18446   7845332.40243  24202156.0164                   24202154.8164
 -15205556.76248 -11833633.26247  20622822.1724                   20622819.0634
   -334278.40247   -245056.73046  21898126.8204                   21898121.8444
 -14073208.52048 -10952123.31346  21738004.8594                   21738004.8134
 -15295652.05547 -11903586.67244  23306265.6024                   23306265.7274
 11  8 25  2  7 30.0000000  0  9G30G12G29G15G10G05G02G25G26
 -12041839.83248  -9370124.97745  21959647.5234                   21959645.5594
  -6542429.85247  -5052922.75046  21862226.8364                   21862224.4304
 -16400601.21947 -12775783.32845  22386505.8984                   22386504.4654
 -12451289.14346  -9692878.46844  24198808.6254                   24198809.7814
  10209794.46546   7965982.46943  24231620.6174                   24231619.2034
 -15119776.87948 -11766791.77347  20639145.4614                   20639142.4534
   -247935.19147   -177776.30545  21914557.1334                   21914552.4924
 -14013040.91848 -10905239.48846  21749454.9144                   21749454.5164
 -15339845.18847 -11938022.76644  23297855.9694                   23297855.9844
 11  8 25  2  8  0.0000000  0  9G30G12G29G15G10G05G02G25G26
 -11972592.49248  -9316166.07045  21972825.3134                   21972823.2304
  -6424522.92647  -4961047.25046  21884663.7504                   21884660.9924
 -16433307.77347 -12801268.92645  22380282.3284                   22380280.0784
 -12499655.69146  -9730566.44943  24189604.9064                   24189605.4774
  10364715.94546   8086700.48443  24261100.8054                   24261099.4734
 -15033529.56648 -11699586.07047  20655557.6334                   20655555.3364
   -161512.95347   -110434.29346  21931002.7814                   21930998.2384
 -13952318.06648 -10857923.00446  21761010.0314                   21761009.9064
 -15383884.68047 -11972339.14544  23289475.8054                   23289475.9414
 11  8 25  2  8 30.0000000  0  9G30G12G29G15G10G05G02G25G26
 -11902793.53148  -9261777.32045  21986107.4384                   21986105.3954
  -6306249.34848  -4868886.04346  21907170.3754                   21907167.6644
 -16465896.53547 -12826662.73445  22374080.6884                   22374078.4844
 -12548080.47746  -9768299.78943  24180389.2734                   24180391.5554
  10519723.16046   8207485.27343  24290597.8204                   24290596.6214
 -14946815.96548 -11632017.02047  20672059.0314                   20672056.1454
    -75011.09847    -43030.25045  21947463.3524                   21947458.7704
 -13891040.21548 -10810174.03546  21772670.6884                   21772671.0514
 -15427765.96547 -12006532.25444  23281124.9844                   23281124.7854
 11  8 25  2  9  0.0000000  0  9G30G12G29G15G10G05G02G25G26
 -11832448.10248  -9206962.73845  21999493.9144                   21999491.6334
  -6187615.16047  -4776443.84046  21929745.6954                   21929743.4264
 -16498368.94147 -12851965.87545  22367901.4224                   22367899.4654
 -12596564.05146  -9806078.94143  24171162.5474                   24171165.4304
  10674809.85546   8328332.03143  24320110.2194                   24320108.9384
 -14859641.50448 -11564088.85546  20688647.5864                   20688644.4384
     11567.23447     24433.39545  21963938.6724                   21963934.0084
 -13829211.88348 -10761996.13346  21784436.3284                   21784435.9804
 -15471489.06347 -12040602.11344  23272805.4844                   23272804.2974
 11  8 25  2  9 30.0000000  0  9G30G12G29G15G10G05G02G25G26
 -11761552.22748  -9151719.25045  22012984.7274                   22012983.0514
  -6068617.96547  -4683718.77746  21952390.1334                   21952387.6454
 -16530717.46947 -12877172.49645  22361746.3134                   22361743.8794
 -12645098.28546  -9843897.54744  24161927.3134                   24161928.5314
  10829979.44946   8449243.39543  24349637.0164                   24349635.9534
 -14772003.11348 -11495799.18846  20705324.6724                   20705321.3164
     98227.58647     91960.94145  21980429.4384                   21980424.8834
 -13766828.71548 -10713385.89146  21796307.5004                   21796306.6994
 -15515044.83247 -12074541.55544  23264516.1954                   23264515.5864
 11  8 25  2 10  0.0000000  0  9G30G12G29G15G10G05G02G25G26
 -11690108.39148  -9096048.77345  22026580.1884                   22026578.4804
  -5949261.32047  -4590713.62146  21975102.9064                   21975100.5984
 -16562941.05947 -12902281.74245  22355613.6564                   22355611.6214
 -12693681.08247  -9881754.02344  24152681.7344                   24152683.0394
  10985228.35246   8570216.52343  24379180.4384                   24379179.0634
 -14683903.35248 -11427150.00846  20722089.2974                   20722086.2894
    184969.04347    159551.69945  21996935.8054                   21996931.2424
 -13703892.64148 -10664344.80146  21808283.7424                   21808284.0274
 -15558430.22747 -12108348.24244  23256260.6174                   23256259.6684
 11  8 25  2 10 30.0000000  0  9G30G12G29G15G10G05G02G25G26
 -13193534.78148 -10267549.88745  21740487.8364                   21740485.4694
  -7404962.41447  -5725026.19546  21698092.5554                   21698089.8524
 -18170457.19947 -14154891.68445  22049713.2664                   22049711.1374
 -14317730.33247 -11147246.69944  23843636.0314                   23843636.3794
   9565140.46946   7463654.52743  24108947.4694                   24108945.4964
 -16170760.19548 -12585739.75046  20439150.0234                   20439147.0004
  -1303624.36747  -1000391.21945  21713666.0634                   21713661.3324
 -15215821.50048 -11842471.18746  21520573.3594                   21520573.6134
 -17177062.12947 -13369619.73444  22948245.6174                   22948244.2074
 11  8 25  2 11  0.0000000  0  9G30G12G29G15G10G05G02G25G26
 -13121001.67248 -10211030.61745  21754290.4224                   21754288.7894
  -7284896.46147  -5631468.32446  21720939.9694                   21720937.4264
 -18202425.85247 -14179802.28945  22043630.1564                   22043627.9454
 -14366403.86747 -11185173.92243  23834373.2664                   23834374.3754
   9720538.80946   7584744.16843  24138518.2734                   24138516.5084
 -16081745.93748 -12516377.98446  20456088.8444                   20456085.7734
  -1216722.14147   -932675.19545  21730202.6414                   21730198.2384
 -15151784.68748 -11792572.36346  21532758.8594                   21532758.7114
 -17220097.87947 -13403153.97744  22940056.0164                   22940054.9844
 11  8 25  2 11 30.0000000  0  9G30G12G29G15G10G05G02G25G26
 -13047927.41048 -10154089.66445  21768195.9144                   21768194.2664
  -7164481.30147  -5537638.35246  21743854.6484                   21743851.9574
 -18234264.93747 -14204611.92645  22037571.5084                   22037569.0904
 -14415119.47347 -11223133.91444  23825102.8364                   23825103.6604
   9876007.45746   7705888.52743  24168103.3834                   24168100.8634
 -15992278.11348 -12446662.78946  20473114.2034                   20473111.2734
  -1129740.10947   -864896.98045  21746755.0164                   21746750.6334
 -15087200.16448 -11742246.76646  21545048.9064                   21545049.0784
 -17262954.07047 -13436548.28944  22931899.9384                   22931899.4184
 11  8 25  2 12  0.0000000  0  9G30G12G29G15G10G05G02G25G26
 -12974312.91848 -10096727.75445  21782204.4224                   21782202.3984
  -7043718.69948  -5443537.65646  21766834.6954                   21766832.6374
 -18265971.26247 -14229318.11745  22031537.5004                   22031535.5514
 -14463873.67647 -11261123.98844  23815824.9064                   23815825.9774
  10031544.74246   7827086.39843  24197701.5634                   24197698.3984
 -15902358.32848 -12376595.41446  20490225.3364                   20490222.0434
  -1042677.41847   -797055.92645  21763322.5554                   21763317.9494
 -15022068.33248 -11691494.68746  21557443.2584                   21557443.4924
 -17305626.53947 -13469799.44144  22923779.9384                   22923778.3954
 11  8 25  2 12 30.0000000  0  9G30G12G29G15G10G05G02G25G26
 -12900161.21147 -10038947.21145  21796314.9384                   21796312.9804
  -6922612.68447  -5349169.36346  21789880.1564                   21789878.3554
 -18297544.09047 -14253920.28946  22025530.0234                   22025527.5434
 -14512665.08247 -11299143.02044  23806540.6254                   23806540.9614
  10187146.92646   7948334.85543  24227311.2194                   24227308.7894
 -15811989.84848 -12306178.40646  20507421.8914                   20507418.4614
   -955535.45347   -729153.09445  21779905.1724                   21779900.4104
 -14956391.72748 -11640318.11346  21569940.9144                   21569940.7304
 -17348112.66847 -13502905.41044  22915694.8984                   22915694.3914
 11  8 25  2 13  0.0000000  0  9G30G12G29G15G10G05G02G25G26
 -12825470.41447  -9980746.59845  21810528.0234                   21810526.4924
  -6801162.56248  -5254532.93446  21812991.7114                   21812989.8984
 -18328977.48847 -14278413.81245  22019548.0864                   22019545.9104
 -14561486.81647 -11337185.71144  23797249.3054                   23797250.2464
  10342815.52346   8069635.05543  24256933.6334                   24256931.1454
 -15721171.10248 -12235410.54346  20524704.2034                   20524701.1954
   -868310.46148   -661185.56645  21796503.6644                   21796498.6134
 -14890167.87148 -11588715.12146  21582543.0554                   21582542.9694
 -17390405.28547 -13535860.56644  22907647.0944                   22907646.1454
 11  8 25  2 13 30.0000000  0  9G30G12G29G15G10G05G02G25G26
 -12750247.67647  -9922131.49645  21824842.2504                   21824840.7344
  -6679376.72747  -5159634.92246  21836167.1254                   21836164.4804
 -18360275.06247 -14302801.49246  22013592.3834                   22013590.2194
 -14610341.66447 -11375254.18744  23787952.8524                   23787953.4414
  10498542.35946   8190980.67643  24286567.6564                   24286565.2544
 -15629909.61348 -12164297.68746  20542070.2664                   20542067.4414
   -781007.71948   -593157.44945  21813116.6724                   21813111.8594
 -14823403.65248 -11536691.04746  21595247.9844                   21595248.2624
 -17432505.83647 -13568666.07444  22899635.6024                   22899634.1374
 11  8 25  2 14  0.0000000  0  9G30G12G29G15G10G05G02G25G26
 -12674485.68048  -9863096.17245  21839259.6644                   21839257.9414
  -6557248.72747  -5064470.27046  21859407.2344                   21859404.9804
 -18391425.18047 -14327074.27046  22007664.3284                   22007663.1054
 -14659217.36746 -11413338.90644  23778650.7664                   23778652.6024
  10654334.65246   8312377.25042  24316214.0784                   24316211.4144
 -15538198.16048 -12092834.20746  20559522.6804                   20559519.6914
   -693617.71148   -525061.34045  21829746.6644                   21829742.3284
 -14756090.96148 -11484239.59846  21608057.1254                   21608056.9614
 -17474401.67247 -13601312.05944  22891662.6094                   22891661.5084
 11  8 25  2 14 30.0000000  0  9G30G12G29G15G10G05G02G25G26
 -12598194.27048  -9803648.32845  21853777.3984                   21853775.9614
  -6434789.35948  -4969047.41846  21882709.8134                   21882708.0124
 -18422433.70747 -14351236.69546  22001763.6954                   22001761.4614
 -14708119.25446 -11451444.00444  23769346.0314                   23769346.8874
  10810181.83246   8433816.59442  24345870.0164                   24345868.9064
 -15446046.84848 -12021027.98046  20577058.0314                   20577055.2074
   -606148.55548   -456903.55545  21846391.4694                   21846387.1174
 -14688239.17248 -11431368.08646  21620968.9534                   21620968.5594
 -17516097.12547 -13633801.90644  22883727.8134                   22883727.3954
 11  8 25  2 15  0.0000000  0  9G30G12G29G15G10G05G02G25G26
 -12521373.27347  -9743787.82845  21868395.8914                   21868393.9224
  -6311998.98448  -4873366.63746  21906076.5234                   21906074.4804
 -18453296.33247 -14375285.46546  21995890.7504                   21995889.0594
 -14757042.63746 -11489565.85944  23760035.3204                   23760036.4734
  10966083.39845   8555298.31342  24375537.0474                   24375536.1804
 -15353456.00048 -11948879.26246  20594677.6884                   20594674.7814
   -518597.85948   -388682.23845  21863051.7274                   21863047.4064
 -14619847.66448 -11378076.02046  21633982.9224                   21633983.4454
 -17557586.41447 -13666131.11344  22875832.9534                   22875832.0744
 11  8 25  2 15 30.0000000  0  9G30G12G29G15G10G05G02G25G26
 -12444026.80148  -9683517.84845  21883114.6094                   21883112.9384
  -6188883.64148  -4777432.62946  21929504.7584                   21929503.0704
 -18484013.42247 -14399220.80546  21990045.4064                   21990043.7624
 -14805986.84846 -11527704.00044  23750722.1644                   23750722.7894
  11122034.90245   8676818.95342  24405214.0004                   24405212.1254
 -15260430.24648 -11876391.64846  20612379.9304                   20612376.6294
   -430967.67647   -320398.97345  21879726.9844                   21879722.5354
 -14550920.04348 -11324366.18446  21647099.2894                   21647099.6094
 -17598868.10547 -13698298.54744  22867977.1724                   22867976.9264
 11  8 25  2 16  0.0000000  0  9G30G12G29G15G10G05G02G25G26
 -12366156.28948  -9622839.52745  21897932.5704                   21897931.1724
  -6065445.67248  -4681247.23446  21952994.2424                   21952992.3634
 -18514581.92248 -14423040.39846  21984228.7504                   21984225.6914
 -14854948.44147 -11565855.67644  23741404.7274                   23741405.7274
  11278034.62146   8798377.18442  24434899.8364                   24434897.8014
 -15166970.92248 -11803566.19146  20630164.4844                   20630161.7894
   -343257.55947   -252053.43445  21896417.3284                   21896413.2274
 -14481457.23848 -11270239.34446  21660318.3054                   21660317.9184
 -17639938.14547 -13730301.07444  22860161.6414                   22860160.9534
 11  8 25  2 16 30.0000000  0  9G30G12G29G15G10G05G02G25G26
 -12287760.58247  -9561751.98045  21912850.1174                   21912849.2114
  -5941684.47748  -4584809.97345  21976545.1414                   21976543.3954
 -18544996.76248 -14446740.25046  21978440.8674                   21978438.8164
 -14903921.27747 -11604016.11344  23732085.0554                   23732085.9344
  11434083.29746   8919973.48442  24464594.7504                   24464592.6994
 -15073077.07848 -11730402.15246  20648031.9924                   20648029.0514
   -255464.25047   -183643.07445  21913124.2664                   21913119.5984
 -14411457.44548 -11215694.08246  21673638.5634                   21673638.7814
 -17680789.56647 -13762133.24244  22852388.2194                   22852386.9184
 11  8 25  2 17  0.0000000  0  9G30G12G29G15G10G05G02G25G26
 -12208843.65247  -9500258.27745  21927868.4614                   21927866.6804
  -5817604.94548  -4488124.65646  22000156.6724                   22000154.4024
 -18575257.76647 -14470320.22746  21972682.1174                   21972679.9344
 -14952904.78947 -11642184.88344  23722764.2734                   23722764.9534
  11590176.23046   9041604.33243  24494298.1024                   24494296.0984
 -14978753.09448 -11656902.94146  20665981.1564                   20665978.2894
   -167589.65247   -115169.37545  21929846.1334                   21929841.9614
 -14340924.23048 -11160733.16046  21687060.8754                   21687060.6844
 -17721420.70747 -13793793.75844  22844656.0004                   22844654.9614
 11  8 25  2 17 30.0000000  0  9G30G12G29G15G10G05G02G25G26
 -12129407.76248  -9438360.19945  21942984.1174                   21942982.5394
  -5693210.27748  -4391193.77745  22023828.3674                   22023825.7074
 -18605362.81647 -14493778.69146  21966953.5164                   21966951.5274
 -15001896.43047 -11680360.03544  23713441.5004                   23713440.3094
  11746310.92246   9163267.73443  24524010.2274                   24524007.3524
 -14884001.55948 -11583070.57046  20684011.8984                   20684008.9224
    -79633.87547    -46632.41445  21946583.6884                   21946579.2974
 -14269859.47748 -11105358.04346  21700584.1024                   21700584.1884
 -17761828.18447 -13825279.99244  22836966.2504                   22836965.7034
 11  8 25  2 18  0.0000000  0  9G30G12G29G15G10G05G02G25G26
 -12049452.35947  -9376057.30545  21958199.6804                   21958197.6134
  -5568501.03548  -4294017.77745  22047559.9384                   22047557.2194
 -18635307.27348 -14517112.01246  21961255.5784                   21961253.2544
 -15050890.30147 -11718536.89844  23704118.1484                   23704116.7974
  11902487.79346   9284964.00443  24553729.6094                   24553727.2194
 -14788821.86748 -11508904.57046  20702123.6724                   20702120.5434
      8405.75447     21969.89845  21963336.8914                   21963333.0314
 -14198261.91048 -11049567.75446  21714208.4304                   21714208.6884
 -17802005.86747 -13856587.19144  22829321.1724                   22829320.1884
 11  8 25  2 18 30.0000000  0  9G30G12G29G15G10G05G02G25G26
 -11968981.16448  -9313352.51245  21973512.6334                   21973510.9884
  -5443481.53948  -4196600.02045  22071350.0944                   22071347.6684
 -18665090.84447 -14540319.97346  21955587.4144                   21955585.4144
 -15099885.60947 -11756714.91043  23694794.1174                   23694793.1214
  12058702.66446   9406689.87543  24583456.0554                   24583454.1134
 -14693217.93448 -11434407.99646  20720316.8834                   20720313.6484
     96527.80547     90636.42245  21980106.1724                   21980101.6334
 -14126134.84448 -10993364.87546  21727933.5864                   21727934.0274
 -17841951.64147 -13887713.68445  22821719.7734                   22821718.7384
 11  8 25  2 19  0.0000000  0  8G30G12G29G15G05G02G25G26
 -11887991.51647  -9250243.73045  21988924.5164                   21988922.8014
  -5318150.27048  -4098939.31645  22095199.9384                   22095197.3134
 -18694706.56248 -14563397.12946  21949951.5474                   21949950.2464
 -15148874.71947 -11794888.03944  23685471.6564                   23685472.0314
 -14597187.48048 -11359579.06246  20738591.0634                   20738587.8404
    184737.21147    159371.03145  21996891.7584                   21996887.6214
 -14053475.10948 -10936746.91046  21741760.0474                   21741760.7384
 -17881657.34447 -13918653.10244  22814163.8364                   22814162.3874
 11  8 25  2 19 30.0000000  0  8G30G12G29G15G05G02G25G26
 -11806492.40248  -9186737.94945  22004433.4614                   22004431.6764
  -5192517.31248  -4001043.52345  22119106.9304                   22119104.6414
 -18724158.87147 -14586346.96545  21944347.1254                   21944345.0904
 -15197861.62547 -11833059.44944  23676149.2584                   23676149.7194
 -14500739.48048 -11284424.78146  20756943.9304                   20756941.0784
    273027.09047    228168.34045  22013692.9384                   22013688.2274
 -13980291.25048 -10879720.55146  21755686.8984                   21755686.6454
 -17921125.86747 -13949407.71544  22806653.0234                   22806651.9924
 11  8 25  2 20  0.0000000  0  9G30G12G29G15G21G05G02G25G26
 -11724481.45347  -9122833.34845  22020039.3444                   22020037.4104
  -5066580.89848  -3902911.28545  22143072.3134                   22143070.1684
 -18753441.14848 -14609164.30546  21938775.0394                   21938772.8054
 -15246838.77046 -11871223.22744  23666828.3914                   23666829.2384
 -12614065.57856  -9827221.18453  25203917.6484                   25203917.1454
 -14403871.72348 -11208943.40646  20775377.2734                   20775374.5004
    361402.34847    297032.17645  22030510.1954                   22030505.2504
 -13906580.28548 -10822283.45746  21769713.4774                   21769713.4774
 -17960349.18747 -13979971.22344  22799189.0234                   22799187.7894
 11  8 25  2 20 30.0000000  0  9G30G12G29G15G21G05G02G25G26
 -11641961.26648  -9058531.93745  22035742.8594                   22035741.2854
  -4940344.43448  -3804545.24245  22167094.3364                   22167091.3794
 -18782551.64548 -14631847.79346  21933235.2424                   21933232.6054
 -15295804.02747 -11909377.73844  23657511.2194                   23657511.0984
 -12622291.98046  -9833631.33242  25202352.8914                   25202352.2384
 -14306587.32848 -11133137.38746  20793890.2664                   20793887.4494
    449862.36747    365962.05545  22047343.5864                   22047338.6884
 -13832344.41448 -10764437.32446  21783840.5314                   21783840.8284
 -17999324.12947 -14010341.22744  22791772.6254                   22791771.1994
 11  8 25  2 21  0.0000000  0  9G30G12G29G15G21G05G02G25G26
 -11558933.73048  -8993835.18445  22051542.0004                   22051540.6604
  -4813810.69948  -3705947.55945  22191172.5704                   22191170.2424
 -18811487.94548 -14654395.54346  21927729.2424                   21927726.8554
 -15344754.05147 -11947520.38344  23648195.9064                   23648196.5984
 -12630513.06646  -9840037.32442  25200788.5234                   25200788.4264
 -14208887.84448 -11057007.91046  20812481.5554                   20812478.8094
    538407.54347    434958.28545  22064193.0864                   22064188.5124
 -13757584.93448 -10706183.19946  21798066.4774                   21798066.5984
 -18038046.83247 -14040514.68744  22784403.4304                   22784402.4924
 11  8 25  2 21 30.0000000  0  9G30G12G29G15G21G05G02G25G26
 -11475403.11748  -8928746.42645  22067437.3834                   22067435.8054
  -4686984.50847  -3607121.97745  22215306.7894                   22215305.0164
 -18840250.02348 -14676807.53146  21922255.7344                   21922253.5394
 -15393688.22347 -11985650.68444  23638884.1804                   23638884.5044
 -12638731.86746  -9846441.53142  25199223.0394                   25199224.0944
 -14110778.12148 -10980558.77046  20831151.5004                   20831148.0904
    627036.19147    504019.56645  22081058.5864                   22081053.9384
 -13682305.83248 -10647524.17246  21812391.8444                   21812391.7934
 -18076515.80147 -14070490.41845  22777082.9844                   22777082.1684
 11  8 25  2 22  0.0000000  0  9G30G12G29G15G21G05G02G25G26
 -11391375.88747  -8863270.69545  22083427.3984                   22083425.7584
  -4559873.85548  -3508074.74245  22239495.0474                   22239493.3674
 -18868839.86748 -14699085.28546  21916815.2424                   21916813.1684
 -15442607.69547 -12023769.55944  23629575.5784                   23629574.9844
 -12646952.89546  -9852847.49242  25197659.4844                   25197659.3794
 -14012264.80948 -10903795.15246  20849897.6564                   20849894.7544
    715744.00047    573142.52345  22097938.7584                   22097934.1994
 -13606513.00448 -10588464.82046  21826814.5864                   21826814.9844
 -18114731.71547 -14100268.95744  22769810.2114                   22769809.5784
 11  8 25  2 22 30.0000000  0  9G30G12G29G15G21G05G02G25G26
 -11306846.70748  -8797403.82445  22099512.7584                   22099511.4184
  -4432473.60547  -3408801.85545  22263738.7894                   22263736.2584
 -18897247.57848 -14721221.12146  21911409.8054                   21911406.8754
 -15491502.12947 -12061868.89844  23620271.0944                   23620270.3054
 -12655169.37946  -9859249.84842  25196095.8594                   25196096.5204
 -13913342.04748 -10826712.47346  20868722.2894                   20868719.2974
    804538.82448    642333.29745  22114835.6094                   22114831.4414
 -13530200.58648 -10529000.60246  21841336.4224                   21841336.5904
 -18152683.07447 -14129841.35544  22762588.3444                   22762587.5084
 11  8 25  2 23  0.0000000  0  9G30G12G29G15G21G05G02G25G26
 -11221823.44148  -8731151.95345  22115692.2584                   22115690.5944
  -4304792.33248  -3309309.98045  22288035.8134                   22288032.9384
 -18925476.41048 -14743217.55946  21906037.7344                   21906035.0664
 -15540374.05946 -12099950.69944  23610970.4144                   23610970.4924
 -12663387.59046  -9865653.63342  25194531.8444                   25194532.6024
 -13814018.12148 -10749317.20346  20887623.0084                   20887619.9024
    893415.39847    711587.77045  22131748.8674                   22131744.5474
 -13453375.86348 -10469137.19546  21855955.4534                   21855955.2974
 -18190371.81647 -14159209.12544  22755416.7894                   22755415.1644
 11  8 25  2 23 30.0000000  0  9G30G12G29G15G21G05G02G25G26
 -11136302.00447  -8664511.89545  22131966.2344                   22131964.5514
  -4176826.66447  -3209596.50845  22312386.9064                   22312384.7304
 -18953518.13348 -14765068.21546  21900701.7034                   21900699.4264
 -15589214.40647 -12138007.93044  23601676.3204                   23601676.0124
 -12671601.73846  -9872054.27342  25192969.1484                   25192969.0784
 -13714288.89848 -10671606.11346  20906600.6564                   20906598.1454
    982380.11747    780910.91845  22148678.1484                   22148673.8324
 -13376034.39148 -10408871.10546  21870673.4384                   21870673.3674
 -18227788.01647 -14188364.50045  22748296.5634                   22748295.7154
 11  8 25  2 24  0.0000000  0  9G30G12G29G15G21G05G02G25G26
 -11050288.91448  -8597488.71945  22148334.3204                   22148332.6564
  -4048584.35547  -3109667.45345  22336790.3834                   22336788.6954
 -18981374.57448 -14786774.47346  21895400.5474                   21895397.7584
 -15638024.21947 -12176041.35244  23592388.2504                   23592387.6294
 -12679816.53546  -9878455.41442  25191405.8054                   25191406.1804
 -13614161.27348 -10593584.57846  20925654.5394                   20925651.5664
   1071428.77047    850299.46945  22165623.8134                   22165619.0554
 -13298182.21948 -10348207.07846  21885487.7894                   21885487.7974
 -18264932.29747 -14217308.00845  22741228.5864                   22741226.7584
 11  8 25  2 24 30.0000000  0  9G30G12G29G15G21G05G02G25G26
 -10963788.17248  -8530085.55145  22164794.7584                   22164792.9494
  -3920070.18047  -3009526.57045  22361246.1254                   22361244.1884
 -19009045.16448 -14808335.92246  21890135.3134                   21890132.5634
 -15686802.81247 -12214050.44944  23583105.1884                   23583105.3554
 -12688034.40645  -9884858.98042  25189842.3204                   25189842.9694
 -13513639.38748 -10515255.83646  20944783.2344                   20944779.8754
   1160559.98048    919752.35545  22182584.7424                   22182580.4654
 -13219822.95348 -10287147.90246  21900399.1564                   21900399.0984
 -18301802.85947 -14246038.23845  22734211.6024                   22734210.7384
 11  8 25  2 25  0.0000000  0  9G30G12G29G15G21G05G02G25G26
 -10876800.16448  -8462302.69145  22181347.8444                   22181346.2114
  -3791284.98847  -2909174.49645  22385753.0554                   22385750.9384
 -19036525.77348 -14829749.32046  21884905.3914                   21884903.2154
 -15735545.04347 -12252031.22344  23573829.6724                   23573830.2704
 -12696253.95745  -9891263.68042  25188278.0474                   25188278.3754
 -13412723.31248 -10436619.93046  20963986.9454                   20963983.5044
   1249775.65647    989271.05145  22199561.7974                   22199557.5044
 -13140956.37948 -10225693.43446  21915407.1254                   21915407.4414
 -18338394.00847 -14274550.74245  22727248.1024                   22727247.5354
 11  8 25  2 25 30.0000000  0  9G30G12G29G15G21G05G02G25G26
 -10789325.60547  -8394140.71145  22197993.3054                   22197992.2854
  -3662230.06647  -2808612.25845  22410311.4144                   22410309.1914
 -19063812.43048 -14851011.59846  21879712.8444                   21879710.2304
 -15784246.19947 -12289979.98844  23564562.6564                   23564562.1684
 -12704474.37546  -9897669.19542  25186713.4224                   25186713.2894
 -13311414.02348 -10357677.61746  20983265.2344                   20983262.0274
   1339078.10248   1058857.37145  22216555.6564                   22216550.9494
 -13061582.64148 -10163843.77746  21930511.3364                   21930511.8594
 -18374700.28947 -14302841.27745  22720339.9224                   22720338.0824
 11  8 25  2 26  0.0000000  0  9G30G12G29G15G21G05G02G25G26
 -10701367.59847  -8325602.00845  22214731.4694                   22214730.4614
  -3532909.35547  -2707842.91445  22434920.5474                   22434917.9064
 -19090903.65648 -14872121.57846  21874557.4614                   21874555.0394
 -15832903.95347 -12327894.93044  23555303.1254                   23555302.2934
 -12712696.85246  -9904076.28143  25185148.3284                   25185148.1524
 -13209714.41048 -10278431.16446  21002618.3674                   21002615.2584
   1428466.66048   1128510.79745  22233565.9924                   22233561.2114
 -12981704.62948 -10101601.16446  21945711.6724                   21945711.7114
 -18410719.28147 -14330907.91845  22713485.7114                   22713484.5784
 11  8 25  2 26 30.0000000  0  9G30G12G29G15G21G05G02G25G26
 -10612929.28147  -8256689.03145  22231560.8594                   22231558.9304
  -3403326.55147  -2606869.34045  22459579.4144                   22459577.0824
 -19117797.94948 -14893078.10946  21869439.6724                   21869437.2774
 -15881516.53147 -12365774.68044  23546051.5394                   23546051.8244
 -12720922.78546  -9910486.09843  25183583.9064                   25183582.8204
 -13107627.75048 -10198883.11746  21022044.6174                   21022041.7154
   1517940.68847   1198230.82445  22250592.0394                   22250587.3834
 -12901324.81248 -10038967.55946  21961007.7274                   21961007.6994
 -18446447.74247 -14358748.19545  22706687.1334                   22706685.7114
 11  8 25  2 27  0.0000000  0  9G30G12G29G15G21G05G02G25G26
 -12099428.68848  -9415000.26245  21948689.6334                   21948688.1254
  -4848899.12947  -3733289.55545  22184496.0634                   22184494.0354
 -20719912.57448 -16141479.06646  21564567.0004                   21564565.0634
 -17505501.13347 -13631217.07844  23237017.8284                   23237017.7894
 -14304571.69346 -11144498.19943  24882224.9144                   24882224.2074
 -14580571.65248 -11346631.61346  20741752.6254                   20741749.7074
     32084.41447     40420.74245  21967842.7034                   21967838.8014
 -14395861.16048 -11203541.34446  21676606.4534                   21676606.9224
 -20057301.68447 -15613958.97345  22400151.1254                   22400149.7734
 11  8 25  2 27 30.0000000  0  9G30G12G29G15G21G05G02G25G26
 -12010041.99648  -9345348.28545  21965699.1334                   21965697.7894
  -4718806.62547  -3631918.78945  22209251.3054                   22209249.3324
 -20746411.29348 -16162127.37146  21559524.8674                   21559522.6254
 -17554019.29347 -13669023.24644  23227784.9694                   23227784.7894
 -14312811.42646 -11150918.75443  24880657.1174                   24880656.4734
 -14477723.01248 -11266489.80946  20761324.1334                   20761320.8204
    121724.85948    110270.43745  21984901.3054                   21984896.0984
 -14314488.78548 -11140134.29746  21692091.2034                   21692091.3444
 -20092443.40647 -15641342.05545  22393463.8674                   22393462.4654
 11  8 25  2 28  0.0000000  0  9G30G12G29G15G21G05G02G25G26
 -11920178.17648  -9275324.55145  21982799.7584                   21982798.3164
  -4588457.14147  -3530347.79345  22234056.1024                   22234054.1564
 -20772701.91848 -16182613.52346  21554521.7034                   21554519.5354
 -17602479.05947 -13706783.94144  23218563.1484                   23218562.2304
 -14321052.64146 -11157340.40643  24879088.6174                   24879088.2584
 -14374490.53148 -11186048.91046  20780968.9384                   20780965.4534
    211455.60948    180190.50845  22001976.4774                   22001971.5594
 -14232616.46948 -11076337.70746  21707671.2114                   21707671.1054
 -20127279.37147 -15668486.88345  22386834.5784                   22386833.1884
 11  8 25  2 28 30.0000000  0  9G30G12G29G15G21G05G02G25G26
 -11829847.34847  -9204936.88745  21999988.8204                   21999987.4534
  -4457861.51647  -3428584.99245  22258907.3364                   22258905.8204
 -20798790.41448 -16202942.18846  21549557.0004                   21549554.6884
 -17650885.41047 -13744503.01244  23209351.5864                   23209350.4844
 -14329303.27746 -11163769.42243  24877518.9924                   24877518.2704
 -14270884.29748 -11105316.77746  20800684.1334                   20800681.1524
    301269.20747    250175.12545  22019067.0944                   22019062.5234
 -14150253.91448 -11012159.09846  21723343.8284                   21723344.0944
 -20161814.01247 -15695396.92245  22380262.9924                   22380261.9804
 11  8 25  2 29  0.0000000  0  9G30G12G29G15G21G05G02G25G26
 -11739044.64847  -9134181.54745  22017268.2894                   22017267.3244
  -4327015.60947  -3326627.18045  22283807.0394                   22283804.8524
 -20824667.08248 -16223105.78546  21544632.8834                   21544630.7304
 -17699227.80547 -13782172.23444  23200152.5004                   23200151.4964
 -14337556.63746 -11170200.48443  24875949.3284                   24875947.5004
 -14166899.37548 -11024289.56646  20820471.7194                   20820468.5664
    391173.11347    320230.13745  22036175.4534                   22036171.3874
 -14067395.80948 -10947594.35946  21739111.6094                   21739111.7034
 -20196036.30147 -15722063.55145  22373750.6334                   22373749.2894
 11  8 25  2 29 30.0000000  0  9G30G12G29G15G21G05G02G25G26
 -11647776.19147  -9063063.27045  22034636.1254                   22034634.3014
  -4195926.16847  -3224479.59445  22308752.7034                   22308750.4884
 -20850332.70348 -16243104.93846  21539749.2344                   21539746.6054
 -17747507.33247 -13819792.48444  23190964.4614                   23190964.3444
 -14345817.10546 -11176637.10943  24874376.0704                   24874375.4924
 -14062541.74648 -10942971.93846  20840330.4384                   20840327.5864
    481163.84048    390352.78945  22053299.9144                   22053295.4024
 -13984047.83248 -10882647.89846  21754972.2814                   21754972.6724
 -20229946.22347 -15748486.77745  22367297.4144                   22367296.7154
 11  8 25  2 30  0.0000000  0  9G30G12G29G15G21G05G02G25G26
 -11556042.23047  -8991582.27745  22052092.4224                   22052091.1604
  -4064593.41847  -3122142.41445  22333744.2664                   22333742.6484
 -20875782.97748 -16262936.29346  21534906.4534                   21534903.9104
 -17795717.95347 -13857359.04344  23181790.4064                   23181790.5634
 -14354082.80946 -11183077.85543  24872803.2894                   24872802.1294
 -13957811.66848 -10861364.08646  20860259.8364                   20860257.0784
    571244.19148    460545.27345  22070441.7194                   22070437.3554
 -13900209.69148 -10817319.48446  21770926.1024                   21770925.7034
 -20263537.80147 -15774661.96145  22360905.0944                   22360903.9454
 11  8 25  2 30 30.0000000  0  9G30G12G29G15G21G05G02G25G26
 -11463850.89147  -8919744.89545  22069636.1094                   22069634.6254
  -3933026.37147  -3019622.67645  22358780.7974                   22358778.6094
 -20901021.64148 -16282602.74246  21530103.2974                   21530100.6954
 -17843862.73847 -13894874.28144  23172629.0634                   23172627.2774
 -14362360.15646 -11189527.64543  24871227.9534                   24871226.7734
 -13852716.93848 -10779472.10246  20880258.9454                   20880255.7154
    661408.62148    530803.29345  22087599.1644                   22087594.8204
 -13815889.12948 -10751615.18446  21786971.9534                   21786972.0044
 -20296813.14547 -15800590.72745  22354573.1024                   22354571.3444
 11  8 25  2 31  0.0000000  0  9G30G12G29G15G21G05G02G25G26
 -11371204.05147  -8847552.56645  22087265.9694                   22087264.1524
  -3801227.71947  -2916922.46145  22383860.9774                   22383859.1334
 -20926045.34448 -16302101.70746  21525341.7114                   21525339.4494
 -17891937.80547 -13932335.20344  23163480.7194                   23163479.2154
 -14370649.12946 -11195986.49243  24869650.5394                   24869650.0354
 -13747259.69548 -10697297.62146  20900326.6094                   20900323.5434
    751658.12148    601127.58245  22104772.9844                   22104769.0084
 -13731087.57848 -10685536.07446  21803109.0944                   21803109.7384
 -20329767.93847 -15826269.71145  22348302.1724                   22348300.7114
 11  8 25  2 31 30.0000000  0  9G30G12G29G15G21G05G02G25G26
 -11278100.85547  -8775004.64145  22104983.0314                   22104981.2504
  -3669197.19547  -2814041.55545  22408985.7734                   22408984.0594
 -20950848.13348 -16321428.52346  21520621.7584                   21520619.1914
 -17939936.91447 -13969736.94144  23154346.2974                   23154346.3094
 -14378946.83247 -11202452.14543  24868071.5004                   24868071.0314
 -13641438.86348 -10614839.83246  20920463.5704                   20920460.4414
    841996.53148    671521.14845  22121964.2734                   22121960.0044
 -13645803.72748 -10619081.14146  21819338.1254                   21819337.8714
 -20362395.09847 -15851693.40645  22342093.4144                   22342091.9574
 11  8 25  2 32  0.0000000  0  9G30G12G29G15G21G05G02G25G26
 -11184544.45747  -8702103.56345  22122786.6094                   22122784.6484
  -3536938.13347  -2710982.57445  22434153.9614                   22434151.8954
 -20975428.58248 -16340582.08246  21515944.0394                   21515941.5004
 -17987857.51647 -14007077.49644  23145226.9694                   23145226.5744
 -14387254.46146 -11208925.52343  24866489.6414                   24866489.0354
 -13535257.32848 -10532100.96146  20940669.1094                   20940666.1844
    932423.36347    741983.61745  22139171.7034                   22139167.4064
 -13560040.34448 -10552252.55146  21835658.0864                   21835658.1214
 -20394691.76647 -15876859.57045  22335947.3364                   22335946.0634
 11  8 25  2 32 30.0000000  0  9G30G12G29G15G21G05G02G25G26
 -11090536.37147  -8628850.53145  22140675.1884                   22140674.0824
  -3404452.86747  -2607747.32845  22459365.0634                   22459363.0904
 -20999783.30148 -16359559.74646  21511309.7504                   21511306.9064
 -18035695.92647 -14044354.03944  23136123.8444                   23136122.5044
 -14395571.94546 -11215406.55543  24864907.6094                   24864906.7304
 -13428716.48048 -10449082.10946  20960943.3054                   20960940.3874
   1022939.69947    812515.82045  22156396.5634                   22156391.6914
 -13473798.53948 -10485051.16046  21852069.3134                   21852069.4144
 -20426653.35247 -15901764.62145  22329865.1334                   22329863.8674
 11  8 25  2 33  0.0000000  0  9G30G12G29G15G21G05G02G25G26
 -10996080.51247  -8555248.59045  22158649.3284                   22158648.2774
  -3271745.60947  -2504339.10545  22484618.0164                   22484616.3554
 -21023911.18848 -16378360.66446  21506717.7194                   21506715.6254
 -18083450.39147 -14081565.14544  23127036.3444                   23127034.6374
 -14403900.68446 -11221896.35943  24863322.9144                   24863321.6174
 -13321820.30148 -10365786.38746  20981284.9614                   20981282.2504
   1113544.75447    883117.15645  22173637.8674                   22173633.7034
 -13387081.72348 -10417479.62946  21868571.1254                   21868571.2664
 -20458277.33647 -15926406.63345  22323847.4144                   22323846.2194
 11  8 25  2 33 30.0000000  0  9G30G12G29G15G21G05G02G25G26
 -10901181.76247  -8481301.55145  22176708.2424                   22176706.9414
  -3138821.33647  -2400761.77745  22509912.8204                   22509911.0514
 -21047812.12948 -16396984.73846  21502169.9304                   21502167.7344
 -18131119.88347 -14118710.03545  23117965.1094                   23117964.3164
 -14412243.71546 -11228397.30543  24861734.9614                   24861733.8674
 -13214573.52748 -10282217.46946  21001693.9774                   21001690.7544
   1204236.62547    953786.14845  22190895.7194                   22190891.5204
 -13299894.30948 -10349541.40246  21885162.4534                   21885162.4614
 -20489562.51647 -15950784.61345  22317893.5554                   22317892.3094
 11  8 25  2 34  0.0000000  0  9G30G12G29G15G21G05G02G25G26
 -10805841.54347  -8407010.49245  22194850.9224                   22194849.2424
  -3005682.52747  -2297017.28545  22535248.4064                   22535246.6524
 -21071482.85248 -16415429.42246  21497665.3524                   21497663.0314
 -18178700.12547 -14155785.38345  23108910.6334                   23108910.2894
 -14420600.62946 -11234909.07443  24860144.4694                   24860143.5204
 -13106977.16048 -10198376.14846  21022168.2424                   21022165.2424
   1295016.64147   1024523.82445  22208170.7814                   22208166.5704
 -13212237.44548 -10281237.37546  21901842.7894                   21901843.2304
 -20520504.04747 -15974894.83245  22312005.5634                   22312004.4534
 11  8 25  2 34 30.0000000  0  9G30G12G29G15G21G05G02G25G26
 -10710059.36747  -8332375.06645  22213077.6484                   22213076.6914
  -2872328.78147  -2193105.32045  22560624.9304                   22560623.2274
 -21094917.95348 -16433690.49646  21493205.6954                   21493203.9494
 -18226185.15247 -14192786.53145  23099874.3984                   23099873.5274
 -14428968.48846 -11241429.37143  24858552.0474                   24858551.7344
 -12999030.77348 -10114262.07846  21042709.8364                   21042706.6174
   1385888.38348   1095332.96145  22225463.3674                   22225458.6414
 -13124110.11348 -10212566.72746  21918613.0944                   21918613.3634
 -20551095.31347 -15998732.11345  22306184.4534                   22306183.0864
 11  8 25  2 35  0.0000000  0  9G30G12G29G15G21G05G02G25G26
 -10613838.58647  -8257397.85945  22231388.2664                   22231386.4924
  -2738764.49247  -2089029.29745  22586041.4844                   22586039.8594
 -21118115.50048 -16451766.46546  21488791.4534                   21488789.4884
 -18273572.49247 -14229711.56344  23090856.8134                   23090855.4264
 -14437348.77346 -11247959.35543  24856957.7194                   24856956.3594
 -12890737.42648 -10029877.64146  21063317.3134                   21063314.2734
   1476851.49248   1166213.29745  22242773.0634                   22242768.2544
 -13035515.29748 -10143531.82046  21935472.0164                   21935472.1684
 -20581333.35247 -16022294.15245  22300430.4384                   22300428.7734
 11  8 25  2 35 30.0000000  0  9G30G12G29G15G21G05G02G25G26
 -10517183.27048  -8182082.06345  22249781.4614                   22249779.3524
  -2604993.77747  -1984792.41845  22611497.6174                   22611495.4494
 -21141074.66048 -16469656.67246  21484422.4454                   21484419.6604
 -18320860.69947 -14266559.35245  23081858.2424                   23081856.7584
 -14445743.34046 -11254500.43843  24855360.6414                   24855358.6684
 -12782100.94548  -9945225.82446  21083990.4774                   21083987.0434
   1567904.78948   1237163.90245  22260099.7194                   22260095.3164
 -12946456.67648 -10074135.50846  21952419.5944                   21952419.6054
 -20611215.85547 -16045579.13745  22294743.6954                   22294742.5354
 11  8 25  2 36  0.0000000  0  9G30G12G29G15G21G05G02G25G26
 -10420093.10947  -8106427.41445  22268257.0554                   22268255.0274
  -2471016.55547  -1880394.60245  22636992.2424                   22636989.7624
 -21163789.87948 -16487356.80946  21480099.7344                   21480097.2664
 -18368043.42247 -14303324.95744  23072879.2504                   23072878.5664
 -14454149.80946 -11261050.83243  24853761.1334                   24853758.5704
 -12673120.75048  -9860306.17646  21104728.7194                   21104725.7194
   1659051.81647   1308187.55545  22277444.6094                   22277440.1604
 -12856933.38348 -10004377.10546  21969455.0084                   21969455.2704
 -20640736.37547 -16068582.08245  22289126.4694                   22289124.6644
 11  8 25  2 36 30.0000000  0  9G30G12G29G15G21G05G02G25G26
 -10322575.92247  -8030440.01245  22286813.5944                   22286812.0274
  -2336841.14147  -1775842.35945  22662524.6174                   22662523.0474
 -21186264.21148 -16504869.23046  21475822.9224                   21475820.3204
 -18415122.94547 -14340010.16844  23063919.9924                   23063919.0274
 -14462573.98846 -11267615.03942  24852157.2584                   24852155.9344
 -12563804.49648  -9775124.66846  21125530.7974                   21125527.5904
   1750287.42247   1379280.22345  22294806.1724                   22294801.4454
 -12766952.97748  -9934262.51646  21986577.4534                   21986577.8524
 -20669896.52747 -16091304.21545  22283577.2894                   22283575.7584
 11  8 25  2 37  0.0000000  0  9G30G12G29G15G21G05G02G25G26
 -10224630.01647  -7954118.53545  22305451.8524                   22305450.3834
  -2202466.17647  -1671134.62545  22688095.7974                   22688093.6884
 -21208490.85248 -16522188.66046  21471593.1884                   21471590.9694
 -18462092.10247 -14376609.37544  23054982.1804                   23054980.8094
 -14471011.94145 -11274190.03142  24850550.6024                   24850549.9694
 -12454150.45348  -9689679.93846  21146397.1644                   21146393.8954
   1841616.39147   1450445.63345  22312185.5864                   22312181.0984
 -12676513.42248  -9863790.13746  22003787.8364                   22003787.9304
 -20698688.40248 -16113739.36745  22278097.6254                   22278096.6484
 11  8 25  2 37 30.0000000  0  9G30G12G29G15G21G05G02G25G26
 -10126260.42247  -7877466.92645  22324171.3444                   22324169.9654
  -2067897.10547  -1566275.65245  22713703.5164                   22713701.3874
 -21230469.73048 -16539315.02046  21467411.3134                   21467408.7464
 -18508949.84047 -14413121.75844  23046065.3984                   23046063.9064
 -14479466.71145 -11280777.96142  24848941.5084                   24848941.6294
 -12344163.24248  -9603975.62146  21167326.8984                   21167323.6254
   1933036.78947   1521682.29745  22329582.1954                   22329577.7464
 -12585619.23048  -9792963.50446  22021084.3524                   22021084.6294
 -20727110.67247 -16135886.52345  22272689.6564                   22272688.0984
 11  8 25  2 38  0.0000000  0  9G30G12G29G15G21G05G02G25G26
 -10027467.07047  -7800485.11745  22342971.0164                   22342969.9184
  -1933134.41447  -1461265.79345  22739348.0554                   22739345.7384
 -21252195.67248 -16556244.28546  21463276.6884                   21463273.7974
 -18555690.15647 -14449542.64145  23037171.0084                   23037170.1094
 -14487935.79746 -11287377.12942  24847329.9064                   24847330.5164
 -12233842.30548  -9518011.24646  21188320.4924                   21188317.5704
   2024551.91048   1592992.76245  22346996.7894                   22346992.3554
 -12494269.93048  -9721782.23846  22038467.7894                   22038467.7194
 -20755156.90647 -16157740.68045  22267352.6254                   22267350.9654
 11  8 25  2 38 30.0000000  0  9G30G12G29G15G21G05G02G25G26
  -9928259.21947  -7723180.31645  22361849.8284                   22361848.3794
  -1798187.50047  -1356112.38345  22765027.1414                   22765025.0124
 -21273672.87948 -16572979.72746  21459189.5004                   21459186.9414
 -18602316.52747 -14485874.75845  23028298.5394                   23028296.4304
 -14496426.50046 -11293993.14142  24845714.9534                   24845713.8094
 -12123196.89848  -9431794.03546  21209375.3204                   21209372.2114
   2116155.47347   1664372.16445  22364428.8364                   22364423.9184
 -12402474.42648  -9650253.28546  22055935.5164                   22055935.8914
 -20782830.12147 -16179304.14145  22262086.3834                   22262084.7894
 11  8 25  2 39  0.0000000  0  9G30G12G29G15G21G05G02G25G26
  -9828634.68447  -7645550.81345  22380807.2814                   22380805.6994
  -1663054.68047  -1250814.11745  22790742.0704                   22790740.3014
 -21294893.84848 -16589515.51246  21455151.4774                   21455148.6644
 -18648821.29347 -14522112.11345  23019448.3284                   23019446.8714
 -14504934.19546 -11300622.33242  24844095.3284                   24844094.0634
 -12012224.82048  -9345322.27746  21230492.7664                   21230489.6724
   2207852.67647   1735824.52045  22381877.9694                   22381873.5394
 -12310230.14148  -9578374.62946  22073489.2894                   22073489.5204
 -20810121.89847 -16200570.39845  22256892.8284                   22256891.3984
 11  8 25  2 39 30.0000000  0  9G30G12G29G15G21G05G02G25G26
  -9728594.80147  -7567597.65245  22399844.2734                   22399843.1024
  -1527737.35947  -1145372.09045  22816492.5634                   22816490.5234
 -21315854.91848 -16605848.78146  21451162.9224                   21451159.7934
 -18695199.59447 -14558250.91045  23010622.6564                   23010621.0634
 -14513458.18446 -11307264.27743  24842473.7114                   24842472.2814
 -11900926.76648  -9258596.51246  21251672.1254                   21251668.9614
   2299645.56247   1807351.43745  22399345.6024                   22399341.0394
 -12217538.10248  -9506147.07046  22091127.8594                   22091128.5664
 -20837027.42247 -16221535.68045  22251773.0944                   22251771.4454
 11  8 25  2 40  0.0000000  0 10G18G30G12G29G15G21G05G02G25G26
 -14235866.94956 -11083420.06653  24752188.0394                   24752189.3874
  -9628141.83247  -7489322.62945  22418960.1414                   22418958.8324
  -1392238.32447  -1039788.46145  22842277.0704                   22842274.9144
 -21336553.19148 -16621977.27046  21447223.8984                   21447221.1524
 -18741447.85247 -14594288.39845  23001822.1174                   23001820.1024
 -14521998.43046 -11313918.93443  24840847.6724                   24840845.5354
 -11789304.75048  -9171618.31646  21272913.1094                   21272909.9184
   2391534.85947   1878953.48045  22416831.4924                   22416826.9654
 -12124400.05947  -9433571.98846  22108851.6644                   22108851.8484
 -20863542.15247 -16242196.44945  22246727.2584                   22246725.9264
 11  8 25  2 40 30.0000000  0 10G18G30G12G29G15G21G05G02G25G26
 -14277519.90246 -11115876.64143  24744261.2504                   24744263.2854
  -9527283.53547  -7410731.75845  22438152.9224                   22438150.9774
  -1256565.55947   -934069.43845  22868094.9064                   22868092.6914
 -21356991.60248 -16637903.27046  21443334.4064                   21443331.3634
 -18787568.02347 -14630226.07045  22993045.4454                   22993043.5124
 -14530560.48046 -11320590.52043  24839219.3284                   24839217.1134
 -11677366.17248  -9084393.44146  21294214.2344                   21294211.1174
   2483516.01247   1950627.09845  22434335.0554                   22434330.4844
 -12030823.38748  -9360655.11746  22126658.6174                   22126658.9574
 -20889667.88347 -16262554.10945  22241755.4454                   22241753.7344
 11  8 25  2 41  0.0000000  0 10G18G30G12G29G15G21G05G02G25G26
 -14319008.89146 -11148205.49643  24736366.9304                   24736368.1604
  -9426024.14147  -7331828.33645  22457421.8134                   22457420.1414
  -1120723.63747   -828218.63345  22893944.6484                   22893942.1334
 -21377168.52048 -16653625.51646  21439495.2424                   21439492.1374
 -18833558.45747 -14666062.64845  22984293.6884                   22984291.9774
 -14539146.04746 -11327280.48043  24837584.8444                   24837583.6684
 -11565114.69548  -8996924.75446  21315574.8834                   21315571.8674
   2575588.09447   2022371.57445  22451856.2344                   22451851.3244
 -11936811.95348  -9287399.46546  22144548.6414                   22144548.8404
 -20915402.45748 -16282606.95745  22236858.6484                   22236856.4454
 11  8 25  2 41 30.0000000  0 10G18G30G12G29G15G21G05G02G25G26
 -14360336.30546 -11180408.42243  24728502.2114                   24728502.8444
  -9324369.95347  -7252617.28945  22476766.1334                   22476764.4304
   -984719.05547   -722241.07045  22919825.9144                   22919823.1764
 -21397085.50848 -16669145.21146  21435704.6254                   21435702.2814
 -18879419.66447 -14701798.54745  22975566.3054                   22975565.1724
 -14547759.47746 -11333992.17243  24835946.1724                   24835944.3404
 -11452556.63748  -8909217.16446  21336994.2344                   21336991.0744
   2667747.56247   2094184.13745  22469392.8134                   22469388.8054
 -11842371.82848  -9213809.77746  22162519.7734                   22162520.1724
 -20940745.99247 -16302355.10245  22232035.9924                   22232033.6374
 11  8 25  2 42  0.0000000  0 10G18G30G12G29G15G21G05G02G25G26
 -14401500.02046 -11212483.81343  24720668.4454                   24720669.6994
  -9222323.21947  -7173100.35945  22496184.8674                   22496183.2974
   -848554.06347   -616138.51245  22945737.1884                   22945735.2234
 -21416739.31648 -16684459.84846  21431964.8594                   21431961.7704
 -18925147.62947 -14737430.60245  22966865.1414                   22966863.6024
 -14556400.58246 -11340725.36343  24834301.4224                   24834299.3524
 -11339693.93448  -8821272.20746  21358471.2734                   21358468.2424
   2759995.74247   2166065.84045  22486947.4694                   22486943.1334
 -11747504.76248  -9139887.41046  22180572.5634                   22180572.7934
 -20965694.25047 -16321795.24645  22227288.3054                   22227286.3634
 11  8 25  2 42 30.0000000  0 10G18G30G12G29G15G21G05G02G25G26
 -14442492.44546 -11244425.71143  24712866.9384                   24712868.9264
  -9119880.66447  -7093274.99645  22515678.6954                   22515677.8524
   -712226.20347   -509909.05945  22971679.1484                   22971677.7814
 -21436121.65248 -16699562.93046  21428276.2894                   21428273.7504
 -18970733.47747 -14772951.91845  22958190.1724                   22958188.2974
 -14565063.84047 -11347475.84043  24832652.9144                   24832650.9494
 -11226522.84848  -8733086.94146  21380007.0944                   21380003.9144
   2852339.13747   2238021.73045  22504519.9064                   22504515.3524
 -11652207.09048  -9065629.50046  22198707.3834                   22198707.4264
 -20990237.53147 -16340919.82445  22222617.7664                   22222615.8714
 11  8 25  2 43  0.0000000  0 10G18G30G12G29G15G21G05G02G25G26
 -14483309.13346 -11276230.68042  24705099.9224                   24705100.7974
  -9017041.39547  -7013140.52045  22535248.7034                   22535247.2584
   -575734.55947   -403551.96545  22997653.1564                   22997650.9654
 -21455226.13748 -16714449.51246  21424640.8674                   21424638.4454
 -19016169.88347 -14808356.80145  22949543.7664                   22949542.0634
 -14573745.98846 -11354241.03943  24831000.3054                   24830998.9264
 -11113041.87548  -8644660.20746  21401601.7974                   21401598.5984
   2944781.85547   2310055.01645  22522110.9454                   22522106.9344
 -11556477.58248  -8991035.07846  22216923.8754                   22216923.9694
 -21014368.80147 -16359723.36345  22218025.8204                   22218023.8984
 11  8 25  2 43 30.0000000  0 10G18G30G12G29G15G21G05G02G25G26
 -16099378.14846 -12535505.01242  24397572.6804                   24397573.5984
 -10489233.00447  -8160302.82845  22255099.9534                   22255098.4534
  -2014505.71947  -1524672.37545  22723863.5164                   22723861.8714
 -23049479.14548 -17956724.57446  21121264.7504                   21121261.8014
 -20636883.80547 -16071250.65645  22641132.2344                   22641130.3244
 -16157875.77046 -12588627.80544  24529550.6254                   24529548.7624
 -12574678.05148  -9783597.48846  21123461.3054                   21123458.1724
   1461899.08647   1154561.95745  22239927.6094                   22239923.0984
 -13035743.67648 -10143709.98446  21935428.7504                   21935428.9024
 -22613513.50447 -17605810.08245  21913718.3054                   21913717.0704
 11  8 25  2 44  0.0000000  0 10G18G30G12G29G15G21G05G02G25G26
 -16139849.87546 -12567041.22743  24389871.1804                   24389872.0824
 -10385619.84047  -8079565.29745  22274816.8204                   22274815.6724
  -1877706.28147  -1418075.44545  22749895.3364                   22749894.0704
 -23068032.00048 -17971181.31346  21117734.4384                   21117731.6024
 -20682023.85947 -16106424.60245  22632542.0004                   22632539.9804
 -16166607.70346 -12595431.80543  24527889.0234                   24527887.2344
 -12460596.09448  -9694702.45746  21145170.8674                   21145167.5474
   1554530.25047   1226742.09045  22257554.9694                   22257550.1174
 -12939169.00048 -10068457.01646  21953806.5394                   21953807.1484
 -22636821.36748 -17623972.01245  21909283.0554                   21909280.8674
 11  8 25  2 44 30.0000000  0 10G18G30G12G29G15G21G05G02G25G26
 -16180145.21146 -12598439.92643  24382202.3674                   24382203.3594
 -10281621.81347  -7998527.89145  22294606.8594                   22294605.4654
  -1740755.50047  -1311360.60245  22775956.6414                   22775954.7774
 -23086303.52748 -17985418.85946  21114257.0474                   21114254.4454
 -20727008.68847 -16141477.61745  22623981.2114                   22623979.4924
 -16175363.76246 -12602254.60943  24526221.9224                   24526220.8554
 -12346215.19548  -9605574.47346  21166936.4224                   21166933.4654
   1647258.85547   1298998.14145  22275200.3984                   22275195.9304
 -12842173.36348  -9992876.02746  21972264.0474                   21972264.6334
 -22659710.07847 -17641807.31345  21904927.4694                   21904925.8404
 11  8 25  2 45  0.0000000  0 10G18G30G12G29G15G21G05G02G25G26
 -16220262.67246 -12629700.02343  24374568.8674                   24374569.4384
 -10177241.74647  -7917192.78545  22314470.1094                   22314468.5124
  -1603656.46147  -1204530.23445  22802045.8524                   22802044.5634
 -23104290.80148 -17999434.89546  21110834.1644                   21110832.2504
 -20771835.05547 -16176407.15245  22615451.4924                   22615449.4574
 -16184143.85546 -12609096.15643  24524551.5004                   24524550.4264
 -12231537.77048  -9516215.44946  21188759.0084                   21188755.6484
   1740085.15647   1371330.31645  22292864.5474                   22292860.5944
 -12744758.97348  -9916968.73846  21990801.2734                   21990801.9414
 -22682175.80148 -17659313.01645  21900652.4304                   21900650.5204
 11  8 25  2 45 30.0000000  0 10G18G30G12G29G15G21G05G02G25G26
 -16260199.39846 -12660819.25043  24366968.3754                   24366969.4774
 -10072480.89547  -7835560.99245  22334405.4064                   22334403.9534
  -1466410.61347  -1097585.46145  22828162.9224                   22828161.2034
 -23121989.74648 -18013226.26646  21107466.1884                   21107463.3094
 -20816498.41447 -16211209.66445  22606952.3204                   22606950.2774
 -16192946.77047 -12615955.50843  24522876.4384                   24522874.5904
 -12116564.43448  -9426625.84446  21210637.4534                   21210634.6254
   1833011.15647   1443740.17245  22310548.0554                   22310543.4414
 -12646927.00048  -9840736.05546  22009417.9774                   22009418.5474
 -22704213.75448 -17676485.38745  21896458.2114                   21896456.5904
 11  8 25  2 46  0.0000000  0 10G18G30G12G29G15G21G05G02G25G26
 -16299956.75046 -12691798.76643  24359402.7814                   24359402.7194
  -9967344.76647  -7753636.75445  22354412.4844                   22354410.7734
  -1329023.35947   -990530.50445  22854307.0554                   22854305.1214
 -23139400.68048 -18026793.20746  21104153.2894                   21104151.2034
 -20860997.96947 -16245884.52045  22598484.3524                   22598481.9454
 -16201775.60947 -12622835.05944  24521196.7424                   24521195.1484
 -12001300.39548  -9336809.71146  21232571.4064                   21232568.3984
   1926035.02047   1516226.31245  22328249.7814                   22328245.5314
 -12548682.55948  -9764181.96546  22028114.0234                   22028114.1174
 -22725823.10248 -17693323.78945  21892346.5554                   21892344.5904
 11  8 25  2 46 30.0000000  0 10G18G30G12G29G15G21G05G02G25G26
 -16339533.45346 -12722637.47343  24351871.2114                   24351871.6724
  -9861836.34047  -7671422.42645  22374490.0704                   22374488.5434
  -1191497.93047   -883367.85545  22880477.4774                   22880475.1254
 -23156521.59448 -18040134.15646  21100895.2114                   21100892.5704
 -20905330.88747 -16280429.55145  22590047.3134                   22590045.7114
 -16210630.95347 -12629735.27044  24519511.7274                   24519509.5664
 -11885748.19948  -9246769.03946  21254560.6024                   21254557.7774
   2019156.69947   1588788.64845  22345970.3364                   22345965.8054
 -12450028.28548  -9687308.53546  22046887.0634                   22046887.3094
 -22747000.48447 -17709825.59045  21888316.5634                   21888314.7304
 11  8 25  2 47  0.0000000  0 10G18G30G12G29G15G21G05G02G25G26
 -16378926.39546 -12753333.02343  24344374.4144                   24344375.5274
  -9755956.63747  -7588918.78945  22394638.3054                   22394636.4224
  -1053835.45347   -776098.44145  22906673.3674                   22906671.4844
 -23173347.57448 -18053245.29746  21097693.3594                   21097690.4344
 -20949491.82847 -16314840.57045  22581644.0164                   22581642.5434
 -16219511.38346 -12636655.01644  24517821.7424                   24517819.7774
 -11769908.37948  -9156504.25846  21276603.9694                   21276601.0554
   2112378.54347   1661429.05145  22363710.2274                   22363705.8484
 -12350964.86348  -9610116.28546  22065738.1954                   22065738.7464
 -22767740.68448 -17725986.71145  21884369.8054                   21884367.8094
 11  8 25  2 47 30.0000000  0 10G18G30G12G29G15G21G05G02G25G26
 -16418136.55946 -12783886.12143  24336912.7274                   24336913.9614
  -9649710.63347  -7506129.72345  22414855.7664                   22414854.5784
   -916041.04347   -668726.20345  22932894.7584                   22932892.9694
 -23189878.59448 -18066126.59046  21094547.6564                   21094544.9264
 -20993479.93847 -16349116.91045  22573273.2734                   22573271.3954
 -16228419.60246 -12643596.39143  24516125.7034                   24516124.4064
 -11653785.43848  -9066018.85546  21298701.3914                   21298698.6334
   2205699.28547   1734146.51645  22381468.4774                   22381463.6844
 -12251496.83648  -9532608.76246  22084665.9384                   22084666.5744
 -22788042.12548 -17741805.96145  21880506.8364                   21880504.7234
 11  8 25  2 48  0.0000000  0 10G18G30G12G29G15G21G05G02G25G26
 -16457161.01246 -12814294.53943  24329486.4844                   24329487.7114
  -9543099.52347  -7423056.14545  22435143.5314                   22435142.4694
   -778116.11347   -561252.26645  22959141.2344                   22959139.4494
 -23206110.41448 -18078774.73846  21091458.8914                   21091455.8954
 -21037290.18847 -16383254.67245  22564936.5704                   22564933.9804
 -16237354.09446 -12650558.26243  24514425.1644                   24514424.6174
 -11537379.95748  -8975313.29346  21320852.9454                   21320849.7194
   2299120.69547   1806942.41445  22399245.8444                   22399241.1214
 -12151625.15648  -9454786.69146  22103671.1024                   22103671.3984
 -22807899.97748 -17757279.54745  21876727.7034                   21876725.8164
 11  8 25  2 48 30.0000000  0 10G18G30G12G29G15G21G05G02G25G26
 -16495996.85246 -12844556.00443  24322096.0554                   24322097.3164
  -9436124.44147  -7339698.97745  22455500.0554                   22455498.5824
   -640061.95347   -453677.63344  22985412.1644                   22985410.1214
 -23222039.39848 -18091186.91846  21088427.4614                   21088425.2934
 -21080918.17647 -16417250.41045  22556634.7424                   22556632.3874
 -16246313.59046 -12657539.57443  24512720.3524                   24512719.2854
 -11420692.93448  -8884388.34446  21343057.4844                   21343054.8634
   2392645.09047   1879818.57045  22417043.0084                   22417038.1804
 -12051350.69548  -9376650.76646  22122752.7114                   22122752.4924
 -22827308.87547 -17772403.31345  21873034.5944                   21873032.3284
 11  8 25  2 49  0.0000000  0 10G18G30G12G29G15G21G05G02G25G26
 -16534649.42246 -12874674.65643  24314740.4924                   24314740.9924
  -9328795.35247  -7256065.95345  22475923.8054                   22475922.4144
   -501888.28547   -346009.87945  23011705.2814                   23011703.6254
 -23237669.62948 -18103366.28546  21085453.1954                   21085450.3484
 -21124367.11747 -16451106.61745  22548366.1414                   22548364.3324
 -16255305.63346 -12664546.32043  24511009.3834                   24511007.7544
 -11303733.44148  -8793251.08246  21365314.2034                   21365311.1604
   2486266.29347   1952770.15245  22434858.3134                   22434854.3674
 -11950682.98048  -9298208.41845  22141909.3204                   22141909.5594
 -22846272.32448 -17787179.97345  21869425.9064                   21869423.6644
 11  8 25  2 49 30.0000000  0 10G18G30G12G29G15G21G05G02G25G26
 -16573114.52046 -12904647.21143  24307420.7274                   24307421.8324
  -9221111.63747  -7172156.57845  22496415.7974                   22496414.2114
   -363594.94547   -238248.87945  23038022.3364                   23038020.0314
 -23252994.88748 -18115308.01646  21082536.7664                   21082533.8714
 -21167630.77047 -16484818.46145  22540133.3524                   22540131.1484
 -16264326.84446 -12671575.76243  24509291.7424                   24509290.7234
 -11186500.57048  -8701900.78946  21387623.0554                   21387619.7814
   2579988.26647   2025800.25045  22452693.2424                   22452688.4844
 -11849621.14848  -9219458.96546  22161140.7274                   22161141.3634
 -22864783.64547 -17801604.31645  21865903.2114                   21865900.9184
 11  8 25  2 50  0.0000000  0 10G18G30G12G29G15G21G05G02G25G26
 -16611391.51246 -12934473.22743  24300136.5004                   24300137.9964
  -9113077.15247  -7087973.87145  22516973.6334                   22516972.6994
   -225185.64147   -130397.52745  23064360.5394                   23064358.6024
 -23268013.39547 -18127010.72746  21079678.8914                   21079676.3984
 -21210706.55147 -16518383.89145  22531936.1564                   22531933.6994
 -16273378.67246 -12678629.02343  24507569.4694                   24507568.0704
 -11068997.47748  -8610339.94546  21409983.1804                   21409980.1334
   2673810.27347   2098908.30145  22470546.8134                   22470542.3054
 -11748168.67648  -9140405.10546  22180446.2664                   22180446.7624
 -22882840.15647 -17815674.26245  21862466.9844                   21862464.8874
 11  8 25  2 50 30.0000000  0 10G18G30G12G29G15G21G05G02G25G26
 -16649480.08646 -12964152.42243  24292888.6174                   24292889.9384
  -9004695.76647  -7003520.87945  22537598.2034                   22537596.7464
    -86664.28547    -22458.85545  23090720.2424                   23090718.7304
 -23282724.81648 -18138474.12546  21076879.2274                   21076876.6644
 -21253592.32447 -16551801.28545  22523775.1724                   22523773.0634
 -16282462.66846 -12685707.36343  24505840.7344                   24505839.9804
 -10951227.68848  -8518571.27746  21432393.8054                   21432391.0124
   2767732.04747   2172094.09445  22488419.8364                   22488415.1954
 -11646329.28148  -9061049.75445  22199825.8674                   22199825.6844
 -22900439.72347 -17829388.15245  21859117.9924                   21859115.6994
 11  8 25  2 51  0.0000000  0 10G18G30G12G29G15G21G05G02G25G26
 -16687373.44946 -12993679.52343  24285677.6644                   24285678.5084
  -8895964.80947  -6918795.48445  22558289.1954                   22558288.1174
     51971.80147     85569.19945  23117102.0314                   23117099.7114
 -23297120.27747 -18149691.32846  21074139.5394                   21074137.3094
 -21296278.93447 -16585063.49245  22515652.1954                   22515649.6134
 -16291573.31646 -12692806.43843  24504107.7114                   24504105.5394
 -10833188.06648  -8426592.35246  21454855.9774                   21454853.3094
   2861759.64147   2245362.34845  22506312.8134                   22506307.7544
 -11544099.77348  -8981390.41846  22219279.4924                   22219280.0394
 -22917573.04747 -17842738.73845  21855857.5084                   21855854.9384
 11  8 25  2 51 30.0000000  0 10G18G30G12G29G15G21G05G02G25G26
 -16725072.69946 -13023055.34442  24278502.8204                   24278503.6454
  -8786889.34047  -6833801.64545  22579045.2194                   22579044.3014
    190717.49247    193682.68045  23143504.8914                   23143502.6764
 -23311199.56648 -18160662.14846  21071460.8204                   21071458.0594
 -21338765.93047 -16618170.17645  22507567.0234                   22507564.7504
 -16300713.15646 -12699928.28943  24502368.8984                   24502366.1884
 -10714882.86748  -8334406.49246  21477368.7974                   21477366.0664
   2955891.66047   2318711.96945  22524225.4614                   22524220.5434
 -11441485.01248  -8901430.87545  22238806.1484                   22238806.8634
 -22934239.02047 -17855725.14845  21852685.7734                   21852683.6884
 11  8 25  2 52  0.0000000  0 10G18G30G12G29G15G21G05G02G25G26
 -16762579.24646 -13052281.01642  24271365.9454                   24271366.1024
  -8677474.77047  -6748543.56345  22599866.6724                   22599865.4574
    329567.43747    301877.39845  23169927.0474                   23169924.7074
 -23324962.50848 -18171386.49246  21068841.6334                   21068838.5274
 -21381052.35947 -16651120.56345  22499519.9454                   22499518.5314
 -16309885.00446 -12707075.08243  24500623.1644                   24500620.8754
 -10596317.09448  -8242017.58246  21499931.4224                   21499927.6914
   3050125.68447   2392141.09045  22542157.1334                   22542152.5314
 -11338490.19148  -8821175.18845  22258405.3834                   22258405.7424
 -22950436.69947 -17868346.65645  21849603.5084                   21849601.3444
 11  8 25  2 52 30.0000000  0 10G18G30G12G29G15G21G05G02G25G26
 -16799892.49246 -13081356.05143  24264265.2194                   24264265.6254
  -8567725.52047  -6663024.67645  22620751.1174                   22620749.6884
    468516.77047    410149.58245  23196368.2034                   23196366.2934
 -23338408.08248 -18181863.52046  21066282.8284                   21066280.5514
 -21423135.90647 -16683912.84045  22491511.9064                   22491509.8444
 -16319090.94546 -12714248.48043  24498871.1174                   24498868.8484
 -10477494.45748  -8149428.50846  21522542.3674                   21522539.3244
   3144461.35247   2465649.39845  22560108.7344                   22560104.1954
 -11235119.16448  -8740626.35545  22278076.7194                   22278076.7464
 -22966164.20347 -17880601.81345  21846610.7114                   21846608.6334
 11  8 25  2 53  0.0000000  0 10G18G30G12G29G15G21G05G02G25G26
 -16837006.82846 -13110276.12143  24257203.5944                   24257202.9264
  -8457639.17647  -6577243.14545  22641699.7194                   22641698.4144
    607568.18447    518501.28544  23222828.2194                   23222826.2624
 -23351528.58648 -18192087.25846  21063786.1334                   21063782.9804
 -21465008.73047 -16716540.94945  22483543.7974                   22483541.7424
 -16328325.48046 -12721444.12943  24497113.5784                   24497111.9454
 -10358412.23448  -8056637.16046  21545202.7664                   21545199.7344
   3238904.29347   2539241.29345  22578080.9534                   22578076.0434
 -11131369.54747  -8659782.50445  22297819.1884                   22297819.8134
 -22981413.29747 -17892484.16845  21843708.4774                   21843706.3554
 11  8 25  2 53 30.0000000  0 10G18G30G12G29G15G21G05G02G25G26
 -16873924.30546 -13139042.79343  24250177.3914                   24250177.3714
  -8347222.27747  -6491204.02745  22662711.3054                   22662710.4064
    746715.14147    626927.43744  23249307.1414                   23249305.3984
 -23364325.16447 -18202058.58246  21061351.0704                   21061348.0164
 -21506670.81347 -16749004.84445  22475615.5944                   22475613.4734
 -16337593.05146 -12728665.50843  24495349.9144                   24495346.8594
 -10239075.98848  -7963647.87946  21567911.9924                   21567908.6724
   3333451.77747   2612914.64845  22596072.7974                   22596068.1844
 -11027247.41847  -8578648.38345  22317633.1724                   22317633.3674
 -22996183.56647 -17903993.40645  21840897.8524                   21840896.1954
 11  8 25  2 54  0.0000000  0 10G18G30G12G29G15G21G05G02G25G26
 -16910638.09046 -13167650.72743  24243190.7504                   24243191.0704
  -8236472.28147  -6404905.33645  22683786.6254                   22683785.2234
    885960.39147    735430.19944  23275805.5234                   23275802.8324
 -23376789.92248 -18211771.33646  21058978.8284                   21058976.7464
 -21548113.55147 -16781297.82445  22467728.9304                   22467726.9804
 -16346888.18446 -12735908.37143  24493581.4844                   24493579.1454
 -10119482.74648  -7870458.33646  21590669.9144                   21590666.8594
   3428109.57047   2686673.96545  22614084.9614                   22614080.7504
 -10922749.98048  -8497221.81645  22337518.2814                   22337518.5664
 -23010466.40647 -17915122.84045  21838179.6334                   21838177.8364
 11  8 25  2 54 30.0000000  0 10G18G30G12G29G15G21G05G02G25G26
 -16947156.12546 -13196106.14843  24236241.8204                   24236241.6804
  -8125401.33247  -6318356.57845  22704922.2504                   22704920.7114
   1025291.78947    844000.08244  23302318.7504                   23302316.7464
 -23388929.11347 -18221230.41046  21056669.1804                   21056666.2974
 -21589342.83247 -16813424.45745  22459883.2274                   22459881.0514
 -16356220.72746 -12743180.38743  24491804.9224                   24491803.7584
  -9999644.27748  -7777077.71546  21613474.1644                   21613471.1564
   3522869.05547   2760512.52745  22632117.2194                   22632112.6764
 -10817889.14847  -8415512.07845  22357473.0634                   22357473.4304
 -23024267.93047 -17925877.23445  21835553.9144                   21835551.3524
 11  8 25  2 55  0.0000000  0 10G18G30G12G29G15G21G05G02G25G26
 -16983471.81646 -13224403.88343  24229330.6094                   24229330.9104
  -8014006.98047  -6231555.80945  22726120.0474                   22726118.7934
   1164712.07446    952639.19144  23328849.6414                   23328847.6994
 -23400735.32847 -18230430.03146  21054422.1254                   21054419.3794
 -21630350.08647 -16845378.08645  22452079.9774                   22452077.9734
 -16365585.24646 -12750477.33643  24490022.8524                   24490021.0664
  -9879556.96148  -7683503.18046  21636326.0864                   21636322.7974
   3617736.39847   2834435.14145  22650169.8834                   22650165.1484
 -10712662.01247  -8333516.92245  22377497.1804                   22377497.5314
 -23037578.98447 -17936249.43445  21833020.6804                   21833018.3634
 11  8 25  2 55 30.0000000  0 10G18G30G12G29G15G21G05G02G25G26
 -17019587.87146 -13252546.05943  24222457.4384                   24222457.7194
  -7902295.71947  -6144508.07445  22747377.7114                   22747377.5234
   1304214.32847   1061342.20744  23355395.9614                   23355394.6604
 -23412209.71548 -18239371.08246  21052238.7584                   21052235.7114
 -21671135.78147 -16877159.07045  22444318.3134                   22444316.3404
 -16374985.60246 -12757802.25443  24488234.6484                   24488231.6804
  -9759227.14848  -7589739.68446  21659223.6804                   21659220.9304
   3712708.57047   2908439.42245  22668242.3524                   22668238.1454
 -10607074.97347  -8251241.32045  22397589.3204                   22397589.6134
 -23050400.48447 -17946240.16445  21830580.4144                   21830578.4414
 11  8 25  2 56  0.0000000  0 10G18G30G12G29G15G21G05G02G25G26
 -17055497.24646 -13280527.15243  24215624.8444                   24215624.2034
  -7790264.98447  -6057211.43045  22768696.7504                   22768696.1684
   1443801.12947   1170111.09045  23381958.6174                   23381956.7274
 -23423343.90648 -18248047.07046  21050120.1804                   21050116.9534
 -21711690.84847 -16908760.35945  22436600.8444                   22436598.4264
 -16384416.57046 -12765151.04343  24486439.5394                   24486436.3834
  -9638651.37148  -7495784.52746  21682168.9774                   21682165.2704
   3807791.50047   2982530.01245  22686336.3834                   22686332.1684
 -10501125.16047  -8168683.02745  22417750.9774                   22417751.4614
 -23062723.33647 -17955842.34045  21828236.0474                   21828233.4774
 11  8 25  2 56 30.0000000  0 10G18G30G12G29G15G21G05G02G25G26
 -17091204.89846 -13308351.08243  24208829.8674                   24208829.5634
  -7677923.62147  -5969672.75045  22790074.5784                   22790073.2194
   1583463.75847   1278939.04745  23408535.8134                   23408533.4494
 -23434141.42248 -18256460.69146  21048065.4144                   21048062.4414
 -21752018.11747 -16940184.13745  22428926.6094                   22428924.8404
 -16393884.43446 -12772528.49643  24484638.1564                   24484634.7734
  -9517837.97748  -7401644.21546  21705158.7424                   21705155.3984
   3902979.97748   3056702.84845  22704450.2424                   22704445.6724
 -10394821.15647  -8085848.75445  22437980.1024                   22437980.3914
 -23074549.89547 -17965057.80545  21825985.2814                   21825983.0434
 11  8 25  2 57  0.0000000  0 10G18G30G12G29G15G21G05G02G25G26
 -17126709.99646 -13336017.19143  24202072.8674                   24202072.5474
  -7565275.24647  -5881894.82045  22811511.3524                   22811509.5744
   1723198.82447   1387823.45345  23435126.5554                   23435124.7734
 -23444600.62148 -18264610.71546  21046075.0474                   21046072.1094
 -21792114.87147 -16971428.28545  22421296.8674                   22421294.3244
 -16403389.98046 -12779935.31343  24482828.9614                   24482827.1054
  -9396789.60248  -7307320.80146  21728193.5704                   21728190.5514
   3998274.09447   3130958.00045  22722583.9844                   22722579.5314
 -10288166.32847  -8002741.10545  22458275.8134                   22458276.1054
 -23085877.80947 -17973884.71145  21823829.4064                   21823827.4104
 11  8 25  2 57 30.0000000  0 10G18G30G12G29G15G21G05G02G25G26
 -17162007.18846 -13363521.27043  24195355.4454                   24195355.1454
  -7452318.35247  -5793876.48445  22833006.3284                   22833004.5984
   1863007.91847   1496765.55145  23461731.0474                   23461729.1334
 -23454714.46548 -18272491.60946  21044150.5314                   21044147.6214
 -21831973.51247 -17002486.89845  22413712.1804                   22413709.3404
 -16412929.23046 -12787368.41043  24481013.4224                   24481012.0274
  -9275504.28948  -7212812.75046  21751273.3524                   21751270.3404
   4093678.73047   3205299.27345  22740738.6954                   22740734.8054
 -10181158.90647  -7919358.70745  22478639.0314                   22478639.0664
 -23096699.25447 -17982316.97745  21821770.1564                   21821767.9574
 11  8 25  2 58  0.0000000  0 10G18G30G12G29G15G21G05G02G25G26
 -17197092.21946 -13390860.05943  24188679.3204                   24188678.5594
  -7339052.89847  -5705617.70345  22854559.8834                   22854558.8594
   2002891.36347   1605765.59444  23488349.8284                   23488348.1804
 -23464476.96948 -18280098.75046  21042293.0864                   21042289.5514
 -21871587.70747 -17033355.03145  22406173.7814                   22406171.2814
 -16422498.97346 -12794825.23843  24479191.3594                   24479190.3524
  -9153981.38748  -7118119.57446  21774398.3674                   21774395.2664
   4189197.73847   3279729.66845  22758915.1414                   22758911.2704
 -10073798.52747  -7835701.28945  22499069.0164                   22499069.1214
 -23107008.17647 -17990349.86345  21819808.6724                   21819806.1484
 11  8 25  2 58 30.0000000  0 10G18G30G12G29G15G21G05G02G25G26
 -17231970.46146 -13418037.71143  24182042.2504                   24182041.3984
  -7225488.25847  -5617125.80545  22876170.1724                   22876168.5744
   2142839.77746   1714816.25444  23514981.1564                   23514979.2194
 -23473892.41848 -18287435.45346  21040500.7974                   21040497.8484
 -21910960.62947 -17064035.15645  22398681.4924                   22398679.1994
 -16432105.85546 -12802311.06343  24477364.1484                   24477361.4774
  -9032229.46948  -7023247.94546  21797566.9694                   21797563.9454
   4284825.34047   3354244.66445  22777112.6254                   22777108.6724
  -9966094.36747  -7751775.98445  22519564.1954                   22519564.8204
 -23116807.59447 -17997985.73045  21817943.2274                   21817941.1484
 11  8 25  2 59  0.0000000  0 10G18G30G12G29G15G21G05G02G25G26
 -17266642.41446 -13445054.64543  24175444.3834                   24175443.6914
  -7111629.15647  -5528404.46545  22897837.3674                   22897836.1724
   2282848.56247   1823913.96144  23541623.8364                   23541622.7704
 -23482960.06348 -18294501.14846  21038775.4064                   21038772.3404
 -21950090.69147 -17094526.05145  22391235.4924                   22391232.9734
 -16441752.21946 -12809827.63743  24475528.5164                   24475526.0394
  -8910253.00048  -6928201.34046  21820778.4844                   21820775.0664
   4380560.59047   3428843.54345  22795330.7814                   22795326.4734
  -9858050.87947  -7667586.26245  22540124.2734                   22540124.5594
 -23126096.27747 -18005223.62145  21816176.3834                   21816173.6174
 11  8 25  2 59 30.0000000  0 10G18G30G12G29G15G21G05G02G25G26
 -17301103.80946 -13471907.50043  24168886.7424                   24168886.3054
  -6997475.52347  -5439453.59445  22919560.0004                   22919558.6334
   2422917.78946   1933058.75444  23568278.0554                   23568276.9654
 -23491674.43448 -18301291.56646  21037117.2974                   21037114.2034
 -21988971.66847 -17124822.84445  22383835.8834                   22383833.8014
 -16451435.01646 -12817372.59443  24473685.9064                   24473683.9614
  -8788050.51248  -6832978.61746  21844032.7344                   21844029.7584
   4476406.75447   3503528.85945  22813569.7424                   22813565.6764
  -9749667.78547  -7583131.92245  22560748.9694                   22560749.2464
 -23134867.85947 -18012058.57845  21814506.6724                   21814505.0744
 11  8 25  3  0  0.0000000  0 10G18G30G12G29G15G21G05G02G25G26
 -17335355.68046 -13498597.09843  24162368.1484                   24162366.8134
  -6883032.77747  -5350277.45745  22941338.0004                   22941336.9694
   2563042.29346   2042246.60544  23594943.3834                   23594941.9494
 -23500035.28948 -18307806.50446  21035526.1954                   21035522.9104
 -22027602.69547 -17154924.87545  22376484.6644                   22376482.1644
 -16461157.52346 -12824948.50443  24471835.1644                   24471833.8094
  -8665626.89148  -6737583.58246  21867328.8204                   21867326.0314
   4572362.31247   3578299.43045  22831829.3204                   22831824.6134
  -9640950.06347  -7498416.82846  22581437.0084                   22581437.7544
 -23143121.57447 -18018490.02045  21812936.4454                   21812933.9064
 11  8 25  3  0 30.0000000  0 10G18G30G12G29G15G21G05G02G25G26
 -18944811.84047 -14752718.64143  23856098.8984                   23856096.8984
  -8343713.33647  -6488470.13744  22663379.3444                   22663378.1094
   1127810.67246    923884.27744  23321828.1414                   23321826.6024
 -25083453.64548 -19541638.97346  20734211.5634                   20734208.5904
 -23641395.14147 -18412425.41845  22069390.4534                   22069387.7274
 -18046333.05946 -14060150.10943  24170186.7664                   24170184.5274
 -10118393.76248  -7869609.71946  21590876.5944                   21590873.7584
   3093017.74647   2425563.39145  22550319.7974                   22550314.8674
 -11107310.46547  -8641035.34045  22302397.9064                   22302398.4774
 -24726267.96547 -19252110.53945  21511673.2584                   21511671.2504
 11  8 25  3  1  0.0000000  0 10G18G30G12G29G15G21G05G02G25G26
 -18978631.52047 -14779071.47343  23849662.9304                   23849661.7464
  -8228690.70347  -6398842.14544  22685267.3134                   22685266.1214
   1268048.03547   1033160.09844  23348514.3054                   23348512.2074
 -25091089.37548 -19547588.88346  20732759.0314                   20732755.6804
 -23679506.14147 -18442122.23845  22062137.9534                   22062135.5594
 -18056123.87546 -14067779.21143  24168323.2814                   24168320.6644
  -9995524.41048  -7773867.37146  21614258.0634                   21614254.8554
   3189204.38747   2500514.02045  22568623.3984                   22568618.1134
 -10997921.65647  -8555797.32845  22323214.0314                   22323214.2274
 -24733465.91447 -19257719.30145  21510303.5704                   21510301.7274
 11  8 25  3  1 30.0000000  0 10G18G30G12G29G15G21G05G02G25G26
 -19012241.39546 -14805260.86743  23843267.6564                   23843266.4964
  -8113390.55147  -6308997.87544  22707208.4614                   22707207.1334
   1408329.53147   1142470.31644  23375209.0944                   23375206.8714
 -25098366.89848 -19553259.66046  20731373.5864                   20731370.9344
 -23717359.82847 -18471618.55145  22054934.9064                   22054932.1174
 -18065957.19946 -14075441.46943  24166452.5554                   24166450.2854
  -9872443.32048  -7677960.02346  21637679.6954                   21637676.6604
   3285499.50847   2575549.17244  22586947.4844                   22586942.8324
 -10888209.29747  -8470307.20345  22344091.4224                   22344091.7274
 -24740139.48048 -19262919.45345  21509034.0944                   21509031.6844
 11  8 25  3  2  0.0000000  0 10G18G30G12G29G15G21G05G02G25G26
 -19045633.32446 -14831280.42643  23836912.6024                   23836911.4774
  -7997809.25047  -6218934.55145  22729203.2194                   22729201.9104
   1548658.98047   1251817.88345  23401912.9224                   23401911.0594
 -25105277.16848 -19558644.26646  20730058.4924                   20730055.8594
 -23754946.78147 -18500907.01645  22047781.8364                   22047779.7734
 -18075826.68046 -14083131.91443  24164573.8134                   24164571.8484
  -9749146.15248  -7581884.30546  21661142.2114                   21661139.0784
   3381910.55147   2650674.66445  22605293.8594                   22605289.2814
 -10778169.53147  -8384561.94145  22365031.5004                   22365031.9734
 -24746278.77348 -19267703.27745  21507865.4384                   21507863.3444
 11  8 25  3  2 30.0000000  0 10G18G30G12G29G15G21G05G02G25G26
 -19078808.71146 -14857131.20343  23830599.0084                   23830598.5944
  -7881952.26647  -6128656.39145  22751249.8444                   22751248.5084
   1689031.25047   1361198.81244  23428624.5784                   23428622.9844
 -25111819.94148 -19563742.51246  20728813.6954                   20728810.5704
 -23792266.03547 -18529986.90245  22040680.4304                   22040677.7464
 -18085734.87946 -14090852.49644  24162688.6954                   24162686.6214
  -9625637.75048  -7485643.99646  21684645.3524                   21684642.3594
   3478435.66447   2725889.02745  22623661.9064                   22623657.4654
 -10667807.54347  -8298565.60945  22386032.2664                   22386033.2774
 -24751883.27047 -19272070.37545  21506798.8914                   21506796.7154
 11  8 25  3  3  0.0000000  0 10G18G30G12G29G15G21G05G02G25G26
 -19111767.19546 -14882812.96543  23824327.6644                   23824327.1484
  -7765822.90247  -6038166.01645  22773348.7974                   22773347.0944
   1829443.19147   1470610.65644  23455344.4064                   23455342.6954
 -25117992.95348 -19568552.61746  20727638.7664                   20727635.9064
 -23829314.70347 -18558855.93045  22033630.0474                   22033627.2584
 -18095682.37946 -14098603.69943  24160795.6954                   24160793.2424
  -9501920.34448  -7389240.82846  21708187.4924                   21708184.6294
   3575074.93447   2801192.37545  22642051.5784                   22642046.8594
 -10557126.54347  -8212320.69145  22407094.0314                   22407094.4924
 -24756949.88348 -19276018.35545  21505834.4454                   21505832.3094
 11  8 25  3  3 30.0000000  0 10G18G30G12G29G15G21G05G02G25G26
 -19144505.71946 -14908323.36343  23818097.4224                   23818096.6724
  -7649422.27747  -5947464.25044  22795498.3754                   22795497.2194
   1969893.93447   1580052.72744  23482071.0234                   23482069.9694
 -25123792.51648 -19573071.73046  20726535.5084                   20726532.2624
 -23866087.60247 -18587510.08245  22026632.6094                   22026630.0084
 -18105667.29746 -14106384.09044  24158895.7194                   24158893.1294
  -9377994.49648  -7292675.24646  21731770.1564                   21731766.9614
   3671831.32047   2876586.96545  22660464.0474                   22660458.9734
 -10446127.32447  -8125827.81645  22428216.7194                   22428217.3674
 -24761474.10247 -19279543.69945  21504973.8754                   21504971.8284
 11  8 25  3  4  0.0000000  0 10G18G30G12G29G15G21G05G02G25G26
 -19177026.45346 -14933664.03543  23811909.1334                   23811907.4614
  -7532756.85247  -5856556.14544  22817699.3914                   22817698.0474
   2110376.90247   1689519.90244  23508804.4694                   23508802.8444
 -25129219.04748 -19577300.16846  20725503.0704                   20725499.3714
 -23902584.90247 -18615949.47345  22019687.3284                   22019684.5904
 -18115693.53946 -14114196.66443  24156987.8834                   24156985.7344
  -9253865.67648  -7195951.49246  21755391.0314                   21755387.6844
   3768701.82847   2952070.47345  22678897.5164                   22678893.1884
 -10334816.14847  -8039091.87145  22449398.6724                   22449399.9574
 -24765456.11348 -19282646.53945  21504216.3594                   21504213.6484
 11  8 25  3  4 30.0000000  0 10G18G30G12G29G15G21G05G02G25G26
 -19209325.19546 -14958831.70343  23805762.1804                   23805761.9414
  -7415826.28147  -5765441.44144  22839950.8364                   22839949.4144
   2250893.11346   1799012.97744  23535543.5864                   23535542.6724
 -25134266.69148 -19581233.35946  20724542.2974                   20724539.2704
 -23938800.52747 -18644169.38545  22012795.0704                   22012792.7894
 -18125757.58646 -14122038.74644  24155072.1024                   24155070.4264
  -9129533.02348  -7099068.91046  21779050.5944                   21779047.6214
   3865690.52747   3027646.07445  22697353.9924                   22697349.7894
 -10223192.50447  -7952112.43045  22470640.1254                   22470640.2154
 -24768889.74248 -19285322.06645  21503562.5944                   21503560.3834
 11  8 25  3  5  0.0000000  0 10G18G30G12G29G15G21G05G02G25G26
 -19241403.19146 -14983827.42243  23799658.5314                   23799657.3674
  -7298635.69147  -5674124.14144  22862250.6094                   22862249.5084
   2391437.37946   1908527.92244  23562288.4224                   23562287.1604
 -25138935.60248 -19584871.43446  20723653.6884                   20723650.8984
 -23974732.64147 -18672168.37146  22005957.5004                   22005955.2154
 -18135861.74246 -14129912.08643  24153149.2504                   24153146.8364
  -9005000.88748  -7002030.88746  21802748.6094                   21802745.4064
   3962795.87947   3103312.59045  22715832.7664                   22715828.5664
 -10111261.32047  -7864893.36345  22491939.7274                   22491940.6414
 -24771773.98848 -19287569.50045  21503013.9844                   21503011.3054
 11  8 25  3  5 30.0000000  0 10G18G30G12G29G15G21G05G02G25G26
 -19273258.87146 -15008649.86744  23793596.3364                   23793595.0084
  -7181188.25847  -5582606.68444  22884600.5704                   22884599.0704
   2532007.15547   2018062.74844  23589037.8204                   23589036.9454
 -25143223.18048 -19588212.37146  20722837.8594                   20722834.4224
 -24010378.52047 -18699944.32445  21999174.6024                   21999172.0984
 -18146006.27746 -14137816.85943  24151219.4534                   24151216.5864
  -8880271.14148  -6904838.88346  21826483.8444                   21826480.6724
   4060018.52747   3179070.48045  22734334.0234                   22734329.3054
  -9999025.50847  -7777436.90645  22513297.7274                   22513298.2074
 -24774106.22348 -19289386.79345  21502570.0314                   21502567.5904
 11  8 25  3  6  0.0000000  0 10G18G30G12G29G15G21G05G02G25G26
 -19304890.44146 -15033297.68843  23787576.6564                   23787575.1174
  -7063485.76247  -5490890.48844  22906998.7664                   22906997.8364
   2672600.37547   2127615.85244  23615791.4534                   23615790.8054
 -25147125.68047 -19591253.25446  20722095.0634                   20722091.6414
 -24045733.64847 -18727493.73045  21992446.5164                   21992444.2624
 -18156190.25846 -14145752.36343  24149281.1644                   24149278.7934
  -8755345.29348  -6807494.07046  21850256.2664                   21850253.1604
   4157360.15247   3254921.09445  22752856.9924                   22752852.1914
  -9886486.77047  -7689744.41045  22534713.1804                   22534713.7584
 -24775882.05147 -19290770.52745  21502231.9304                   21502229.8404
 11  8 25  3  6 30.0000000  0 10G18G30G12G29G15G21G05G02G25G26
 -19336300.68446 -15057773.04343  23781599.0554                   23781598.2114
  -6945535.16847  -5398980.96144  22929443.6484                   22929442.9964
   2813210.63746   2237182.22344  23642549.0704                   23642548.3754
 -25150644.68848 -19593995.30946  20721425.3284                   20721422.5234
 -24080798.71147 -18754817.08645  21985773.9064                   21985771.5004
 -18166417.85946 -14153721.91043  24147334.8444                   24147332.7154
  -8630229.02348  -6710000.87946  21874065.3444                   21874062.0944
   4254817.64847   3330861.99245  22771403.0004                   22771398.2704
  -9773651.69947  -7601821.01245  22556184.9614                   22556185.6174
 -24777102.78548 -19291721.72345  21501999.2664                   21501997.3094
 11  8 25  3  7  0.0000000  0 10G18G30G12G29G15G21G05G02G25G26
 -19367486.90247 -15082073.87544  23775665.0634                   23775663.8324
  -6827337.72347  -5306879.08244  22951936.7424                   22951934.7584
   2953837.20347   2346761.28944  23669310.1414                   23669308.1174
 -25153776.09048 -19596435.33646  20720829.6174                   20720826.5594
 -24115568.79747 -18781910.59845  21979157.5784                   21979155.0634
 -18176687.20346 -14161723.96943  24145381.1804                   24145378.3284
  -8504922.99248  -6612359.81646  21897910.3754                   21897907.5434
   4352393.54347   3406895.16444  22789970.2814                   22789966.0824
  -9660521.45747  -7513667.60545  22577713.1254                   22577713.5904
 -24777763.62148 -19292236.63345  21501874.0784                   21501871.1454
 11  8 25  3  7 30.0000000  0 10G18G30G12G29G15G21G05G02G25G26
 -19398446.49647 -15106198.15644  23769773.5944                   23769772.3364
  -6708894.96947  -5214586.04744  22974475.2664                   22974474.3444
   3094478.43047   2456351.80944  23696073.2194                   23696070.6524
 -25156515.69947 -19598570.07046  20720308.0164                   20720305.2234
 -24150039.14547 -18808770.55546  21972597.7734                   21972595.5984
 -18186997.12947 -14169757.63743  24143418.7194                   24143415.9654
  -8379427.88748  -6514571.41846  21921790.9384                   21921788.1174
   4450089.75847   3483022.07844  22808561.3594                   22808557.3014
  -9547097.42647  -7425285.26245  22599296.5394                   22599297.5234
 -24777860.10947 -19292311.79745  21501855.6884                   21501853.2304
 11  8 25  3  8  0.0000000  0 10G18G30G12G29G15G21G05G02G25G26
 -19429180.77347 -15130146.84443  23763925.2814                   23763923.3794
  -6590212.02347  -5122105.84844  22997060.0164                   22997059.3164
   3235129.70347   2565950.17244  23722838.2504                   23722836.7274
 -25158863.63348 -19600399.59046  20719861.4454                   20719858.4774
 -24184208.69147 -18835396.12145  21966095.5554                   21966092.9574
 -18197349.74247 -14177824.54344  24141448.8054                   24141446.0044
  -8253747.96548  -6416639.00846  21945706.9774                   21945703.5394
   4547904.96147   3559241.69145  22827175.5944                   22827171.0274
  -9433384.51647  -7336677.82045  22620935.9304                   22620936.4534
 -24777391.56648 -19291946.66045  21501944.8054                   21501942.1684
 11  8 25  3  8 30.0000000  0 10G18G30G12G29G15G21G05G02G25G26
 -19459687.69947 -15153918.34844  23758119.2274                   23758117.7584
  -6471291.04347  -5029440.19544  23019689.9614                   23019689.1644
   3375788.91447   2675554.67244  23749604.5314                   23749603.5164
 -25160816.38348 -19601921.18846  20719489.6954                   20719486.7464
 -24218073.58647 -18861784.30145  21959651.2274                   21959648.3014
 -18207744.27047 -14185924.11744  24139470.9454                   24139468.3404
  -8127884.65648  -6318563.70746  21969658.3054                   21969654.8484
   4645840.25447   3635554.88745  22845811.8754                   22845807.2034
  -9319384.77347  -7247846.89545  22642628.8914                   22642629.6644
 -24776354.29748 -19291138.38345  21502141.7114                   21502139.6414
 11  8 25  3  9  0.0000000  0 10G18G30G12G29G15G21G05G02G25G26
 -19489967.41047 -15177512.84844  23752357.6094                   23752356.3484
  -6352136.62547  -4936592.62144  23042364.4774                   23042362.8204
   3516452.14547   2785162.31244  23776372.4224                   23776370.6684
 -25162373.21548 -19603134.27746  20719193.3674                   20719190.3484
 -24251631.83247 -18887933.52046  21953265.0394                   21953262.4924
 -18218182.16047 -14194057.50044  24137484.2894                   24137481.5704
  -8001841.25048  -6220348.07846  21993643.4144                   21993640.3054
   4743895.57447   3711961.59845  22864471.1884                   22864466.7194
  -9205102.44148  -7158795.74645  22664376.3754                   22664376.9654
 -24774746.96948 -19289885.89845  21502447.7344                   21502445.5434
 11  8 25  3  9 30.0000000  0 10G18G30G12G29G15G21G05G02G25G26
 -19520020.65246 -15200930.86343  23746638.3984                   23746637.4264
  -6232752.68447  -4843566.18444  23065082.0704                   23065080.9844
   3657115.62547   2894770.12544  23803139.3524                   23803138.0204
 -25163532.40648 -19604037.52746  20718972.9694                   20718969.6564
 -24284881.29747 -18913842.13746  21946938.0234                   21946935.4884
 -18228664.59446 -14202225.58243  24135489.4144                   24135486.7234
  -7875620.91448  -6121994.57446  22017662.4694                   22017659.3404
   4842070.30547   3788461.38745  22883153.1884                   22883148.8094
  -9090541.37548  -7069527.42645  22686176.5784                   22686177.3634
 -24772568.03948 -19288187.98846  21502862.5004                   21502860.1414
 11  8 25  3 10  0.0000000  0 10G18G30G12G29G15G21G05G02G25G26
 -19549841.86347 -15224168.11343  23740963.8594                   23740962.4924
  -6113137.75447  -4750359.78544  23087844.2814                   23087843.2424
   3797780.85947   3004379.32044  23829907.3204                   23829906.0394
 -25164286.82848 -19604625.37146  20718829.3524                   20718825.9184
 -24317814.58247 -18939504.39845  21940670.5394                   21940668.7894
 -18239187.57447 -14210425.25043  24133487.0704                   24133483.9064
  -7749221.60248  -6023501.60546  22041715.4384                   22041712.1724
   4940369.60547   3865058.23045  22901858.8914                   22901854.4804
  -8975700.05947  -6980040.70345  22708030.3754                   22708030.8674
 -24769809.87548 -19286038.73845  21503387.0944                   21503384.6804
 11  8 25  3 10 30.0000000  0 10G18G30G12G29G15G21G05G02G25G26
 -19579435.82446 -15247228.24643  23735331.7114                   23735329.6724
  -5993301.05947  -4656980.56644  23110648.3594                   23110647.2504
   3938439.67247   3113983.50044  23856673.8524                   23856672.8674
 -25164640.97748 -19604901.31346  20718761.5784                   20718758.6954
 -24350434.23847 -18964922.27046  21934463.5314                   21934460.9264
 -18249757.21147 -14218661.27043  24131476.2814                   24131472.6884
  -7622651.24647  -5924875.35546  22065800.5864                   22065797.8634
   5038788.21947   3941748.04745  22920587.3204                   22920582.7274
  -8860587.35947  -6890342.53145  22729935.2424                   22729935.8244
 -24766476.20347 -19283441.04345  21504021.7584                   21504019.3324
 11  8 25  3 11  0.0000000  0 10G18G30G12G29G15G21G05G02G25G26
 -19608798.32046 -15270108.02043  23729743.8914                   23729742.6564
  -5873242.03147  -4563428.10944  23133494.8834                   23133493.3404
   4079092.25847   3223582.84444  23883438.8754                   23883437.9844
 -25164588.78948 -19604860.61746  20718771.8054                   20718768.4774
 -24382733.64147 -18990090.57845  21928317.5314                   21928314.6724
 -18260369.69147 -14226930.67244  24129456.9064                   24129453.4534
  -7495908.57847  -5826114.84846  22089919.1484                   22089915.8054
   5137330.05947   4018533.87144  22939338.8984                   22939334.7504
  -8745202.57848  -6800432.34845  22751892.5784                   22751893.5864
 -24762560.42248 -19280389.75445  21504766.7424                   21504764.1174
 11  8 25  3 11 30.0000000  0 10G18G30G12G29G15G21G05G02G25G26
 -19637929.87946 -15292807.83243  23724200.3754                   23724199.0554
  -5752965.30547  -4469706.00044  23156383.0234                   23156381.6884
   4219734.59047   3333174.18444  23910202.2974                   23910201.1804
 -25164129.31648 -19604502.56646  20718859.2894                   20718856.2934
 -24414711.05147 -19015007.99646  21922231.6804                   21922229.3754
 -18271026.60947 -14235234.71143  24127427.9534                   24127425.5354
  -7368997.16847  -5727222.83646  22114069.3444                   22114066.7074
   5235994.42247   4095415.17644  22958114.2504                   22958110.0124
  -8629550.21547  -6710313.64845  22773900.1024                   22773901.2734
 -24758061.64148 -19276884.18445  21505622.9304                   21505620.1374
 11  8 25  3 12  0.0000000  0 10G18G30G12G29G15G21G05G02G25G26
 -19666829.86747 -15315327.21943  23718700.9304                   23718700.1914
  -5632474.32847  -4375816.94544  23179311.2894                   23179310.6024
   4360363.66847   3442755.20744  23936963.5864                   23936962.2814
 -25163260.64848 -19603825.67646  20719024.5234                   20719021.3164
 -24446363.89547 -19039672.51246  21916209.0164                   21916206.1484
 -18281728.49247 -14243573.78543  24125391.3984                   24125389.0164
  -7241919.70348  -5628201.44146  22138251.6954                   22138248.9384
   5334781.33247   4172391.97345  22976912.3834                   22976908.6254
  -8513633.58247  -6619989.02745  22795958.4774                   22795959.4144
 -24752977.39848 -19272922.40245  21506589.9924                   21506587.8324
 11  8 25  3 12 30.0000000  0 10G18G30G12G29G15G21G05G02G25G26
 -19695499.77747 -15337667.32843  23713244.7734                   23713244.1884
  -5511774.14847  -4281764.88344  23202279.4534                   23202278.9774
   4500974.67246   3552322.12544  23963720.6024                   23963720.3284
 -25161982.23048 -19602829.48846  20719267.8984                   20719265.2234
 -24477691.22747 -19064083.38346  21910247.1024                   21910244.9454
 -18292477.64547 -14251949.66043  24123346.0234                   24123343.1374
  -7114680.52348  -5529054.02046  22162464.5234                   22162461.2274
   5433689.59447   4249463.31644  22995734.7734                   22995730.3554
  -8397457.60247  -6529462.33245  22818066.0234                   22818066.5514
 -24747307.49248 -19268504.27045  21507669.3364                   21507667.3634
 11  8 25  3 13  0.0000000  0 10G18G30G12G29G15G21G05G02G25G26
 -19723933.69947 -15359823.50444  23707834.1954                   23707833.0314
  -5390863.38347  -4187548.75045  23225288.4384                   23225287.7704
   4641569.35947   3661876.34444  23990475.1334                   23990474.7034
 -25160287.44148 -19601508.86746  20719590.2504                   20719587.0554
 -24508685.25848 -19088234.52046  21904349.4844                   21904346.9064
 -18303269.78546 -14260359.04343  24121292.1414                   24121289.1484
  -6987276.96148  -5429778.51246  22186708.4534                   22186705.6134
   5532724.34447   4326633.23045  23014580.3364                   23014575.8484
  -8281020.66847  -6438732.27745  22840223.2814                   22840224.4184
 -24741044.37548 -19263623.89545  21508861.0234                   21508858.7114
 11  8 25  3 13 30.0000000  0 10G18G30G12G29G15G21G05G02G25G26
 -19752131.58247 -15381795.77744  23702468.2974                   23702467.2074
  -5269746.01247  -4093171.62944  23248336.2194                   23248335.5084
   4782144.32446   3771415.21944  24017225.7344                   24017225.2934
 -25158174.89148 -19599862.71546  20719992.0634                   20719989.3874
 -24539343.98047 -19112124.39545  21898515.1254                   21898512.0474
 -18314105.71947 -14268802.52344  24119230.3204                   24119226.6644
  -6859711.85948  -5330377.14146  22210983.6254                   22210980.5474
   5631885.50047   4403901.64144  23033449.7814                   23033445.7814
  -8164326.62947  -6347801.88745  22862429.4614                   22862430.5824
 -24734186.61348 -19258280.14845  21510165.8524                   21510163.8794
